<?xml version="1.0" encoding="UTF-8" standalone="no" ?>
<gpx xmlns="http://www.topografix.com/GPX/1/1" xmlns:xsi="http://www.w3.org/2001/XMLSchema-instance" xsi:schemaLocation="http://www.topografix.com/GPX/1/1 http://www.topografix.com/GPX/1/1/gpx.xsd" version="1.1" creator="VisuGPX - https://www.visugpx.com">
  <metadata>
    <name>Traversée VTT Vosges 2-5</name>
    <desc><![CDATA[Saverne _ Saales]]></desc>
  </metadata>
  <trk>
    <name><![CDATA[TMV J2 Saverne Saales]]></name>
    <trkseg>
      <trkpt lat="48.73049" lon="7.35526">
        <ele>148.6610107</ele>
        <time>2010-08-08T06:30:27Z</time>
      </trkpt>
      <trkpt lat="48.73046" lon="7.35534">
        <ele>156.8321533</ele>
        <time>2010-08-08T06:31:32Z</time>
      </trkpt>
      <trkpt lat="48.73048" lon="7.35553">
        <ele>171.2520752</ele>
        <time>2010-08-08T06:32:06Z</time>
      </trkpt>
      <trkpt lat="48.73048" lon="7.35581">
        <ele>179.4232178</ele>
        <time>2010-08-08T06:32:12Z</time>
      </trkpt>
      <trkpt lat="48.73047" lon="7.3556">
        <ele>214.9919434</ele>
        <time>2010-08-08T06:32:24Z</time>
      </trkpt>
      <trkpt lat="48.73052" lon="7.35541">
        <ele>220.7598877</ele>
        <time>2010-08-08T06:32:30Z</time>
      </trkpt>
      <trkpt lat="48.73087" lon="7.35542">
        <ele>227.9697266</ele>
        <time>2010-08-08T06:32:41Z</time>
      </trkpt>
      <trkpt lat="48.73124" lon="7.35507">
        <ele>231.8149414</ele>
        <time>2010-08-08T06:32:54Z</time>
      </trkpt>
      <trkpt lat="48.7313" lon="7.35501">
        <ele>232.2957764</ele>
        <time>2010-08-08T06:32:56Z</time>
      </trkpt>
      <trkpt lat="48.73127" lon="7.35472">
        <ele>233.7376709</ele>
        <time>2010-08-08T06:33:03Z</time>
      </trkpt>
      <trkpt lat="48.73101" lon="7.35396">
        <ele>235.6602783</ele>
        <time>2010-08-08T06:33:20Z</time>
      </trkpt>
      <trkpt lat="48.73119" lon="7.35329">
        <ele>238.5443115</ele>
        <time>2010-08-08T06:33:35Z</time>
      </trkpt>
      <trkpt lat="48.73149" lon="7.35223">
        <ele>244.7928467</ele>
        <time>2010-08-08T06:33:58Z</time>
      </trkpt>
      <trkpt lat="48.73175" lon="7.35137">
        <ele>247.1960449</ele>
        <time>2010-08-08T06:34:19Z</time>
      </trkpt>
      <trkpt lat="48.73184" lon="7.35129">
        <ele>247.6767578</ele>
        <time>2010-08-08T06:34:23Z</time>
      </trkpt>
      <trkpt lat="48.73198" lon="7.35121">
        <ele>248.1575928</ele>
        <time>2010-08-08T06:34:29Z</time>
      </trkpt>
      <trkpt lat="48.73214" lon="7.35129">
        <ele>249.1187744</ele>
        <time>2010-08-08T06:34:35Z</time>
      </trkpt>
      <trkpt lat="48.73223" lon="7.3512">
        <ele>249.1187744</ele>
        <time>2010-08-08T06:34:40Z</time>
      </trkpt>
      <trkpt lat="48.73233" lon="7.3509">
        <ele>250.560791</ele>
        <time>2010-08-08T06:34:50Z</time>
      </trkpt>
      <trkpt lat="48.73237" lon="7.35066">
        <ele>250.0802002</ele>
        <time>2010-08-08T06:34:59Z</time>
      </trkpt>
      <trkpt lat="48.73248" lon="7.35037">
        <ele>253.925415</ele>
        <time>2010-08-08T06:35:13Z</time>
      </trkpt>
      <trkpt lat="48.73253" lon="7.35023">
        <ele>256.3287354</ele>
        <time>2010-08-08T06:35:20Z</time>
      </trkpt>
      <trkpt lat="48.73266" lon="7.34983">
        <ele>261.6159668</ele>
        <time>2010-08-08T06:35:37Z</time>
      </trkpt>
      <trkpt lat="48.73272" lon="7.34958">
        <ele>263.5385742</ele>
        <time>2010-08-08T06:35:49Z</time>
      </trkpt>
      <trkpt lat="48.73287" lon="7.34927">
        <ele>266.9031982</ele>
        <time>2010-08-08T06:36:05Z</time>
      </trkpt>
      <trkpt lat="48.73304" lon="7.34904">
        <ele>267.864502</ele>
        <time>2010-08-08T06:36:18Z</time>
      </trkpt>
      <trkpt lat="48.73323" lon="7.34873">
        <ele>271.229126</ele>
        <time>2010-08-08T06:36:33Z</time>
      </trkpt>
      <trkpt lat="48.73333" lon="7.34852">
        <ele>274.1130371</ele>
        <time>2010-08-08T06:36:44Z</time>
      </trkpt>
      <trkpt lat="48.7334" lon="7.34827">
        <ele>276.0356445</ele>
        <time>2010-08-08T06:36:57Z</time>
      </trkpt>
      <trkpt lat="48.73344" lon="7.34817">
        <ele>275.0744629</ele>
        <time>2010-08-08T06:37:03Z</time>
      </trkpt>
      <trkpt lat="48.73349" lon="7.34809">
        <ele>275.0744629</ele>
        <time>2010-08-08T06:37:06Z</time>
      </trkpt>
      <trkpt lat="48.73359" lon="7.34802">
        <ele>275.5550537</ele>
        <time>2010-08-08T06:37:16Z</time>
      </trkpt>
      <trkpt lat="48.73349" lon="7.34809">
        <ele>275.5550537</ele>
        <time>2010-08-08T06:37:22Z</time>
      </trkpt>
      <trkpt lat="48.73346" lon="7.34801">
        <ele>277.958252</ele>
        <time>2010-08-08T06:37:27Z</time>
      </trkpt>
      <trkpt lat="48.73346" lon="7.34796">
        <ele>278.4389648</ele>
        <time>2010-08-08T06:37:29Z</time>
      </trkpt>
      <trkpt lat="48.73326" lon="7.34773">
        <ele>281.8035889</ele>
        <time>2010-08-08T06:37:43Z</time>
      </trkpt>
      <trkpt lat="48.73325" lon="7.34769">
        <ele>281.8035889</ele>
        <time>2010-08-08T06:37:45Z</time>
      </trkpt>
      <trkpt lat="48.73315" lon="7.34754">
        <ele>283.2456055</ele>
        <time>2010-08-08T06:37:54Z</time>
      </trkpt>
      <trkpt lat="48.7331" lon="7.34744">
        <ele>283.7261963</ele>
        <time>2010-08-08T06:37:59Z</time>
      </trkpt>
      <trkpt lat="48.73307" lon="7.34742">
        <ele>285.6488037</ele>
        <time>2010-08-08T06:38:01Z</time>
      </trkpt>
      <trkpt lat="48.73304" lon="7.34733">
        <ele>287.0908203</ele>
        <time>2010-08-08T06:38:05Z</time>
      </trkpt>
      <trkpt lat="48.73291" lon="7.34714">
        <ele>290.4555664</ele>
        <time>2010-08-08T06:38:16Z</time>
      </trkpt>
      <trkpt lat="48.73281" lon="7.34699">
        <ele>290.9361572</ele>
        <time>2010-08-08T06:38:25Z</time>
      </trkpt>
      <trkpt lat="48.73262" lon="7.34676">
        <ele>295.2619629</ele>
        <time>2010-08-08T06:38:39Z</time>
      </trkpt>
      <trkpt lat="48.73247" lon="7.34658">
        <ele>298.1461182</ele>
        <time>2010-08-08T06:38:49Z</time>
      </trkpt>
      <trkpt lat="48.73216" lon="7.34636">
        <ele>304.8752441</ele>
        <time>2010-08-08T06:39:09Z</time>
      </trkpt>
      <trkpt lat="48.73201" lon="7.34621">
        <ele>305.355957</ele>
        <time>2010-08-08T06:39:20Z</time>
      </trkpt>
      <trkpt lat="48.73198" lon="7.3462">
        <ele>305.8366699</ele>
        <time>2010-08-08T06:39:22Z</time>
      </trkpt>
      <trkpt lat="48.73188" lon="7.34609">
        <ele>311.1237793</ele>
        <time>2010-08-08T06:39:31Z</time>
      </trkpt>
      <trkpt lat="48.73186" lon="7.34604">
        <ele>312.5657959</ele>
        <time>2010-08-08T06:39:34Z</time>
      </trkpt>
      <trkpt lat="48.7317" lon="7.34581">
        <ele>317.3724365</ele>
        <time>2010-08-08T06:39:47Z</time>
      </trkpt>
      <trkpt lat="48.7316" lon="7.34565">
        <ele>318.8143311</ele>
        <time>2010-08-08T06:40:02Z</time>
      </trkpt>
      <trkpt lat="48.73145" lon="7.34548">
        <ele>317.3724365</ele>
        <time>2010-08-08T06:40:21Z</time>
      </trkpt>
      <trkpt lat="48.73139" lon="7.34539">
        <ele>318.3336182</ele>
        <time>2010-08-08T06:40:45Z</time>
      </trkpt>
      <trkpt lat="48.73133" lon="7.34534">
        <ele>317.8530273</ele>
        <time>2010-08-08T06:40:50Z</time>
      </trkpt>
      <trkpt lat="48.73123" lon="7.34518">
        <ele>317.8530273</ele>
        <time>2010-08-08T06:41:00Z</time>
      </trkpt>
      <trkpt lat="48.73121" lon="7.34514">
        <ele>318.8143311</ele>
        <time>2010-08-08T06:41:02Z</time>
      </trkpt>
      <trkpt lat="48.73116" lon="7.34509">
        <ele>320.2563477</ele>
        <time>2010-08-08T06:41:06Z</time>
      </trkpt>
      <trkpt lat="48.73101" lon="7.34495">
        <ele>325.0629883</ele>
        <time>2010-08-08T06:41:17Z</time>
      </trkpt>
      <trkpt lat="48.73084" lon="7.34478">
        <ele>327.4661865</ele>
        <time>2010-08-08T06:41:29Z</time>
      </trkpt>
      <trkpt lat="48.7308" lon="7.34472">
        <ele>327.4661865</ele>
        <time>2010-08-08T06:41:34Z</time>
      </trkpt>
      <trkpt lat="48.73057" lon="7.34458">
        <ele>331.3115234</ele>
        <time>2010-08-08T06:41:48Z</time>
      </trkpt>
      <trkpt lat="48.7305" lon="7.3445">
        <ele>333.2341309</ele>
        <time>2010-08-08T06:41:53Z</time>
      </trkpt>
      <trkpt lat="48.73044" lon="7.34438">
        <ele>335.1567383</ele>
        <time>2010-08-08T06:41:59Z</time>
      </trkpt>
      <trkpt lat="48.73031" lon="7.34424">
        <ele>337.0794678</ele>
        <time>2010-08-08T06:42:08Z</time>
      </trkpt>
      <trkpt lat="48.73027" lon="7.34417">
        <ele>338.0407715</ele>
        <time>2010-08-08T06:42:12Z</time>
      </trkpt>
      <trkpt lat="48.73023" lon="7.34413">
        <ele>339.0020752</ele>
        <time>2010-08-08T06:42:16Z</time>
      </trkpt>
      <trkpt lat="48.73009" lon="7.34394">
        <ele>342.3666992</ele>
        <time>2010-08-08T06:42:28Z</time>
      </trkpt>
      <trkpt lat="48.72989" lon="7.34379">
        <ele>345.7313232</ele>
        <time>2010-08-08T06:42:38Z</time>
      </trkpt>
      <trkpt lat="48.72984" lon="7.34375">
        <ele>346.692627</ele>
        <time>2010-08-08T06:42:41Z</time>
      </trkpt>
      <trkpt lat="48.72967" lon="7.34365">
        <ele>348.1346436</ele>
        <time>2010-08-08T06:42:54Z</time>
      </trkpt>
      <trkpt lat="48.72963" lon="7.34363">
        <ele>349.0958252</ele>
        <time>2010-08-08T06:42:57Z</time>
      </trkpt>
      <trkpt lat="48.72955" lon="7.34359">
        <ele>348.1346436</ele>
        <time>2010-08-08T06:43:01Z</time>
      </trkpt>
      <trkpt lat="48.72938" lon="7.34354">
        <ele>348.6152344</ele>
        <time>2010-08-08T06:43:14Z</time>
      </trkpt>
      <trkpt lat="48.72937" lon="7.34353">
        <ele>348.1346436</ele>
        <time>2010-08-08T06:43:15Z</time>
      </trkpt>
      <trkpt lat="48.72933" lon="7.34351">
        <ele>347.6539307</ele>
        <time>2010-08-08T06:43:18Z</time>
      </trkpt>
      <trkpt lat="48.72918" lon="7.3434">
        <ele>348.1346436</ele>
        <time>2010-08-08T06:43:29Z</time>
      </trkpt>
      <trkpt lat="48.72904" lon="7.3433">
        <ele>350.5378418</ele>
        <time>2010-08-08T06:43:42Z</time>
      </trkpt>
      <trkpt lat="48.72889" lon="7.34314">
        <ele>352.9411621</ele>
        <time>2010-08-08T06:44:06Z</time>
      </trkpt>
      <trkpt lat="48.72874" lon="7.34298">
        <ele>358.2283936</ele>
        <time>2010-08-08T06:44:21Z</time>
      </trkpt>
      <trkpt lat="48.72858" lon="7.34286">
        <ele>359.1896973</ele>
        <time>2010-08-08T06:44:31Z</time>
      </trkpt>
      <trkpt lat="48.72853" lon="7.34285">
        <ele>359.1896973</ele>
        <time>2010-08-08T06:44:35Z</time>
      </trkpt>
      <trkpt lat="48.72838" lon="7.34267">
        <ele>363.0350342</ele>
        <time>2010-08-08T06:44:49Z</time>
      </trkpt>
      <trkpt lat="48.72835" lon="7.34262">
        <ele>363.9963379</ele>
        <time>2010-08-08T06:44:52Z</time>
      </trkpt>
      <trkpt lat="48.72827" lon="7.34252">
        <ele>366.3995361</ele>
        <time>2010-08-08T06:45:01Z</time>
      </trkpt>
      <trkpt lat="48.72814" lon="7.34233">
        <ele>370.244873</ele>
        <time>2010-08-08T06:45:14Z</time>
      </trkpt>
      <trkpt lat="48.728" lon="7.34213">
        <ele>374.0900879</ele>
        <time>2010-08-08T06:45:27Z</time>
      </trkpt>
      <trkpt lat="48.72793" lon="7.342">
        <ele>376.0128174</ele>
        <time>2010-08-08T06:45:36Z</time>
      </trkpt>
      <trkpt lat="48.72793" lon="7.34195">
        <ele>376.9742432</ele>
        <time>2010-08-08T06:45:39Z</time>
      </trkpt>
      <trkpt lat="48.72776" lon="7.34182">
        <ele>376.4935303</ele>
        <time>2010-08-08T06:45:52Z</time>
      </trkpt>
      <trkpt lat="48.72772" lon="7.34177">
        <ele>376.4935303</ele>
        <time>2010-08-08T06:45:56Z</time>
      </trkpt>
      <trkpt lat="48.72771" lon="7.34173">
        <ele>376.0128174</ele>
        <time>2010-08-08T06:45:58Z</time>
      </trkpt>
      <trkpt lat="48.72768" lon="7.34171">
        <ele>376.0128174</ele>
        <time>2010-08-08T06:46:00Z</time>
      </trkpt>
      <trkpt lat="48.72762" lon="7.34162">
        <ele>376.4935303</ele>
        <time>2010-08-08T06:46:06Z</time>
      </trkpt>
      <trkpt lat="48.72757" lon="7.34152">
        <ele>375.5321045</ele>
        <time>2010-08-08T06:46:17Z</time>
      </trkpt>
      <trkpt lat="48.72749" lon="7.34144">
        <ele>382.7420654</ele>
        <time>2010-08-08T06:46:31Z</time>
      </trkpt>
      <trkpt lat="48.72738" lon="7.34133">
        <ele>386.5874023</ele>
        <time>2010-08-08T06:46:45Z</time>
      </trkpt>
      <trkpt lat="48.72733" lon="7.34128">
        <ele>386.5874023</ele>
        <time>2010-08-08T06:46:57Z</time>
      </trkpt>
      <trkpt lat="48.72725" lon="7.3411">
        <ele>393.3165283</ele>
        <time>2010-08-08T06:47:13Z</time>
      </trkpt>
      <trkpt lat="48.72719" lon="7.34097">
        <ele>395.2391357</ele>
        <time>2010-08-08T06:47:21Z</time>
      </trkpt>
      <trkpt lat="48.7271" lon="7.3407">
        <ele>396.2005615</ele>
        <time>2010-08-08T06:47:36Z</time>
      </trkpt>
      <trkpt lat="48.72694" lon="7.34045">
        <ele>396.2005615</ele>
        <time>2010-08-08T06:47:52Z</time>
      </trkpt>
      <trkpt lat="48.7269" lon="7.34027">
        <ele>396.6811523</ele>
        <time>2010-08-08T06:48:01Z</time>
      </trkpt>
      <trkpt lat="48.72679" lon="7.34002">
        <ele>398.1231689</ele>
        <time>2010-08-08T06:48:15Z</time>
      </trkpt>
      <trkpt lat="48.72676" lon="7.33995">
        <ele>399.5650635</ele>
        <time>2010-08-08T06:48:19Z</time>
      </trkpt>
      <trkpt lat="48.72671" lon="7.33988">
        <ele>401.487793</ele>
        <time>2010-08-08T06:48:25Z</time>
      </trkpt>
      <trkpt lat="48.72667" lon="7.33979">
        <ele>403.8911133</ele>
        <time>2010-08-08T06:48:35Z</time>
      </trkpt>
      <trkpt lat="48.72653" lon="7.33964">
        <ele>409.1783447</ele>
        <time>2010-08-08T06:48:56Z</time>
      </trkpt>
      <trkpt lat="48.72642" lon="7.33956">
        <ele>409.1783447</ele>
        <time>2010-08-08T06:49:11Z</time>
      </trkpt>
      <trkpt lat="48.72632" lon="7.33945">
        <ele>412.5428467</ele>
        <time>2010-08-08T06:49:27Z</time>
      </trkpt>
      <trkpt lat="48.72631" lon="7.33944">
        <ele>412.5428467</ele>
        <time>2010-08-08T06:49:34Z</time>
      </trkpt>
      <trkpt lat="48.72624" lon="7.33926">
        <ele>413.5042725</ele>
        <time>2010-08-08T06:49:46Z</time>
      </trkpt>
      <trkpt lat="48.72604" lon="7.33892">
        <ele>415.9074707</ele>
        <time>2010-08-08T06:50:01Z</time>
      </trkpt>
      <trkpt lat="48.72601" lon="7.33882">
        <ele>416.3881836</ele>
        <time>2010-08-08T06:50:04Z</time>
      </trkpt>
      <trkpt lat="48.72594" lon="7.33873">
        <ele>416.8688965</ele>
        <time>2010-08-08T06:50:08Z</time>
      </trkpt>
      <trkpt lat="48.72584" lon="7.33855">
        <ele>417.3496094</ele>
        <time>2010-08-08T06:50:18Z</time>
      </trkpt>
      <trkpt lat="48.72578" lon="7.33848">
        <ele>418.310791</ele>
        <time>2010-08-08T06:50:23Z</time>
      </trkpt>
      <trkpt lat="48.7256" lon="7.33825">
        <ele>422.1560059</ele>
        <time>2010-08-08T06:50:35Z</time>
      </trkpt>
      <trkpt lat="48.72541" lon="7.33804">
        <ele>422.1560059</ele>
        <time>2010-08-08T06:50:46Z</time>
      </trkpt>
      <trkpt lat="48.72522" lon="7.33777">
        <ele>424.5594482</ele>
        <time>2010-08-08T06:50:59Z</time>
      </trkpt>
      <trkpt lat="48.72517" lon="7.33775">
        <ele>426.4820557</ele>
        <time>2010-08-08T06:51:05Z</time>
      </trkpt>
      <trkpt lat="48.72491" lon="7.33744">
        <ele>432.25</ele>
        <time>2010-08-08T06:51:21Z</time>
      </trkpt>
      <trkpt lat="48.72473" lon="7.33724">
        <ele>435.1339111</ele>
        <time>2010-08-08T06:51:31Z</time>
      </trkpt>
      <trkpt lat="48.72441" lon="7.33693">
        <ele>440.4212646</ele>
        <time>2010-08-08T06:51:45Z</time>
      </trkpt>
      <trkpt lat="48.72402" lon="7.33672">
        <ele>445.708374</ele>
        <time>2010-08-08T06:52:01Z</time>
      </trkpt>
      <trkpt lat="48.72386" lon="7.33671">
        <ele>451.4763184</ele>
        <time>2010-08-08T06:52:10Z</time>
      </trkpt>
      <trkpt lat="48.72381" lon="7.33671">
        <ele>453.8796387</ele>
        <time>2010-08-08T06:52:14Z</time>
      </trkpt>
      <trkpt lat="48.72378" lon="7.33673">
        <ele>454.3602295</ele>
        <time>2010-08-08T06:52:16Z</time>
      </trkpt>
      <trkpt lat="48.72361" lon="7.337">
        <ele>456.7635498</ele>
        <time>2010-08-08T06:52:31Z</time>
      </trkpt>
      <trkpt lat="48.72349" lon="7.33708">
        <ele>458.6861572</ele>
        <time>2010-08-08T06:52:40Z</time>
      </trkpt>
      <trkpt lat="48.72329" lon="7.33682">
        <ele>455.3215332</ele>
        <time>2010-08-08T06:52:55Z</time>
      </trkpt>
      <trkpt lat="48.72311" lon="7.33658">
        <ele>457.7249756</ele>
        <time>2010-08-08T06:53:08Z</time>
      </trkpt>
      <trkpt lat="48.72308" lon="7.33655">
        <ele>457.2442627</ele>
        <time>2010-08-08T06:53:11Z</time>
      </trkpt>
      <trkpt lat="48.72302" lon="7.3365">
        <ele>458.2055664</ele>
        <time>2010-08-08T06:53:15Z</time>
      </trkpt>
      <trkpt lat="48.72267" lon="7.33644">
        <ele>457.2442627</ele>
        <time>2010-08-08T06:53:29Z</time>
      </trkpt>
      <trkpt lat="48.72252" lon="7.3363">
        <ele>451.9570313</ele>
        <time>2010-08-08T06:53:37Z</time>
      </trkpt>
      <trkpt lat="48.72215" lon="7.33614">
        <ele>448.5924072</ele>
        <time>2010-08-08T06:53:46Z</time>
      </trkpt>
      <trkpt lat="48.72183" lon="7.336">
        <ele>446.6696777</ele>
        <time>2010-08-08T06:53:53Z</time>
      </trkpt>
      <trkpt lat="48.72171" lon="7.33594">
        <ele>445.708374</ele>
        <time>2010-08-08T06:53:56Z</time>
      </trkpt>
      <trkpt lat="48.72135" lon="7.33561">
        <ele>441.3824463</ele>
        <time>2010-08-08T06:54:07Z</time>
      </trkpt>
      <trkpt lat="48.72108" lon="7.33523">
        <ele>441.3824463</ele>
        <time>2010-08-08T06:54:22Z</time>
      </trkpt>
      <trkpt lat="48.72081" lon="7.33506">
        <ele>442.8244629</ele>
        <time>2010-08-08T06:54:36Z</time>
      </trkpt>
      <trkpt lat="48.72052" lon="7.33498">
        <ele>444.2664795</ele>
        <time>2010-08-08T06:54:52Z</time>
      </trkpt>
      <trkpt lat="48.72042" lon="7.33492">
        <ele>444.2664795</ele>
        <time>2010-08-08T06:54:57Z</time>
      </trkpt>
      <trkpt lat="48.72018" lon="7.33456">
        <ele>440.9018555</ele>
        <time>2010-08-08T06:55:14Z</time>
      </trkpt>
      <trkpt lat="48.71998" lon="7.33441">
        <ele>438.4985352</ele>
        <time>2010-08-08T06:55:26Z</time>
      </trkpt>
      <trkpt lat="48.71977" lon="7.33419">
        <ele>441.3824463</ele>
        <time>2010-08-08T06:55:42Z</time>
      </trkpt>
      <trkpt lat="48.71969" lon="7.33413">
        <ele>443.3050537</ele>
        <time>2010-08-08T06:55:55Z</time>
      </trkpt>
      <trkpt lat="48.71969" lon="7.33415">
        <ele>443.3050537</ele>
        <time>2010-08-08T06:56:01Z</time>
      </trkpt>
      <trkpt lat="48.71966" lon="7.33419">
        <ele>442.3438721</ele>
        <time>2010-08-08T06:56:05Z</time>
      </trkpt>
      <trkpt lat="48.7196" lon="7.3342">
        <ele>441.3824463</ele>
        <time>2010-08-08T06:56:08Z</time>
      </trkpt>
      <trkpt lat="48.71938" lon="7.33411">
        <ele>440.9018555</ele>
        <time>2010-08-08T06:56:17Z</time>
      </trkpt>
      <trkpt lat="48.71916" lon="7.33402">
        <ele>440.4212646</ele>
        <time>2010-08-08T06:56:42Z</time>
      </trkpt>
      <trkpt lat="48.71907" lon="7.33398">
        <ele>439.4597168</ele>
        <time>2010-08-08T06:56:45Z</time>
      </trkpt>
      <trkpt lat="48.7187" lon="7.33378">
        <ele>437.5371094</ele>
        <time>2010-08-08T06:56:52Z</time>
      </trkpt>
      <trkpt lat="48.7183" lon="7.33345">
        <ele>431.2885742</ele>
        <time>2010-08-08T06:57:04Z</time>
      </trkpt>
      <trkpt lat="48.71801" lon="7.33317">
        <ele>430.3272705</ele>
        <time>2010-08-08T06:57:14Z</time>
      </trkpt>
      <trkpt lat="48.71781" lon="7.33297">
        <ele>429.8465576</ele>
        <time>2010-08-08T06:57:21Z</time>
      </trkpt>
      <trkpt lat="48.7175" lon="7.33269">
        <ele>430.3272705</ele>
        <time>2010-08-08T06:57:32Z</time>
      </trkpt>
      <trkpt lat="48.71725" lon="7.33248">
        <ele>434.6533203</ele>
        <time>2010-08-08T06:57:43Z</time>
      </trkpt>
      <trkpt lat="48.71675" lon="7.33231">
        <ele>432.7307129</ele>
        <time>2010-08-08T06:57:54Z</time>
      </trkpt>
      <trkpt lat="48.71652" lon="7.33215">
        <ele>432.7307129</ele>
        <time>2010-08-08T06:58:03Z</time>
      </trkpt>
      <trkpt lat="48.71639" lon="7.33196">
        <ele>433.6918945</ele>
        <time>2010-08-08T06:58:09Z</time>
      </trkpt>
      <trkpt lat="48.71608" lon="7.33167">
        <ele>437.5371094</ele>
        <time>2010-08-08T06:58:19Z</time>
      </trkpt>
      <trkpt lat="48.71583" lon="7.3315">
        <ele>441.3824463</ele>
        <time>2010-08-08T06:58:30Z</time>
      </trkpt>
      <trkpt lat="48.71561" lon="7.33139">
        <ele>444.2664795</ele>
        <time>2010-08-08T06:58:39Z</time>
      </trkpt>
      <trkpt lat="48.71531" lon="7.33122">
        <ele>447.6309814</ele>
        <time>2010-08-08T06:58:51Z</time>
      </trkpt>
      <trkpt lat="48.71528" lon="7.33121">
        <ele>448.1118164</ele>
        <time>2010-08-08T06:58:52Z</time>
      </trkpt>
      <trkpt lat="48.7151" lon="7.33118">
        <ele>450.5150146</ele>
        <time>2010-08-08T06:58:57Z</time>
      </trkpt>
      <trkpt lat="48.71477" lon="7.33115">
        <ele>453.3989258</ele>
        <time>2010-08-08T06:59:04Z</time>
      </trkpt>
      <trkpt lat="48.7144" lon="7.3312">
        <ele>453.8796387</ele>
        <time>2010-08-08T06:59:14Z</time>
      </trkpt>
      <trkpt lat="48.714" lon="7.33121">
        <ele>452.9182129</ele>
        <time>2010-08-08T06:59:22Z</time>
      </trkpt>
      <trkpt lat="48.71378" lon="7.3312">
        <ele>451.9570313</ele>
        <time>2010-08-08T06:59:26Z</time>
      </trkpt>
      <trkpt lat="48.71335" lon="7.33137">
        <ele>451.9570313</ele>
        <time>2010-08-08T06:59:33Z</time>
      </trkpt>
      <trkpt lat="48.71307" lon="7.33142">
        <ele>450.5150146</ele>
        <time>2010-08-08T06:59:39Z</time>
      </trkpt>
      <trkpt lat="48.71276" lon="7.3313">
        <ele>448.5924072</ele>
        <time>2010-08-08T06:59:45Z</time>
      </trkpt>
      <trkpt lat="48.7126" lon="7.33125">
        <ele>448.1118164</ele>
        <time>2010-08-08T06:59:48Z</time>
      </trkpt>
      <trkpt lat="48.71231" lon="7.33145">
        <ele>445.2276611</ele>
        <time>2010-08-08T06:59:56Z</time>
      </trkpt>
      <trkpt lat="48.71203" lon="7.33156">
        <ele>440.9018555</ele>
        <time>2010-08-08T07:00:02Z</time>
      </trkpt>
      <trkpt lat="48.71162" lon="7.33164">
        <ele>439.9404297</ele>
        <time>2010-08-08T07:00:12Z</time>
      </trkpt>
      <trkpt lat="48.71139" lon="7.3315">
        <ele>439.9404297</ele>
        <time>2010-08-08T07:00:26Z</time>
      </trkpt>
      <trkpt lat="48.71122" lon="7.33144">
        <ele>444.2664795</ele>
        <time>2010-08-08T07:00:37Z</time>
      </trkpt>
      <trkpt lat="48.71117" lon="7.33145">
        <ele>445.2276611</ele>
        <time>2010-08-08T07:00:41Z</time>
      </trkpt>
      <trkpt lat="48.71096" lon="7.33157">
        <ele>448.5924072</ele>
        <time>2010-08-08T07:00:53Z</time>
      </trkpt>
      <trkpt lat="48.71078" lon="7.33167">
        <ele>450.0344238</ele>
        <time>2010-08-08T07:01:04Z</time>
      </trkpt>
      <trkpt lat="48.71075" lon="7.33168">
        <ele>450.5150146</ele>
        <time>2010-08-08T07:01:06Z</time>
      </trkpt>
      <trkpt lat="48.71066" lon="7.33168">
        <ele>452.4376221</ele>
        <time>2010-08-08T07:01:14Z</time>
      </trkpt>
      <trkpt lat="48.71061" lon="7.33164">
        <ele>453.3989258</ele>
        <time>2010-08-08T07:01:18Z</time>
      </trkpt>
      <trkpt lat="48.71052" lon="7.33147">
        <ele>451.9570313</ele>
        <time>2010-08-08T07:01:31Z</time>
      </trkpt>
      <trkpt lat="48.71052" lon="7.33143">
        <ele>451.4763184</ele>
        <time>2010-08-08T07:01:42Z</time>
      </trkpt>
      <trkpt lat="48.71054" lon="7.33128">
        <ele>450.5150146</ele>
        <time>2010-08-08T07:01:55Z</time>
      </trkpt>
      <trkpt lat="48.71053" lon="7.33122">
        <ele>449.5537109</ele>
        <time>2010-08-08T07:02:00Z</time>
      </trkpt>
      <trkpt lat="48.71052" lon="7.33117">
        <ele>448.5924072</ele>
        <time>2010-08-08T07:02:08Z</time>
      </trkpt>
      <trkpt lat="48.71049" lon="7.33099">
        <ele>448.1118164</ele>
        <time>2010-08-08T07:02:21Z</time>
      </trkpt>
      <trkpt lat="48.71047" lon="7.33093">
        <ele>448.5924072</ele>
        <time>2010-08-08T07:02:25Z</time>
      </trkpt>
      <trkpt lat="48.71043" lon="7.33084">
        <ele>452.4376221</ele>
        <time>2010-08-08T07:02:36Z</time>
      </trkpt>
      <trkpt lat="48.71034" lon="7.3307">
        <ele>451.9570313</ele>
        <time>2010-08-08T07:02:51Z</time>
      </trkpt>
      <trkpt lat="48.71029" lon="7.33064">
        <ele>452.4376221</ele>
        <time>2010-08-08T07:02:57Z</time>
      </trkpt>
      <trkpt lat="48.71021" lon="7.33051">
        <ele>452.4376221</ele>
        <time>2010-08-08T07:03:12Z</time>
      </trkpt>
      <trkpt lat="48.71012" lon="7.33043">
        <ele>453.3989258</ele>
        <time>2010-08-08T07:03:23Z</time>
      </trkpt>
      <trkpt lat="48.70994" lon="7.33027">
        <ele>455.3215332</ele>
        <time>2010-08-08T07:03:46Z</time>
      </trkpt>
      <trkpt lat="48.70983" lon="7.33015">
        <ele>459.1668701</ele>
        <time>2010-08-08T07:04:04Z</time>
      </trkpt>
      <trkpt lat="48.7097" lon="7.33002">
        <ele>463.9733887</ele>
        <time>2010-08-08T07:04:24Z</time>
      </trkpt>
      <trkpt lat="48.7096" lon="7.32994">
        <ele>465.4155273</ele>
        <time>2010-08-08T07:04:42Z</time>
      </trkpt>
      <trkpt lat="48.7095" lon="7.32987">
        <ele>465.8961182</ele>
        <time>2010-08-08T07:04:53Z</time>
      </trkpt>
      <trkpt lat="48.7093" lon="7.32971">
        <ele>467.3381348</ele>
        <time>2010-08-08T07:05:07Z</time>
      </trkpt>
      <trkpt lat="48.70924" lon="7.32968">
        <ele>466.8574219</ele>
        <time>2010-08-08T07:05:11Z</time>
      </trkpt>
      <trkpt lat="48.70899" lon="7.32944">
        <ele>469.2607422</ele>
        <time>2010-08-08T07:05:25Z</time>
      </trkpt>
      <trkpt lat="48.7086" lon="7.32915">
        <ele>470.2219238</ele>
        <time>2010-08-08T07:05:43Z</time>
      </trkpt>
      <trkpt lat="48.70834" lon="7.32886">
        <ele>475.5092773</ele>
        <time>2010-08-08T07:05:59Z</time>
      </trkpt>
      <trkpt lat="48.70809" lon="7.32859">
        <ele>479.835083</ele>
        <time>2010-08-08T07:06:13Z</time>
      </trkpt>
      <trkpt lat="48.70795" lon="7.32833">
        <ele>482.2385254</ele>
        <time>2010-08-08T07:06:24Z</time>
      </trkpt>
      <trkpt lat="48.70785" lon="7.32828">
        <ele>484.6418457</ele>
        <time>2010-08-08T07:06:38Z</time>
      </trkpt>
      <trkpt lat="48.70781" lon="7.32824">
        <ele>482.2385254</ele>
        <time>2010-08-08T07:07:20Z</time>
      </trkpt>
      <trkpt lat="48.70767" lon="7.32824">
        <ele>479.835083</ele>
        <time>2010-08-08T07:07:50Z</time>
      </trkpt>
      <trkpt lat="48.70746" lon="7.32825">
        <ele>479.3544922</ele>
        <time>2010-08-08T07:08:04Z</time>
      </trkpt>
      <trkpt lat="48.70732" lon="7.32824">
        <ele>482.7192383</ele>
        <time>2010-08-08T07:08:11Z</time>
      </trkpt>
      <trkpt lat="48.70708" lon="7.32813">
        <ele>481.7578125</ele>
        <time>2010-08-08T07:08:24Z</time>
      </trkpt>
      <trkpt lat="48.70692" lon="7.32806">
        <ele>481.2772217</ele>
        <time>2010-08-08T07:08:33Z</time>
      </trkpt>
      <trkpt lat="48.70689" lon="7.32803">
        <ele>481.2772217</ele>
        <time>2010-08-08T07:08:36Z</time>
      </trkpt>
      <trkpt lat="48.70686" lon="7.32802">
        <ele>480.315918</ele>
        <time>2010-08-08T07:08:39Z</time>
      </trkpt>
      <trkpt lat="48.70671" lon="7.32789">
        <ele>479.835083</ele>
        <time>2010-08-08T07:08:52Z</time>
      </trkpt>
      <trkpt lat="48.70668" lon="7.32786">
        <ele>481.2772217</ele>
        <time>2010-08-08T07:08:55Z</time>
      </trkpt>
      <trkpt lat="48.70646" lon="7.32778">
        <ele>481.2772217</ele>
        <time>2010-08-08T07:09:08Z</time>
      </trkpt>
      <trkpt lat="48.70629" lon="7.32768">
        <ele>481.7578125</ele>
        <time>2010-08-08T07:09:22Z</time>
      </trkpt>
      <trkpt lat="48.70613" lon="7.32758">
        <ele>485.1224365</ele>
        <time>2010-08-08T07:09:35Z</time>
      </trkpt>
      <trkpt lat="48.70606" lon="7.32753">
        <ele>486.0837402</ele>
        <time>2010-08-08T07:09:41Z</time>
      </trkpt>
      <trkpt lat="48.70593" lon="7.32738">
        <ele>487.0450439</ele>
        <time>2010-08-08T07:09:54Z</time>
      </trkpt>
      <trkpt lat="48.70584" lon="7.3273">
        <ele>489.4483643</ele>
        <time>2010-08-08T07:10:03Z</time>
      </trkpt>
      <trkpt lat="48.70576" lon="7.32729">
        <ele>488.0064697</ele>
        <time>2010-08-08T07:10:08Z</time>
      </trkpt>
      <trkpt lat="48.70572" lon="7.32722">
        <ele>487.0450439</ele>
        <time>2010-08-08T07:10:17Z</time>
      </trkpt>
      <trkpt lat="48.7056" lon="7.32715">
        <ele>487.5256348</ele>
        <time>2010-08-08T07:10:28Z</time>
      </trkpt>
      <trkpt lat="48.70553" lon="7.32708">
        <ele>489.4483643</ele>
        <time>2010-08-08T07:10:36Z</time>
      </trkpt>
      <trkpt lat="48.70544" lon="7.32701">
        <ele>494.7355957</ele>
        <time>2010-08-08T07:10:51Z</time>
      </trkpt>
      <trkpt lat="48.70537" lon="7.32692">
        <ele>495.6968994</ele>
        <time>2010-08-08T07:11:04Z</time>
      </trkpt>
      <trkpt lat="48.70532" lon="7.32688">
        <ele>497.6196289</ele>
        <time>2010-08-08T07:11:09Z</time>
      </trkpt>
      <trkpt lat="48.70524" lon="7.32672">
        <ele>500.50354</ele>
        <time>2010-08-08T07:11:21Z</time>
      </trkpt>
      <trkpt lat="48.70522" lon="7.32669">
        <ele>500.9841309</ele>
        <time>2010-08-08T07:11:24Z</time>
      </trkpt>
      <trkpt lat="48.70518" lon="7.32663">
        <ele>501.9455566</ele>
        <time>2010-08-08T07:11:28Z</time>
      </trkpt>
      <trkpt lat="48.70505" lon="7.32646">
        <ele>506.7520752</ele>
        <time>2010-08-08T07:11:39Z</time>
      </trkpt>
      <trkpt lat="48.70483" lon="7.32648">
        <ele>508.6746826</ele>
        <time>2010-08-08T07:11:50Z</time>
      </trkpt>
      <trkpt lat="48.70467" lon="7.32667">
        <ele>509.1553955</ele>
        <time>2010-08-08T07:11:56Z</time>
      </trkpt>
      <trkpt lat="48.70459" lon="7.32672">
        <ele>508.1940918</ele>
        <time>2010-08-08T07:11:59Z</time>
      </trkpt>
      <trkpt lat="48.70449" lon="7.32683">
        <ele>506.2714844</ele>
        <time>2010-08-08T07:12:05Z</time>
      </trkpt>
      <trkpt lat="48.70415" lon="7.32673">
        <ele>506.2714844</ele>
        <time>2010-08-08T07:12:18Z</time>
      </trkpt>
      <trkpt lat="48.70394" lon="7.32664">
        <ele>506.2714844</ele>
        <time>2010-08-08T07:12:24Z</time>
      </trkpt>
      <trkpt lat="48.70372" lon="7.32645">
        <ele>507.2327881</ele>
        <time>2010-08-08T07:12:31Z</time>
      </trkpt>
      <trkpt lat="48.70341" lon="7.32631">
        <ele>508.6746826</ele>
        <time>2010-08-08T07:12:44Z</time>
      </trkpt>
      <trkpt lat="48.70308" lon="7.32622">
        <ele>507.2327881</ele>
        <time>2010-08-08T07:12:57Z</time>
      </trkpt>
      <trkpt lat="48.70306" lon="7.32623">
        <ele>507.2327881</ele>
        <time>2010-08-08T07:12:59Z</time>
      </trkpt>
      <trkpt lat="48.70291" lon="7.32616">
        <ele>509.6361084</ele>
        <time>2010-08-08T07:13:07Z</time>
      </trkpt>
      <trkpt lat="48.70287" lon="7.3261">
        <ele>510.1166992</ele>
        <time>2010-08-08T07:13:10Z</time>
      </trkpt>
      <trkpt lat="48.70284" lon="7.32607">
        <ele>509.6361084</ele>
        <time>2010-08-08T07:13:12Z</time>
      </trkpt>
      <trkpt lat="48.70281" lon="7.32602">
        <ele>508.1940918</ele>
        <time>2010-08-08T07:13:15Z</time>
      </trkpt>
      <trkpt lat="48.70286" lon="7.32599">
        <ele>506.7520752</ele>
        <time>2010-08-08T07:13:25Z</time>
      </trkpt>
      <trkpt lat="48.70286" lon="7.32599">
        <ele>505.7908936</ele>
        <time>2010-08-08T07:13:44Z</time>
      </trkpt>
      <trkpt lat="48.70286" lon="7.32592">
        <ele>507.713501</ele>
        <time>2010-08-08T07:13:58Z</time>
      </trkpt>
      <trkpt lat="48.70288" lon="7.32589">
        <ele>507.2327881</ele>
        <time>2010-08-08T07:14:00Z</time>
      </trkpt>
      <trkpt lat="48.70293" lon="7.32589">
        <ele>508.1940918</ele>
        <time>2010-08-08T07:14:12Z</time>
      </trkpt>
      <trkpt lat="48.70289" lon="7.32583">
        <ele>507.2327881</ele>
        <time>2010-08-08T07:14:29Z</time>
      </trkpt>
      <trkpt lat="48.70289" lon="7.32583">
        <ele>507.2327881</ele>
        <time>2010-08-08T07:14:36Z</time>
      </trkpt>
      <trkpt lat="48.70282" lon="7.3258">
        <ele>504.348877</ele>
        <time>2010-08-08T07:14:46Z</time>
      </trkpt>
      <trkpt lat="48.70286" lon="7.32573">
        <ele>501.9455566</ele>
        <time>2010-08-08T07:15:03Z</time>
      </trkpt>
      <trkpt lat="48.70288" lon="7.32572">
        <ele>502.9067383</ele>
        <time>2010-08-08T07:15:16Z</time>
      </trkpt>
      <trkpt lat="48.70289" lon="7.32561">
        <ele>501.4648438</ele>
        <time>2010-08-08T07:15:30Z</time>
      </trkpt>
      <trkpt lat="48.70283" lon="7.32559">
        <ele>499.0615234</ele>
        <time>2010-08-08T07:15:44Z</time>
      </trkpt>
      <trkpt lat="48.70283" lon="7.32559">
        <ele>499.5422363</ele>
        <time>2010-08-08T07:15:46Z</time>
      </trkpt>
      <trkpt lat="48.70265" lon="7.32571">
        <ele>494.7355957</ele>
        <time>2010-08-08T07:15:56Z</time>
      </trkpt>
      <trkpt lat="48.70261" lon="7.32576">
        <ele>493.2935791</ele>
        <time>2010-08-08T07:16:09Z</time>
      </trkpt>
      <trkpt lat="48.70258" lon="7.32575">
        <ele>493.2935791</ele>
        <time>2010-08-08T07:16:12Z</time>
      </trkpt>
      <trkpt lat="48.70253" lon="7.32579">
        <ele>494.2550049</ele>
        <time>2010-08-08T07:16:17Z</time>
      </trkpt>
      <trkpt lat="48.70246" lon="7.32586">
        <ele>501.4648438</ele>
        <time>2010-08-08T07:16:31Z</time>
      </trkpt>
      <trkpt lat="48.7024" lon="7.32589">
        <ele>503.3874512</ele>
        <time>2010-08-08T07:16:40Z</time>
      </trkpt>
      <trkpt lat="48.70238" lon="7.32594">
        <ele>503.3874512</ele>
        <time>2010-08-08T07:16:47Z</time>
      </trkpt>
      <trkpt lat="48.70233" lon="7.32602">
        <ele>502.4261475</ele>
        <time>2010-08-08T07:16:54Z</time>
      </trkpt>
      <trkpt lat="48.70224" lon="7.32605">
        <ele>500.9841309</ele>
        <time>2010-08-08T07:17:03Z</time>
      </trkpt>
      <trkpt lat="48.70221" lon="7.32611">
        <ele>500.50354</ele>
        <time>2010-08-08T07:17:09Z</time>
      </trkpt>
      <trkpt lat="48.7021" lon="7.32612">
        <ele>499.0615234</ele>
        <time>2010-08-08T07:17:13Z</time>
      </trkpt>
      <trkpt lat="48.70201" lon="7.32622">
        <ele>497.138916</ele>
        <time>2010-08-08T07:17:17Z</time>
      </trkpt>
      <trkpt lat="48.70195" lon="7.32628">
        <ele>496.1777344</ele>
        <time>2010-08-08T07:17:21Z</time>
      </trkpt>
      <trkpt lat="48.70189" lon="7.32632">
        <ele>495.2161865</ele>
        <time>2010-08-08T07:17:27Z</time>
      </trkpt>
      <trkpt lat="48.70181" lon="7.32635">
        <ele>494.7355957</ele>
        <time>2010-08-08T07:17:30Z</time>
      </trkpt>
      <trkpt lat="48.70154" lon="7.32676">
        <ele>492.8129883</ele>
        <time>2010-08-08T07:17:39Z</time>
      </trkpt>
      <trkpt lat="48.70136" lon="7.32702">
        <ele>489.4483643</ele>
        <time>2010-08-08T07:17:47Z</time>
      </trkpt>
      <trkpt lat="48.70126" lon="7.32715">
        <ele>487.5256348</ele>
        <time>2010-08-08T07:17:52Z</time>
      </trkpt>
      <trkpt lat="48.70122" lon="7.32735">
        <ele>483.1998291</ele>
        <time>2010-08-08T07:18:04Z</time>
      </trkpt>
      <trkpt lat="48.70123" lon="7.32737">
        <ele>483.1998291</ele>
        <time>2010-08-08T07:18:19Z</time>
      </trkpt>
      <trkpt lat="48.70119" lon="7.32756">
        <ele>482.2385254</ele>
        <time>2010-08-08T07:18:25Z</time>
      </trkpt>
      <trkpt lat="48.70119" lon="7.32766">
        <ele>482.7192383</ele>
        <time>2010-08-08T07:18:28Z</time>
      </trkpt>
      <trkpt lat="48.70122" lon="7.32775">
        <ele>481.7578125</ele>
        <time>2010-08-08T07:18:30Z</time>
      </trkpt>
      <trkpt lat="48.70125" lon="7.32782">
        <ele>481.2772217</ele>
        <time>2010-08-08T07:18:32Z</time>
      </trkpt>
      <trkpt lat="48.70119" lon="7.32787">
        <ele>477.9124756</ele>
        <time>2010-08-08T07:18:37Z</time>
      </trkpt>
      <trkpt lat="48.70085" lon="7.32789">
        <ele>472.1446533</ele>
        <time>2010-08-08T07:18:48Z</time>
      </trkpt>
      <trkpt lat="48.70064" lon="7.32782">
        <ele>470.7026367</ele>
        <time>2010-08-08T07:18:53Z</time>
      </trkpt>
      <trkpt lat="48.70038" lon="7.32775">
        <ele>466.8574219</ele>
        <time>2010-08-08T07:18:58Z</time>
      </trkpt>
      <trkpt lat="48.70008" lon="7.32782">
        <ele>463.012085</ele>
        <time>2010-08-08T07:19:03Z</time>
      </trkpt>
      <trkpt lat="48.69987" lon="7.32791">
        <ele>461.0894775</ele>
        <time>2010-08-08T07:19:06Z</time>
      </trkpt>
      <trkpt lat="48.69948" lon="7.32787">
        <ele>455.3215332</ele>
        <time>2010-08-08T07:19:15Z</time>
      </trkpt>
      <trkpt lat="48.69916" lon="7.32774">
        <ele>448.1118164</ele>
        <time>2010-08-08T07:19:24Z</time>
      </trkpt>
      <trkpt lat="48.699" lon="7.32765">
        <ele>445.708374</ele>
        <time>2010-08-08T07:19:28Z</time>
      </trkpt>
      <trkpt lat="48.69873" lon="7.32761">
        <ele>439.4597168</ele>
        <time>2010-08-08T07:19:35Z</time>
      </trkpt>
      <trkpt lat="48.6986" lon="7.32764">
        <ele>438.979126</ele>
        <time>2010-08-08T07:19:38Z</time>
      </trkpt>
      <trkpt lat="48.69845" lon="7.32755">
        <ele>437.5371094</ele>
        <time>2010-08-08T07:19:42Z</time>
      </trkpt>
      <trkpt lat="48.69817" lon="7.32735">
        <ele>430.8079834</ele>
        <time>2010-08-08T07:19:52Z</time>
      </trkpt>
      <trkpt lat="48.69811" lon="7.32733">
        <ele>429.8465576</ele>
        <time>2010-08-08T07:19:54Z</time>
      </trkpt>
      <trkpt lat="48.69779" lon="7.32738">
        <ele>424.5594482</ele>
        <time>2010-08-08T07:20:02Z</time>
      </trkpt>
      <trkpt lat="48.69756" lon="7.32743">
        <ele>419.2722168</ele>
        <time>2010-08-08T07:20:10Z</time>
      </trkpt>
      <trkpt lat="48.69746" lon="7.32746">
        <ele>416.8688965</ele>
        <time>2010-08-08T07:20:14Z</time>
      </trkpt>
      <trkpt lat="48.69725" lon="7.32767">
        <ele>410.6202393</ele>
        <time>2010-08-08T07:20:25Z</time>
      </trkpt>
      <trkpt lat="48.69725" lon="7.32766">
        <ele>410.1396484</ele>
        <time>2010-08-08T07:20:34Z</time>
      </trkpt>
      <trkpt lat="48.6972" lon="7.32742">
        <ele>408.217041</ele>
        <time>2010-08-08T07:20:42Z</time>
      </trkpt>
      <trkpt lat="48.69714" lon="7.32732">
        <ele>407.7363281</ele>
        <time>2010-08-08T07:20:46Z</time>
      </trkpt>
      <trkpt lat="48.69696" lon="7.32708">
        <ele>407.2556152</ele>
        <time>2010-08-08T07:20:55Z</time>
      </trkpt>
      <trkpt lat="48.69685" lon="7.32701">
        <ele>403.4104004</ele>
        <time>2010-08-08T07:20:59Z</time>
      </trkpt>
      <trkpt lat="48.69676" lon="7.32692">
        <ele>401.0070801</ele>
        <time>2010-08-08T07:21:02Z</time>
      </trkpt>
      <trkpt lat="48.69668" lon="7.32657">
        <ele>400.0458984</ele>
        <time>2010-08-08T07:21:09Z</time>
      </trkpt>
      <trkpt lat="48.69662" lon="7.32648">
        <ele>400.0458984</ele>
        <time>2010-08-08T07:21:11Z</time>
      </trkpt>
      <trkpt lat="48.69638" lon="7.32639">
        <ele>397.1617432</ele>
        <time>2010-08-08T07:21:17Z</time>
      </trkpt>
      <trkpt lat="48.69592" lon="7.32647">
        <ele>393.3165283</ele>
        <time>2010-08-08T07:21:32Z</time>
      </trkpt>
      <trkpt lat="48.69587" lon="7.32649">
        <ele>391.8745117</ele>
        <time>2010-08-08T07:21:35Z</time>
      </trkpt>
      <trkpt lat="48.69585" lon="7.32648">
        <ele>391.3937988</ele>
        <time>2010-08-08T07:21:37Z</time>
      </trkpt>
      <trkpt lat="48.69586" lon="7.32645">
        <ele>390.4326172</ele>
        <time>2010-08-08T07:21:39Z</time>
      </trkpt>
      <trkpt lat="48.69588" lon="7.32634">
        <ele>389.4711914</ele>
        <time>2010-08-08T07:21:43Z</time>
      </trkpt>
      <trkpt lat="48.69581" lon="7.3263">
        <ele>389.4711914</ele>
        <time>2010-08-08T07:21:47Z</time>
      </trkpt>
      <trkpt lat="48.6956" lon="7.32618">
        <ele>386.5874023</ele>
        <time>2010-08-08T07:21:57Z</time>
      </trkpt>
      <trkpt lat="48.69548" lon="7.32621">
        <ele>383.7032471</ele>
        <time>2010-08-08T07:22:03Z</time>
      </trkpt>
      <trkpt lat="48.69543" lon="7.32621">
        <ele>384.184082</ele>
        <time>2010-08-08T07:22:05Z</time>
      </trkpt>
      <trkpt lat="48.6953" lon="7.32638">
        <ele>381.3000488</ele>
        <time>2010-08-08T07:22:13Z</time>
      </trkpt>
      <trkpt lat="48.69514" lon="7.32636">
        <ele>380.819458</ele>
        <time>2010-08-08T07:22:20Z</time>
      </trkpt>
      <trkpt lat="48.69487" lon="7.32624">
        <ele>381.3000488</ele>
        <time>2010-08-08T07:22:32Z</time>
      </trkpt>
      <trkpt lat="48.69484" lon="7.32622">
        <ele>381.3000488</ele>
        <time>2010-08-08T07:22:33Z</time>
      </trkpt>
      <trkpt lat="48.69477" lon="7.32615">
        <ele>381.7806396</ele>
        <time>2010-08-08T07:22:36Z</time>
      </trkpt>
      <trkpt lat="48.69469" lon="7.32613">
        <ele>382.2613525</ele>
        <time>2010-08-08T07:22:40Z</time>
      </trkpt>
      <trkpt lat="48.69461" lon="7.32607">
        <ele>383.7032471</ele>
        <time>2010-08-08T07:22:52Z</time>
      </trkpt>
      <trkpt lat="48.69461" lon="7.32607">
        <ele>383.7032471</ele>
        <time>2010-08-08T07:22:54Z</time>
      </trkpt>
      <trkpt lat="48.69458" lon="7.3261">
        <ele>383.7032471</ele>
        <time>2010-08-08T07:22:58Z</time>
      </trkpt>
      <trkpt lat="48.69443" lon="7.32614">
        <ele>383.7032471</ele>
        <time>2010-08-08T07:23:07Z</time>
      </trkpt>
      <trkpt lat="48.69433" lon="7.3262">
        <ele>383.2226563</ele>
        <time>2010-08-08T07:23:13Z</time>
      </trkpt>
      <trkpt lat="48.69412" lon="7.32622">
        <ele>383.7032471</ele>
        <time>2010-08-08T07:23:23Z</time>
      </trkpt>
      <trkpt lat="48.69384" lon="7.32616">
        <ele>386.5874023</ele>
        <time>2010-08-08T07:23:37Z</time>
      </trkpt>
      <trkpt lat="48.69359" lon="7.32614">
        <ele>387.0679932</ele>
        <time>2010-08-08T07:23:49Z</time>
      </trkpt>
      <trkpt lat="48.69337" lon="7.32606">
        <ele>388.9906006</ele>
        <time>2010-08-08T07:23:59Z</time>
      </trkpt>
      <trkpt lat="48.69308" lon="7.32591">
        <ele>392.3553467</ele>
        <time>2010-08-08T07:24:12Z</time>
      </trkpt>
      <trkpt lat="48.69301" lon="7.32585">
        <ele>393.7972412</ele>
        <time>2010-08-08T07:24:16Z</time>
      </trkpt>
      <trkpt lat="48.69296" lon="7.32583">
        <ele>393.7972412</ele>
        <time>2010-08-08T07:24:19Z</time>
      </trkpt>
      <trkpt lat="48.69273" lon="7.32557">
        <ele>396.2005615</ele>
        <time>2010-08-08T07:24:32Z</time>
      </trkpt>
      <trkpt lat="48.69269" lon="7.32551">
        <ele>397.6424561</ele>
        <time>2010-08-08T07:24:35Z</time>
      </trkpt>
      <trkpt lat="48.69255" lon="7.32538">
        <ele>398.6037598</ele>
        <time>2010-08-08T07:24:43Z</time>
      </trkpt>
      <trkpt lat="48.69241" lon="7.32522">
        <ele>398.1231689</ele>
        <time>2010-08-08T07:24:52Z</time>
      </trkpt>
      <trkpt lat="48.69228" lon="7.32504">
        <ele>398.1231689</ele>
        <time>2010-08-08T07:25:00Z</time>
      </trkpt>
      <trkpt lat="48.69224" lon="7.32497">
        <ele>397.6424561</ele>
        <time>2010-08-08T07:25:03Z</time>
      </trkpt>
      <trkpt lat="48.69217" lon="7.32484">
        <ele>395.7198486</ele>
        <time>2010-08-08T07:25:09Z</time>
      </trkpt>
      <trkpt lat="48.69204" lon="7.32458">
        <ele>395.7198486</ele>
        <time>2010-08-08T07:25:21Z</time>
      </trkpt>
      <trkpt lat="48.69201" lon="7.32451">
        <ele>393.7972412</ele>
        <time>2010-08-08T07:25:24Z</time>
      </trkpt>
      <trkpt lat="48.69183" lon="7.32417">
        <ele>395.2391357</ele>
        <time>2010-08-08T07:25:37Z</time>
      </trkpt>
      <trkpt lat="48.69158" lon="7.32389">
        <ele>402.4490967</ele>
        <time>2010-08-08T07:25:50Z</time>
      </trkpt>
      <trkpt lat="48.69136" lon="7.32368">
        <ele>410.1396484</ele>
        <time>2010-08-08T07:26:01Z</time>
      </trkpt>
      <trkpt lat="48.69115" lon="7.32353">
        <ele>415.9074707</ele>
        <time>2010-08-08T07:26:11Z</time>
      </trkpt>
      <trkpt lat="48.69092" lon="7.32329">
        <ele>422.6367188</ele>
        <time>2010-08-08T07:26:24Z</time>
      </trkpt>
      <trkpt lat="48.69083" lon="7.32319">
        <ele>423.5980225</ele>
        <time>2010-08-08T07:26:29Z</time>
      </trkpt>
      <trkpt lat="48.6906" lon="7.32297">
        <ele>423.5980225</ele>
        <time>2010-08-08T07:26:40Z</time>
      </trkpt>
      <trkpt lat="48.69044" lon="7.32278">
        <ele>424.0787354</ele>
        <time>2010-08-08T07:26:50Z</time>
      </trkpt>
      <trkpt lat="48.69023" lon="7.32252">
        <ele>422.1560059</ele>
        <time>2010-08-08T07:27:03Z</time>
      </trkpt>
      <trkpt lat="48.69017" lon="7.32248">
        <ele>421.675415</ele>
        <time>2010-08-08T07:27:05Z</time>
      </trkpt>
      <trkpt lat="48.6899" lon="7.32228">
        <ele>420.7141113</ele>
        <time>2010-08-08T07:27:16Z</time>
      </trkpt>
      <trkpt lat="48.68985" lon="7.32224">
        <ele>420.2333984</ele>
        <time>2010-08-08T07:27:19Z</time>
      </trkpt>
      <trkpt lat="48.68972" lon="7.32212">
        <ele>417.8302002</ele>
        <time>2010-08-08T07:27:24Z</time>
      </trkpt>
      <trkpt lat="48.68969" lon="7.32208">
        <ele>417.3496094</ele>
        <time>2010-08-08T07:27:26Z</time>
      </trkpt>
      <trkpt lat="48.68962" lon="7.32195">
        <ele>415.4268799</ele>
        <time>2010-08-08T07:27:31Z</time>
      </trkpt>
      <trkpt lat="48.68959" lon="7.32189">
        <ele>414.946167</ele>
        <time>2010-08-08T07:27:33Z</time>
      </trkpt>
      <trkpt lat="48.68952" lon="7.3218">
        <ele>413.5042725</ele>
        <time>2010-08-08T07:27:37Z</time>
      </trkpt>
      <trkpt lat="48.68942" lon="7.32171">
        <ele>412.5428467</ele>
        <time>2010-08-08T07:27:41Z</time>
      </trkpt>
      <trkpt lat="48.68917" lon="7.32152">
        <ele>413.0235596</ele>
        <time>2010-08-08T07:27:51Z</time>
      </trkpt>
      <trkpt lat="48.68898" lon="7.3212">
        <ele>407.7363281</ele>
        <time>2010-08-08T07:28:04Z</time>
      </trkpt>
      <trkpt lat="48.68874" lon="7.32093">
        <ele>404.8522949</ele>
        <time>2010-08-08T07:28:16Z</time>
      </trkpt>
      <trkpt lat="48.68859" lon="7.32071">
        <ele>401.0070801</ele>
        <time>2010-08-08T07:28:24Z</time>
      </trkpt>
      <trkpt lat="48.68838" lon="7.32032">
        <ele>401.487793</ele>
        <time>2010-08-08T07:28:37Z</time>
      </trkpt>
      <trkpt lat="48.68828" lon="7.32015">
        <ele>402.4490967</ele>
        <time>2010-08-08T07:28:44Z</time>
      </trkpt>
      <trkpt lat="48.68809" lon="7.31991">
        <ele>404.3717041</ele>
        <time>2010-08-08T07:28:55Z</time>
      </trkpt>
      <trkpt lat="48.68788" lon="7.31958">
        <ele>413.5042725</ele>
        <time>2010-08-08T07:29:07Z</time>
      </trkpt>
      <trkpt lat="48.68768" lon="7.31922">
        <ele>420.2333984</ele>
        <time>2010-08-08T07:29:21Z</time>
      </trkpt>
      <trkpt lat="48.68747" lon="7.31889">
        <ele>426.4820557</ele>
        <time>2010-08-08T07:29:34Z</time>
      </trkpt>
      <trkpt lat="48.68731" lon="7.31855">
        <ele>434.6533203</ele>
        <time>2010-08-08T07:29:47Z</time>
      </trkpt>
      <trkpt lat="48.6871" lon="7.31813">
        <ele>447.6309814</ele>
        <time>2010-08-08T07:30:01Z</time>
      </trkpt>
      <trkpt lat="48.68705" lon="7.318">
        <ele>449.5537109</ele>
        <time>2010-08-08T07:30:05Z</time>
      </trkpt>
      <trkpt lat="48.68694" lon="7.31765">
        <ele>450.5150146</ele>
        <time>2010-08-08T07:30:16Z</time>
      </trkpt>
      <trkpt lat="48.68676" lon="7.3172">
        <ele>458.6861572</ele>
        <time>2010-08-08T07:30:30Z</time>
      </trkpt>
      <trkpt lat="48.68661" lon="7.31672">
        <ele>462.5313721</ele>
        <time>2010-08-08T07:30:45Z</time>
      </trkpt>
      <trkpt lat="48.68637" lon="7.3164">
        <ele>465.8961182</ele>
        <time>2010-08-08T07:30:58Z</time>
      </trkpt>
      <trkpt lat="48.68633" lon="7.31628">
        <ele>466.8574219</ele>
        <time>2010-08-08T07:31:02Z</time>
      </trkpt>
      <trkpt lat="48.68627" lon="7.31605">
        <ele>471.1833496</ele>
        <time>2010-08-08T07:31:12Z</time>
      </trkpt>
      <trkpt lat="48.68619" lon="7.3158">
        <ele>475.0286865</ele>
        <time>2010-08-08T07:31:21Z</time>
      </trkpt>
      <trkpt lat="48.6861" lon="7.31581">
        <ele>475.9898682</ele>
        <time>2010-08-08T07:31:32Z</time>
      </trkpt>
      <trkpt lat="48.6861" lon="7.31581">
        <ele>475.9898682</ele>
        <time>2010-08-08T07:31:34Z</time>
      </trkpt>
      <trkpt lat="48.68586" lon="7.3156">
        <ele>475.5092773</ele>
        <time>2010-08-08T07:31:46Z</time>
      </trkpt>
      <trkpt lat="48.68552" lon="7.31546">
        <ele>473.1060791</ele>
        <time>2010-08-08T07:32:00Z</time>
      </trkpt>
      <trkpt lat="48.6851" lon="7.31526">
        <ele>472.6253662</ele>
        <time>2010-08-08T07:32:18Z</time>
      </trkpt>
      <trkpt lat="48.68494" lon="7.31519">
        <ele>471.6639404</ele>
        <time>2010-08-08T07:32:24Z</time>
      </trkpt>
      <trkpt lat="48.68451" lon="7.31508">
        <ele>470.7026367</ele>
        <time>2010-08-08T07:32:40Z</time>
      </trkpt>
      <trkpt lat="48.68414" lon="7.31485">
        <ele>470.7026367</ele>
        <time>2010-08-08T07:32:55Z</time>
      </trkpt>
      <trkpt lat="48.68412" lon="7.31484">
        <ele>471.1833496</ele>
        <time>2010-08-08T07:32:56Z</time>
      </trkpt>
      <trkpt lat="48.68407" lon="7.31477">
        <ele>470.7026367</ele>
        <time>2010-08-08T07:32:59Z</time>
      </trkpt>
      <trkpt lat="48.68398" lon="7.31471">
        <ele>471.1833496</ele>
        <time>2010-08-08T07:33:03Z</time>
      </trkpt>
      <trkpt lat="48.6837" lon="7.31445">
        <ele>472.6253662</ele>
        <time>2010-08-08T07:33:15Z</time>
      </trkpt>
      <trkpt lat="48.68341" lon="7.31411">
        <ele>475.5092773</ele>
        <time>2010-08-08T07:33:28Z</time>
      </trkpt>
      <trkpt lat="48.68326" lon="7.31398">
        <ele>479.3544922</ele>
        <time>2010-08-08T07:33:34Z</time>
      </trkpt>
      <trkpt lat="48.68294" lon="7.31371">
        <ele>482.2385254</ele>
        <time>2010-08-08T07:33:46Z</time>
      </trkpt>
      <trkpt lat="48.68255" lon="7.31335">
        <ele>481.7578125</ele>
        <time>2010-08-08T07:33:59Z</time>
      </trkpt>
      <trkpt lat="48.68234" lon="7.31317">
        <ele>480.7966309</ele>
        <time>2010-08-08T07:34:10Z</time>
      </trkpt>
      <trkpt lat="48.68214" lon="7.3128">
        <ele>482.7192383</ele>
        <time>2010-08-08T07:34:21Z</time>
      </trkpt>
      <trkpt lat="48.68191" lon="7.31232">
        <ele>486.0837402</ele>
        <time>2010-08-08T07:34:32Z</time>
      </trkpt>
      <trkpt lat="48.68168" lon="7.31189">
        <ele>485.6030273</ele>
        <time>2010-08-08T07:34:41Z</time>
      </trkpt>
      <trkpt lat="48.68159" lon="7.31176">
        <ele>483.6804199</ele>
        <time>2010-08-08T07:34:44Z</time>
      </trkpt>
      <trkpt lat="48.68145" lon="7.31162">
        <ele>484.1611328</ele>
        <time>2010-08-08T07:34:48Z</time>
      </trkpt>
      <trkpt lat="48.68108" lon="7.31152">
        <ele>478.3931885</ele>
        <time>2010-08-08T07:35:01Z</time>
      </trkpt>
      <trkpt lat="48.68108" lon="7.31156">
        <ele>476.9512939</ele>
        <time>2010-08-08T07:35:05Z</time>
      </trkpt>
      <trkpt lat="48.68115" lon="7.31149">
        <ele>477.4318848</ele>
        <time>2010-08-08T07:35:08Z</time>
      </trkpt>
      <trkpt lat="48.68104" lon="7.31124">
        <ele>477.9124756</ele>
        <time>2010-08-08T07:35:18Z</time>
      </trkpt>
      <trkpt lat="48.68101" lon="7.31121">
        <ele>477.4318848</ele>
        <time>2010-08-08T07:35:21Z</time>
      </trkpt>
      <trkpt lat="48.68076" lon="7.31095">
        <ele>477.9124756</ele>
        <time>2010-08-08T07:35:32Z</time>
      </trkpt>
      <trkpt lat="48.68044" lon="7.31054">
        <ele>480.7966309</ele>
        <time>2010-08-08T07:35:45Z</time>
      </trkpt>
      <trkpt lat="48.68028" lon="7.31">
        <ele>483.6804199</ele>
        <time>2010-08-08T07:35:59Z</time>
      </trkpt>
      <trkpt lat="48.68029" lon="7.30994">
        <ele>484.6418457</ele>
        <time>2010-08-08T07:36:01Z</time>
      </trkpt>
      <trkpt lat="48.68035" lon="7.30934">
        <ele>485.6030273</ele>
        <time>2010-08-08T07:36:14Z</time>
      </trkpt>
      <trkpt lat="48.68037" lon="7.30926">
        <ele>484.1611328</ele>
        <time>2010-08-08T07:36:17Z</time>
      </trkpt>
      <trkpt lat="48.68037" lon="7.3092">
        <ele>484.6418457</ele>
        <time>2010-08-08T07:36:34Z</time>
      </trkpt>
      <trkpt lat="48.68038" lon="7.30918">
        <ele>484.1611328</ele>
        <time>2010-08-08T07:36:41Z</time>
      </trkpt>
      <trkpt lat="48.6805" lon="7.30882">
        <ele>481.2772217</ele>
        <time>2010-08-08T07:36:54Z</time>
      </trkpt>
      <trkpt lat="48.68063" lon="7.30845">
        <ele>481.7578125</ele>
        <time>2010-08-08T07:37:03Z</time>
      </trkpt>
      <trkpt lat="48.68067" lon="7.3079">
        <ele>482.2385254</ele>
        <time>2010-08-08T07:37:16Z</time>
      </trkpt>
      <trkpt lat="48.68067" lon="7.30747">
        <ele>484.6418457</ele>
        <time>2010-08-08T07:37:28Z</time>
      </trkpt>
      <trkpt lat="48.68067" lon="7.3071">
        <ele>487.0450439</ele>
        <time>2010-08-08T07:37:38Z</time>
      </trkpt>
      <trkpt lat="48.68061" lon="7.30664">
        <ele>488.0064697</ele>
        <time>2010-08-08T07:37:49Z</time>
      </trkpt>
      <trkpt lat="48.68043" lon="7.30621">
        <ele>487.0450439</ele>
        <time>2010-08-08T07:37:59Z</time>
      </trkpt>
      <trkpt lat="48.6803" lon="7.3058">
        <ele>487.0450439</ele>
        <time>2010-08-08T07:38:09Z</time>
      </trkpt>
      <trkpt lat="48.68015" lon="7.30541">
        <ele>486.5644531</ele>
        <time>2010-08-08T07:38:18Z</time>
      </trkpt>
      <trkpt lat="48.67992" lon="7.30483">
        <ele>489.4483643</ele>
        <time>2010-08-08T07:38:32Z</time>
      </trkpt>
      <trkpt lat="48.67971" lon="7.30431">
        <ele>492.3323975</ele>
        <time>2010-08-08T07:38:46Z</time>
      </trkpt>
      <trkpt lat="48.67957" lon="7.304">
        <ele>495.6968994</ele>
        <time>2010-08-08T07:38:59Z</time>
      </trkpt>
      <trkpt lat="48.67939" lon="7.3036">
        <ele>494.7355957</ele>
        <time>2010-08-08T07:39:12Z</time>
      </trkpt>
      <trkpt lat="48.67933" lon="7.30347">
        <ele>494.7355957</ele>
        <time>2010-08-08T07:39:23Z</time>
      </trkpt>
      <trkpt lat="48.67925" lon="7.30319">
        <ele>494.2550049</ele>
        <time>2010-08-08T07:39:54Z</time>
      </trkpt>
      <trkpt lat="48.67909" lon="7.30284">
        <ele>490.40979</ele>
        <time>2010-08-08T07:40:02Z</time>
      </trkpt>
      <trkpt lat="48.67873" lon="7.30226">
        <ele>488.9677734</ele>
        <time>2010-08-08T07:40:14Z</time>
      </trkpt>
      <trkpt lat="48.6787" lon="7.30222">
        <ele>488.9677734</ele>
        <time>2010-08-08T07:40:15Z</time>
      </trkpt>
      <trkpt lat="48.67857" lon="7.302">
        <ele>489.4483643</ele>
        <time>2010-08-08T07:40:20Z</time>
      </trkpt>
      <trkpt lat="48.67838" lon="7.30155">
        <ele>488.0064697</ele>
        <time>2010-08-08T07:40:29Z</time>
      </trkpt>
      <trkpt lat="48.67832" lon="7.30128">
        <ele>485.6030273</ele>
        <time>2010-08-08T07:40:33Z</time>
      </trkpt>
      <trkpt lat="48.67822" lon="7.30101">
        <ele>486.0837402</ele>
        <time>2010-08-08T07:40:37Z</time>
      </trkpt>
      <trkpt lat="48.67793" lon="7.30003">
        <ele>488.4871826</ele>
        <time>2010-08-08T07:40:55Z</time>
      </trkpt>
      <trkpt lat="48.67777" lon="7.29943">
        <ele>488.9677734</ele>
        <time>2010-08-08T07:41:09Z</time>
      </trkpt>
      <trkpt lat="48.67766" lon="7.29929">
        <ele>489.4483643</ele>
        <time>2010-08-08T07:41:13Z</time>
      </trkpt>
      <trkpt lat="48.67746" lon="7.29911">
        <ele>488.0064697</ele>
        <time>2010-08-08T07:41:24Z</time>
      </trkpt>
      <trkpt lat="48.67745" lon="7.29911">
        <ele>487.0450439</ele>
        <time>2010-08-08T07:41:29Z</time>
      </trkpt>
      <trkpt lat="48.67739" lon="7.29911">
        <ele>488.4871826</ele>
        <time>2010-08-08T07:41:41Z</time>
      </trkpt>
      <trkpt lat="48.67728" lon="7.29908">
        <ele>490.40979</ele>
        <time>2010-08-08T07:41:57Z</time>
      </trkpt>
      <trkpt lat="48.67726" lon="7.29908">
        <ele>490.8903809</ele>
        <time>2010-08-08T07:41:59Z</time>
      </trkpt>
      <trkpt lat="48.67718" lon="7.29911">
        <ele>493.774292</ele>
        <time>2010-08-08T07:42:13Z</time>
      </trkpt>
      <trkpt lat="48.6771" lon="7.29909">
        <ele>497.138916</ele>
        <time>2010-08-08T07:42:24Z</time>
      </trkpt>
      <trkpt lat="48.67703" lon="7.29909">
        <ele>500.0229492</ele>
        <time>2010-08-08T07:42:37Z</time>
      </trkpt>
      <trkpt lat="48.67693" lon="7.29903">
        <ele>501.9455566</ele>
        <time>2010-08-08T07:42:52Z</time>
      </trkpt>
      <trkpt lat="48.6768" lon="7.29897">
        <ele>503.8681641</ele>
        <time>2010-08-08T07:43:05Z</time>
      </trkpt>
      <trkpt lat="48.67668" lon="7.29891">
        <ele>507.713501</ele>
        <time>2010-08-08T07:43:19Z</time>
      </trkpt>
      <trkpt lat="48.67657" lon="7.29886">
        <ele>511.5587158</ele>
        <time>2010-08-08T07:43:36Z</time>
      </trkpt>
      <trkpt lat="48.67649" lon="7.29885">
        <ele>514.442627</ele>
        <time>2010-08-08T07:43:49Z</time>
      </trkpt>
      <trkpt lat="48.67649" lon="7.29881">
        <ele>515.8846436</ele>
        <time>2010-08-08T07:44:06Z</time>
      </trkpt>
      <trkpt lat="48.67644" lon="7.29874">
        <ele>518.2878418</ele>
        <time>2010-08-08T07:54:54Z</time>
      </trkpt>
      <trkpt lat="48.67637" lon="7.29872">
        <ele>519.7298584</ele>
        <time>2010-08-08T07:55:08Z</time>
      </trkpt>
      <trkpt lat="48.67631" lon="7.29871">
        <ele>520.2105713</ele>
        <time>2010-08-08T07:55:14Z</time>
      </trkpt>
      <trkpt lat="48.67625" lon="7.2987">
        <ele>522.1331787</ele>
        <time>2010-08-08T07:55:27Z</time>
      </trkpt>
      <trkpt lat="48.67621" lon="7.29871">
        <ele>522.1331787</ele>
        <time>2010-08-08T07:55:32Z</time>
      </trkpt>
      <trkpt lat="48.67614" lon="7.29867">
        <ele>525.0172119</ele>
        <time>2010-08-08T07:55:41Z</time>
      </trkpt>
      <trkpt lat="48.67606" lon="7.2986">
        <ele>527.901001</ele>
        <time>2010-08-08T07:55:49Z</time>
      </trkpt>
      <trkpt lat="48.67596" lon="7.29862">
        <ele>531.7463379</ele>
        <time>2010-08-08T07:56:03Z</time>
      </trkpt>
      <trkpt lat="48.67593" lon="7.29868">
        <ele>532.2270508</ele>
        <time>2010-08-08T07:56:14Z</time>
      </trkpt>
      <trkpt lat="48.67588" lon="7.29856">
        <ele>532.7077637</ele>
        <time>2010-08-08T07:56:26Z</time>
      </trkpt>
      <trkpt lat="48.67579" lon="7.29843">
        <ele>530.7851563</ele>
        <time>2010-08-08T07:56:42Z</time>
      </trkpt>
      <trkpt lat="48.6757" lon="7.29839">
        <ele>529.8237305</ele>
        <time>2010-08-08T07:56:56Z</time>
      </trkpt>
      <trkpt lat="48.67567" lon="7.29839">
        <ele>530.7851563</ele>
        <time>2010-08-08T07:57:00Z</time>
      </trkpt>
      <trkpt lat="48.67566" lon="7.29835">
        <ele>532.7077637</ele>
        <time>2010-08-08T07:57:07Z</time>
      </trkpt>
      <trkpt lat="48.67554" lon="7.29822">
        <ele>531.2657471</ele>
        <time>2010-08-08T07:57:20Z</time>
      </trkpt>
      <trkpt lat="48.67551" lon="7.29818">
        <ele>531.2657471</ele>
        <time>2010-08-08T07:57:23Z</time>
      </trkpt>
      <trkpt lat="48.6754" lon="7.29797">
        <ele>536.0723877</ele>
        <time>2010-08-08T07:57:40Z</time>
      </trkpt>
      <trkpt lat="48.67535" lon="7.29785">
        <ele>537.9949951</ele>
        <time>2010-08-08T07:57:50Z</time>
      </trkpt>
      <trkpt lat="48.67526" lon="7.29771">
        <ele>538.9562988</ele>
        <time>2010-08-08T07:58:07Z</time>
      </trkpt>
      <trkpt lat="48.67524" lon="7.29763">
        <ele>539.9176025</ele>
        <time>2010-08-08T07:58:11Z</time>
      </trkpt>
      <trkpt lat="48.6752" lon="7.29744">
        <ele>541.84021</ele>
        <time>2010-08-08T07:58:24Z</time>
      </trkpt>
      <trkpt lat="48.67515" lon="7.29736">
        <ele>541.84021</ele>
        <time>2010-08-08T07:58:41Z</time>
      </trkpt>
      <trkpt lat="48.67512" lon="7.29726">
        <ele>543.2821045</ele>
        <time>2010-08-08T07:58:56Z</time>
      </trkpt>
      <trkpt lat="48.67509" lon="7.29711">
        <ele>546.1662598</ele>
        <time>2010-08-08T07:59:04Z</time>
      </trkpt>
      <trkpt lat="48.67507" lon="7.29702">
        <ele>546.1662598</ele>
        <time>2010-08-08T07:59:12Z</time>
      </trkpt>
      <trkpt lat="48.67502" lon="7.2971">
        <ele>548.5693359</ele>
        <time>2010-08-08T07:59:24Z</time>
      </trkpt>
      <trkpt lat="48.67495" lon="7.29714">
        <ele>550.4921875</ele>
        <time>2010-08-08T07:59:33Z</time>
      </trkpt>
      <trkpt lat="48.6749" lon="7.29727">
        <ele>550.9726563</ele>
        <time>2010-08-08T07:59:46Z</time>
      </trkpt>
      <trkpt lat="48.67483" lon="7.29738">
        <ele>554.8178711</ele>
        <time>2010-08-08T07:59:59Z</time>
      </trkpt>
      <trkpt lat="48.67476" lon="7.2975">
        <ele>559.6247559</ele>
        <time>2010-08-08T08:00:16Z</time>
      </trkpt>
      <trkpt lat="48.67473" lon="7.29752">
        <ele>559.6247559</ele>
        <time>2010-08-08T08:00:30Z</time>
      </trkpt>
      <trkpt lat="48.67468" lon="7.29765">
        <ele>559.6247559</ele>
        <time>2010-08-08T08:00:46Z</time>
      </trkpt>
      <trkpt lat="48.67462" lon="7.29766">
        <ele>563.4699707</ele>
        <time>2010-08-08T08:01:01Z</time>
      </trkpt>
      <trkpt lat="48.67456" lon="7.29769">
        <ele>565.873291</ele>
        <time>2010-08-08T08:01:14Z</time>
      </trkpt>
      <trkpt lat="48.67452" lon="7.29764">
        <ele>566.8344727</ele>
        <time>2010-08-08T08:01:27Z</time>
      </trkpt>
      <trkpt lat="48.67432" lon="7.29731">
        <ele>570.6796875</ele>
        <time>2010-08-08T08:01:46Z</time>
      </trkpt>
      <trkpt lat="48.67427" lon="7.29729">
        <ele>571.6408691</ele>
        <time>2010-08-08T08:01:53Z</time>
      </trkpt>
      <trkpt lat="48.67429" lon="7.29724">
        <ele>571.6408691</ele>
        <time>2010-08-08T08:01:56Z</time>
      </trkpt>
      <trkpt lat="48.67428" lon="7.29715">
        <ele>571.1604004</ele>
        <time>2010-08-08T08:02:09Z</time>
      </trkpt>
      <trkpt lat="48.67427" lon="7.29704">
        <ele>574.0444336</ele>
        <time>2010-08-08T08:02:27Z</time>
      </trkpt>
      <trkpt lat="48.67425" lon="7.2969">
        <ele>575.967041</ele>
        <time>2010-08-08T08:02:37Z</time>
      </trkpt>
      <trkpt lat="48.67428" lon="7.29666">
        <ele>578.8510742</ele>
        <time>2010-08-08T08:02:50Z</time>
      </trkpt>
      <trkpt lat="48.67428" lon="7.29646">
        <ele>579.8122559</ele>
        <time>2010-08-08T08:02:59Z</time>
      </trkpt>
      <trkpt lat="48.67432" lon="7.29629">
        <ele>581.2543945</ele>
        <time>2010-08-08T08:03:07Z</time>
      </trkpt>
      <trkpt lat="48.67437" lon="7.29605">
        <ele>584.6188965</ele>
        <time>2010-08-08T08:03:20Z</time>
      </trkpt>
      <trkpt lat="48.67444" lon="7.29587">
        <ele>586.5415039</ele>
        <time>2010-08-08T08:03:27Z</time>
      </trkpt>
      <trkpt lat="48.67449" lon="7.29574">
        <ele>587.5026855</ele>
        <time>2010-08-08T08:03:32Z</time>
      </trkpt>
      <trkpt lat="48.67451" lon="7.29564">
        <ele>587.9833984</ele>
        <time>2010-08-08T08:03:36Z</time>
      </trkpt>
      <trkpt lat="48.67452" lon="7.29554">
        <ele>588.9450684</ele>
        <time>2010-08-08T08:03:41Z</time>
      </trkpt>
      <trkpt lat="48.67458" lon="7.29528">
        <ele>593.270752</ele>
        <time>2010-08-08T08:03:54Z</time>
      </trkpt>
      <trkpt lat="48.67464" lon="7.29516">
        <ele>594.2321777</ele>
        <time>2010-08-08T08:03:58Z</time>
      </trkpt>
      <trkpt lat="48.67466" lon="7.29508">
        <ele>594.7126465</ele>
        <time>2010-08-08T08:04:01Z</time>
      </trkpt>
      <trkpt lat="48.6747" lon="7.29497">
        <ele>595.6740723</ele>
        <time>2010-08-08T08:04:05Z</time>
      </trkpt>
      <trkpt lat="48.67469" lon="7.29488">
        <ele>598.0773926</ele>
        <time>2010-08-08T08:04:16Z</time>
      </trkpt>
      <trkpt lat="48.67466" lon="7.29477">
        <ele>597.5966797</ele>
        <time>2010-08-08T08:04:28Z</time>
      </trkpt>
      <trkpt lat="48.6747" lon="7.29462">
        <ele>595.6740723</ele>
        <time>2010-08-08T08:04:41Z</time>
      </trkpt>
      <trkpt lat="48.67464" lon="7.29463">
        <ele>596.1547852</ele>
        <time>2010-08-08T08:04:52Z</time>
      </trkpt>
      <trkpt lat="48.67454" lon="7.29466">
        <ele>596.1547852</ele>
        <time>2010-08-08T08:05:12Z</time>
      </trkpt>
      <trkpt lat="48.67446" lon="7.29467">
        <ele>598.5578613</ele>
        <time>2010-08-08T08:05:29Z</time>
      </trkpt>
      <trkpt lat="48.67437" lon="7.29482">
        <ele>598.5578613</ele>
        <time>2010-08-08T08:05:45Z</time>
      </trkpt>
      <trkpt lat="48.67439" lon="7.29467">
        <ele>600.4807129</ele>
        <time>2010-08-08T08:06:01Z</time>
      </trkpt>
      <trkpt lat="48.67437" lon="7.29449">
        <ele>602.8837891</ele>
        <time>2010-08-08T08:06:18Z</time>
      </trkpt>
      <trkpt lat="48.67431" lon="7.29447">
        <ele>603.8452148</ele>
        <time>2010-08-08T08:06:32Z</time>
      </trkpt>
      <trkpt lat="48.67422" lon="7.29446">
        <ele>610.5744629</ele>
        <time>2010-08-08T08:06:49Z</time>
      </trkpt>
      <trkpt lat="48.67418" lon="7.29445">
        <ele>609.6132813</ele>
        <time>2010-08-08T08:07:03Z</time>
      </trkpt>
      <trkpt lat="48.67412" lon="7.29443">
        <ele>610.09375</ele>
        <time>2010-08-08T08:07:06Z</time>
      </trkpt>
      <trkpt lat="48.67407" lon="7.29441">
        <ele>610.09375</ele>
        <time>2010-08-08T08:07:09Z</time>
      </trkpt>
      <trkpt lat="48.67403" lon="7.29438">
        <ele>610.09375</ele>
        <time>2010-08-08T08:07:12Z</time>
      </trkpt>
      <trkpt lat="48.67397" lon="7.29429">
        <ele>610.5744629</ele>
        <time>2010-08-08T08:07:18Z</time>
      </trkpt>
      <trkpt lat="48.67391" lon="7.29416">
        <ele>609.6132813</ele>
        <time>2010-08-08T08:07:23Z</time>
      </trkpt>
      <trkpt lat="48.67386" lon="7.2941">
        <ele>608.6518555</ele>
        <time>2010-08-08T08:07:27Z</time>
      </trkpt>
      <trkpt lat="48.67371" lon="7.29399">
        <ele>608.6518555</ele>
        <time>2010-08-08T08:07:33Z</time>
      </trkpt>
      <trkpt lat="48.67349" lon="7.29393">
        <ele>610.5744629</ele>
        <time>2010-08-08T08:07:41Z</time>
      </trkpt>
      <trkpt lat="48.67333" lon="7.29364">
        <ele>608.1713867</ele>
        <time>2010-08-08T08:07:52Z</time>
      </trkpt>
      <trkpt lat="48.67316" lon="7.29351">
        <ele>609.6132813</ele>
        <time>2010-08-08T08:07:58Z</time>
      </trkpt>
      <trkpt lat="48.67292" lon="7.29325">
        <ele>610.09375</ele>
        <time>2010-08-08T08:08:10Z</time>
      </trkpt>
      <trkpt lat="48.67273" lon="7.29313">
        <ele>611.5358887</ele>
        <time>2010-08-08T08:08:18Z</time>
      </trkpt>
      <trkpt lat="48.67242" lon="7.29279">
        <ele>612.9777832</ele>
        <time>2010-08-08T08:08:32Z</time>
      </trkpt>
      <trkpt lat="48.6722" lon="7.29243">
        <ele>614.9003906</ele>
        <time>2010-08-08T08:08:45Z</time>
      </trkpt>
      <trkpt lat="48.67194" lon="7.29214">
        <ele>615.3811035</ele>
        <time>2010-08-08T08:09:00Z</time>
      </trkpt>
      <trkpt lat="48.67179" lon="7.29187">
        <ele>615.3811035</ele>
        <time>2010-08-08T08:09:09Z</time>
      </trkpt>
      <trkpt lat="48.67172" lon="7.29175">
        <ele>615.8618164</ele>
        <time>2010-08-08T08:09:23Z</time>
      </trkpt>
      <trkpt lat="48.67172" lon="7.29176">
        <ele>615.8618164</ele>
        <time>2010-08-08T08:09:25Z</time>
      </trkpt>
      <trkpt lat="48.67184" lon="7.29197">
        <ele>613.4584961</ele>
        <time>2010-08-08T08:09:40Z</time>
      </trkpt>
      <trkpt lat="48.67201" lon="7.29233">
        <ele>613.4584961</ele>
        <time>2010-08-08T08:09:52Z</time>
      </trkpt>
      <trkpt lat="48.67197" lon="7.2924">
        <ele>612.4970703</ele>
        <time>2010-08-08T08:10:02Z</time>
      </trkpt>
      <trkpt lat="48.67193" lon="7.29243">
        <ele>609.6132813</ele>
        <time>2010-08-08T08:10:17Z</time>
      </trkpt>
      <trkpt lat="48.67192" lon="7.29244">
        <ele>609.6132813</ele>
        <time>2010-08-08T08:10:23Z</time>
      </trkpt>
      <trkpt lat="48.67189" lon="7.29251">
        <ele>608.1713867</ele>
        <time>2010-08-08T08:10:27Z</time>
      </trkpt>
      <trkpt lat="48.67185" lon="7.29244">
        <ele>606.2485352</ele>
        <time>2010-08-08T08:10:43Z</time>
      </trkpt>
      <trkpt lat="48.67185" lon="7.29244">
        <ele>606.2485352</ele>
        <time>2010-08-08T08:10:46Z</time>
      </trkpt>
      <trkpt lat="48.67179" lon="7.29231">
        <ele>604.8066406</ele>
        <time>2010-08-08T08:10:52Z</time>
      </trkpt>
      <trkpt lat="48.67177" lon="7.29228">
        <ele>604.3261719</ele>
        <time>2010-08-08T08:10:54Z</time>
      </trkpt>
      <trkpt lat="48.67173" lon="7.29224">
        <ele>603.364502</ele>
        <time>2010-08-08T08:10:57Z</time>
      </trkpt>
      <trkpt lat="48.6717" lon="7.29234">
        <ele>600.4807129</ele>
        <time>2010-08-08T08:11:01Z</time>
      </trkpt>
      <trkpt lat="48.6717" lon="7.29265">
        <ele>598.0773926</ele>
        <time>2010-08-08T08:11:12Z</time>
      </trkpt>
      <trkpt lat="48.67167" lon="7.29267">
        <ele>596.635498</ele>
        <time>2010-08-08T08:11:25Z</time>
      </trkpt>
      <trkpt lat="48.67163" lon="7.29261">
        <ele>595.6740723</ele>
        <time>2010-08-08T08:11:29Z</time>
      </trkpt>
      <trkpt lat="48.67151" lon="7.29233">
        <ele>591.3481445</ele>
        <time>2010-08-08T08:11:38Z</time>
      </trkpt>
      <trkpt lat="48.67146" lon="7.29226">
        <ele>590.8674316</ele>
        <time>2010-08-08T08:11:42Z</time>
      </trkpt>
      <trkpt lat="48.67133" lon="7.29199">
        <ele>590.3869629</ele>
        <time>2010-08-08T08:11:49Z</time>
      </trkpt>
      <trkpt lat="48.67127" lon="7.29183">
        <ele>588.4643555</ele>
        <time>2010-08-08T08:11:54Z</time>
      </trkpt>
      <trkpt lat="48.67117" lon="7.29152">
        <ele>587.0219727</ele>
        <time>2010-08-08T08:12:02Z</time>
      </trkpt>
      <trkpt lat="48.67112" lon="7.29108">
        <ele>585.5800781</ele>
        <time>2010-08-08T08:12:08Z</time>
      </trkpt>
      <trkpt lat="48.67094" lon="7.29103">
        <ele>584.1381836</ele>
        <time>2010-08-08T08:12:16Z</time>
      </trkpt>
      <trkpt lat="48.6709" lon="7.29106">
        <ele>584.1381836</ele>
        <time>2010-08-08T08:12:18Z</time>
      </trkpt>
      <trkpt lat="48.67085" lon="7.29115">
        <ele>583.6574707</ele>
        <time>2010-08-08T08:12:21Z</time>
      </trkpt>
      <trkpt lat="48.67077" lon="7.29123">
        <ele>582.6962891</ele>
        <time>2010-08-08T08:12:25Z</time>
      </trkpt>
      <trkpt lat="48.67062" lon="7.29114">
        <ele>581.7348633</ele>
        <time>2010-08-08T08:12:33Z</time>
      </trkpt>
      <trkpt lat="48.67054" lon="7.29088">
        <ele>582.2155762</ele>
        <time>2010-08-08T08:12:42Z</time>
      </trkpt>
      <trkpt lat="48.67051" lon="7.29084">
        <ele>582.2155762</ele>
        <time>2010-08-08T08:12:43Z</time>
      </trkpt>
      <trkpt lat="48.6705" lon="7.29067">
        <ele>582.2155762</ele>
        <time>2010-08-08T08:12:48Z</time>
      </trkpt>
      <trkpt lat="48.67051" lon="7.29015">
        <ele>580.7736816</ele>
        <time>2010-08-08T08:12:57Z</time>
      </trkpt>
      <trkpt lat="48.67052" lon="7.29004">
        <ele>579.8122559</ele>
        <time>2010-08-08T08:12:59Z</time>
      </trkpt>
      <trkpt lat="48.67043" lon="7.28985">
        <ele>574.0444336</ele>
        <time>2010-08-08T08:13:08Z</time>
      </trkpt>
      <trkpt lat="48.67021" lon="7.28988">
        <ele>562.5085449</ele>
        <time>2010-08-08T08:13:17Z</time>
      </trkpt>
      <trkpt lat="48.67015" lon="7.28987">
        <ele>560.1052246</ele>
        <time>2010-08-08T08:13:20Z</time>
      </trkpt>
      <trkpt lat="48.67008" lon="7.28975">
        <ele>557.2214355</ele>
        <time>2010-08-08T08:13:24Z</time>
      </trkpt>
      <trkpt lat="48.66998" lon="7.28969">
        <ele>553.3759766</ele>
        <time>2010-08-08T08:13:29Z</time>
      </trkpt>
      <trkpt lat="48.66975" lon="7.28947">
        <ele>544.2436523</ele>
        <time>2010-08-08T08:13:40Z</time>
      </trkpt>
      <trkpt lat="48.6697" lon="7.2893">
        <ele>543.2821045</ele>
        <time>2010-08-08T08:13:44Z</time>
      </trkpt>
      <trkpt lat="48.6694" lon="7.28905">
        <ele>540.3983154</ele>
        <time>2010-08-08T08:13:52Z</time>
      </trkpt>
      <trkpt lat="48.66899" lon="7.28868">
        <ele>536.0723877</ele>
        <time>2010-08-08T08:14:02Z</time>
      </trkpt>
      <trkpt lat="48.66896" lon="7.28863">
        <ele>536.0723877</ele>
        <time>2010-08-08T08:14:03Z</time>
      </trkpt>
      <trkpt lat="48.66891" lon="7.28846">
        <ele>536.0723877</ele>
        <time>2010-08-08T08:14:06Z</time>
      </trkpt>
      <trkpt lat="48.66886" lon="7.28832">
        <ele>535.5915527</ele>
        <time>2010-08-08T08:14:10Z</time>
      </trkpt>
      <trkpt lat="48.66875" lon="7.28803">
        <ele>534.1496582</ele>
        <time>2010-08-08T08:14:22Z</time>
      </trkpt>
      <trkpt lat="48.66863" lon="7.28789">
        <ele>536.0723877</ele>
        <time>2010-08-08T08:14:30Z</time>
      </trkpt>
      <trkpt lat="48.66861" lon="7.28786">
        <ele>536.5531006</ele>
        <time>2010-08-08T08:14:32Z</time>
      </trkpt>
      <trkpt lat="48.66853" lon="7.28773">
        <ele>539.4368896</ele>
        <time>2010-08-08T08:14:40Z</time>
      </trkpt>
      <trkpt lat="48.66852" lon="7.28772">
        <ele>539.4368896</ele>
        <time>2010-08-08T08:14:41Z</time>
      </trkpt>
      <trkpt lat="48.66847" lon="7.28761">
        <ele>538.9562988</ele>
        <time>2010-08-08T08:14:45Z</time>
      </trkpt>
      <trkpt lat="48.66833" lon="7.2874">
        <ele>539.4368896</ele>
        <time>2010-08-08T08:14:56Z</time>
      </trkpt>
      <trkpt lat="48.6683" lon="7.28707">
        <ele>538.9562988</ele>
        <time>2010-08-08T08:15:09Z</time>
      </trkpt>
      <trkpt lat="48.66828" lon="7.28697">
        <ele>539.9176025</ele>
        <time>2010-08-08T08:15:13Z</time>
      </trkpt>
      <trkpt lat="48.66831" lon="7.28691">
        <ele>540.8789063</ele>
        <time>2010-08-08T08:15:16Z</time>
      </trkpt>
      <trkpt lat="48.66828" lon="7.28669">
        <ele>540.8789063</ele>
        <time>2010-08-08T08:15:25Z</time>
      </trkpt>
      <trkpt lat="48.66819" lon="7.28658">
        <ele>541.3594971</ele>
        <time>2010-08-08T08:15:29Z</time>
      </trkpt>
      <trkpt lat="48.6682" lon="7.28648">
        <ele>542.8015137</ele>
        <time>2010-08-08T08:15:32Z</time>
      </trkpt>
      <trkpt lat="48.66818" lon="7.2864">
        <ele>544.7242432</ele>
        <time>2010-08-08T08:15:36Z</time>
      </trkpt>
      <trkpt lat="48.66811" lon="7.28625">
        <ele>547.1274414</ele>
        <time>2010-08-08T08:15:51Z</time>
      </trkpt>
      <trkpt lat="48.66808" lon="7.28616">
        <ele>547.1274414</ele>
        <time>2010-08-08T08:15:54Z</time>
      </trkpt>
      <trkpt lat="48.66806" lon="7.28606">
        <ele>547.1274414</ele>
        <time>2010-08-08T08:15:57Z</time>
      </trkpt>
      <trkpt lat="48.66801" lon="7.28594">
        <ele>548.0888672</ele>
        <time>2010-08-08T08:16:01Z</time>
      </trkpt>
      <trkpt lat="48.66799" lon="7.28553">
        <ele>550.9726563</ele>
        <time>2010-08-08T08:16:14Z</time>
      </trkpt>
      <trkpt lat="48.66798" lon="7.28545">
        <ele>549.5307617</ele>
        <time>2010-08-08T08:16:19Z</time>
      </trkpt>
      <trkpt lat="48.66792" lon="7.28527">
        <ele>550.0114746</ele>
        <time>2010-08-08T08:16:26Z</time>
      </trkpt>
      <trkpt lat="48.66789" lon="7.28515">
        <ele>550.0114746</ele>
        <time>2010-08-08T08:16:30Z</time>
      </trkpt>
      <trkpt lat="48.6677" lon="7.2848">
        <ele>550.0114746</ele>
        <time>2010-08-08T08:16:42Z</time>
      </trkpt>
      <trkpt lat="48.66752" lon="7.28452">
        <ele>550.0114746</ele>
        <time>2010-08-08T08:16:51Z</time>
      </trkpt>
      <trkpt lat="48.66736" lon="7.28433">
        <ele>546.6468506</ele>
        <time>2010-08-08T08:16:59Z</time>
      </trkpt>
      <trkpt lat="48.66711" lon="7.28426">
        <ele>546.1662598</ele>
        <time>2010-08-08T08:17:09Z</time>
      </trkpt>
      <trkpt lat="48.66707" lon="7.28424">
        <ele>545.6855469</ele>
        <time>2010-08-08T08:17:11Z</time>
      </trkpt>
      <trkpt lat="48.66699" lon="7.28419">
        <ele>548.0888672</ele>
        <time>2010-08-08T08:17:15Z</time>
      </trkpt>
      <trkpt lat="48.66691" lon="7.28414">
        <ele>547.6081543</ele>
        <time>2010-08-08T08:17:18Z</time>
      </trkpt>
      <trkpt lat="48.66661" lon="7.28402">
        <ele>547.6081543</ele>
        <time>2010-08-08T08:17:29Z</time>
      </trkpt>
      <trkpt lat="48.66636" lon="7.28392">
        <ele>546.6468506</ele>
        <time>2010-08-08T08:17:39Z</time>
      </trkpt>
      <trkpt lat="48.66603" lon="7.28379">
        <ele>544.7242432</ele>
        <time>2010-08-08T08:17:52Z</time>
      </trkpt>
      <trkpt lat="48.66574" lon="7.28368">
        <ele>546.6468506</ele>
        <time>2010-08-08T08:18:02Z</time>
      </trkpt>
      <trkpt lat="48.66541" lon="7.28351">
        <ele>548.5693359</ele>
        <time>2010-08-08T08:18:16Z</time>
      </trkpt>
      <trkpt lat="48.66499" lon="7.2833">
        <ele>550.4921875</ele>
        <time>2010-08-08T08:18:32Z</time>
      </trkpt>
      <trkpt lat="48.66476" lon="7.28317">
        <ele>553.3759766</ele>
        <time>2010-08-08T08:18:42Z</time>
      </trkpt>
      <trkpt lat="48.66469" lon="7.28313">
        <ele>554.8178711</ele>
        <time>2010-08-08T08:18:45Z</time>
      </trkpt>
      <trkpt lat="48.66461" lon="7.28304">
        <ele>555.7792969</ele>
        <time>2010-08-08T08:18:50Z</time>
      </trkpt>
      <trkpt lat="48.66438" lon="7.28275">
        <ele>560.5859375</ele>
        <time>2010-08-08T08:19:03Z</time>
      </trkpt>
      <trkpt lat="48.66426" lon="7.28257">
        <ele>563.4699707</ele>
        <time>2010-08-08T08:19:09Z</time>
      </trkpt>
      <trkpt lat="48.6642" lon="7.28242">
        <ele>566.8344727</ele>
        <time>2010-08-08T08:19:15Z</time>
      </trkpt>
      <trkpt lat="48.66422" lon="7.28235">
        <ele>567.3151855</ele>
        <time>2010-08-08T08:19:17Z</time>
      </trkpt>
      <trkpt lat="48.66414" lon="7.28223">
        <ele>569.237793</ele>
        <time>2010-08-08T08:19:22Z</time>
      </trkpt>
      <trkpt lat="48.66411" lon="7.28213">
        <ele>570.6796875</ele>
        <time>2010-08-08T08:19:26Z</time>
      </trkpt>
      <trkpt lat="48.66409" lon="7.28206">
        <ele>571.1604004</ele>
        <time>2010-08-08T08:19:28Z</time>
      </trkpt>
      <trkpt lat="48.66396" lon="7.28169">
        <ele>573.083252</ele>
        <time>2010-08-08T08:19:40Z</time>
      </trkpt>
      <trkpt lat="48.66369" lon="7.28133">
        <ele>573.083252</ele>
        <time>2010-08-08T08:19:53Z</time>
      </trkpt>
      <trkpt lat="48.66333" lon="7.28105">
        <ele>574.5251465</ele>
        <time>2010-08-08T08:20:06Z</time>
      </trkpt>
      <trkpt lat="48.663" lon="7.28094">
        <ele>573.5639648</ele>
        <time>2010-08-08T08:20:18Z</time>
      </trkpt>
      <trkpt lat="48.66259" lon="7.28088">
        <ele>570.6796875</ele>
        <time>2010-08-08T08:20:31Z</time>
      </trkpt>
      <trkpt lat="48.66256" lon="7.28089">
        <ele>570.1989746</ele>
        <time>2010-08-08T08:20:32Z</time>
      </trkpt>
      <trkpt lat="48.6624" lon="7.28095">
        <ele>568.7570801</ele>
        <time>2010-08-08T08:20:39Z</time>
      </trkpt>
      <trkpt lat="48.66223" lon="7.281">
        <ele>568.2763672</ele>
        <time>2010-08-08T08:20:45Z</time>
      </trkpt>
      <trkpt lat="48.66193" lon="7.28109">
        <ele>567.7956543</ele>
        <time>2010-08-08T08:20:57Z</time>
      </trkpt>
      <trkpt lat="48.66164" lon="7.28115">
        <ele>566.8344727</ele>
        <time>2010-08-08T08:21:07Z</time>
      </trkpt>
      <trkpt lat="48.66131" lon="7.28123">
        <ele>566.3537598</ele>
        <time>2010-08-08T08:21:18Z</time>
      </trkpt>
      <trkpt lat="48.66108" lon="7.28132">
        <ele>564.4311523</ele>
        <time>2010-08-08T08:21:27Z</time>
      </trkpt>
      <trkpt lat="48.66083" lon="7.28141">
        <ele>563.9504395</ele>
        <time>2010-08-08T08:21:36Z</time>
      </trkpt>
      <trkpt lat="48.66063" lon="7.28139">
        <ele>564.9118652</ele>
        <time>2010-08-08T08:21:46Z</time>
      </trkpt>
      <trkpt lat="48.66049" lon="7.28137">
        <ele>566.3537598</ele>
        <time>2010-08-08T08:21:56Z</time>
      </trkpt>
      <trkpt lat="48.66044" lon="7.28135">
        <ele>567.3151855</ele>
        <time>2010-08-08T08:22:13Z</time>
      </trkpt>
      <trkpt lat="48.66042" lon="7.28134">
        <ele>567.7956543</ele>
        <time>2010-08-08T08:22:55Z</time>
      </trkpt>
      <trkpt lat="48.66035" lon="7.28132">
        <ele>565.873291</ele>
        <time>2010-08-08T08:23:25Z</time>
      </trkpt>
      <trkpt lat="48.66034" lon="7.28134">
        <ele>562.5085449</ele>
        <time>2010-08-08T08:24:05Z</time>
      </trkpt>
      <trkpt lat="48.66033" lon="7.28135">
        <ele>563.4699707</ele>
        <time>2010-08-08T08:24:46Z</time>
      </trkpt>
      <trkpt lat="48.66022" lon="7.28125">
        <ele>562.9892578</ele>
        <time>2010-08-08T08:24:57Z</time>
      </trkpt>
      <trkpt lat="48.6601" lon="7.28114">
        <ele>562.9892578</ele>
        <time>2010-08-08T08:25:04Z</time>
      </trkpt>
      <trkpt lat="48.65985" lon="7.28092">
        <ele>562.9892578</ele>
        <time>2010-08-08T08:25:15Z</time>
      </trkpt>
      <trkpt lat="48.65955" lon="7.28073">
        <ele>563.4699707</ele>
        <time>2010-08-08T08:25:25Z</time>
      </trkpt>
      <trkpt lat="48.65931" lon="7.28064">
        <ele>566.3537598</ele>
        <time>2010-08-08T08:25:33Z</time>
      </trkpt>
      <trkpt lat="48.65899" lon="7.2806">
        <ele>568.2763672</ele>
        <time>2010-08-08T08:25:44Z</time>
      </trkpt>
      <trkpt lat="48.65864" lon="7.28065">
        <ele>571.6408691</ele>
        <time>2010-08-08T08:25:55Z</time>
      </trkpt>
      <trkpt lat="48.65831" lon="7.28067">
        <ele>575.0058594</ele>
        <time>2010-08-08T08:26:05Z</time>
      </trkpt>
      <trkpt lat="48.65799" lon="7.28076">
        <ele>578.8510742</ele>
        <time>2010-08-08T08:26:15Z</time>
      </trkpt>
      <trkpt lat="48.65763" lon="7.28089">
        <ele>582.2155762</ele>
        <time>2010-08-08T08:26:25Z</time>
      </trkpt>
      <trkpt lat="48.65758" lon="7.2809">
        <ele>582.6962891</ele>
        <time>2010-08-08T08:26:27Z</time>
      </trkpt>
      <trkpt lat="48.65745" lon="7.28101">
        <ele>583.1767578</ele>
        <time>2010-08-08T08:26:33Z</time>
      </trkpt>
      <trkpt lat="48.65715" lon="7.28133">
        <ele>586.5415039</ele>
        <time>2010-08-08T08:26:46Z</time>
      </trkpt>
      <trkpt lat="48.65701" lon="7.28155">
        <ele>588.9450684</ele>
        <time>2010-08-08T08:26:53Z</time>
      </trkpt>
      <trkpt lat="48.65679" lon="7.2817">
        <ele>591.8288574</ele>
        <time>2010-08-08T08:27:01Z</time>
      </trkpt>
      <trkpt lat="48.65657" lon="7.28186">
        <ele>595.1933594</ele>
        <time>2010-08-08T08:27:10Z</time>
      </trkpt>
      <trkpt lat="48.6563" lon="7.282">
        <ele>596.635498</ele>
        <time>2010-08-08T08:27:20Z</time>
      </trkpt>
      <trkpt lat="48.65601" lon="7.28216">
        <ele>593.270752</ele>
        <time>2010-08-08T08:27:30Z</time>
      </trkpt>
      <trkpt lat="48.65597" lon="7.28216">
        <ele>593.270752</ele>
        <time>2010-08-08T08:27:31Z</time>
      </trkpt>
      <trkpt lat="48.65579" lon="7.28221">
        <ele>594.7126465</ele>
        <time>2010-08-08T08:27:37Z</time>
      </trkpt>
      <trkpt lat="48.65533" lon="7.28233">
        <ele>593.270752</ele>
        <time>2010-08-08T08:27:49Z</time>
      </trkpt>
      <trkpt lat="48.65496" lon="7.28239">
        <ele>594.7126465</ele>
        <time>2010-08-08T08:28:00Z</time>
      </trkpt>
      <trkpt lat="48.65442" lon="7.28234">
        <ele>596.1547852</ele>
        <time>2010-08-08T08:28:17Z</time>
      </trkpt>
      <trkpt lat="48.65413" lon="7.28231">
        <ele>594.7126465</ele>
        <time>2010-08-08T08:28:26Z</time>
      </trkpt>
      <trkpt lat="48.65384" lon="7.28232">
        <ele>596.1547852</ele>
        <time>2010-08-08T08:28:36Z</time>
      </trkpt>
      <trkpt lat="48.6534" lon="7.28234">
        <ele>598.5578613</ele>
        <time>2010-08-08T08:28:50Z</time>
      </trkpt>
      <trkpt lat="48.65306" lon="7.2825">
        <ele>599.5192871</ele>
        <time>2010-08-08T08:29:01Z</time>
      </trkpt>
      <trkpt lat="48.6527" lon="7.2828">
        <ele>599.0385742</ele>
        <time>2010-08-08T08:29:13Z</time>
      </trkpt>
      <trkpt lat="48.65267" lon="7.28284">
        <ele>599.0385742</ele>
        <time>2010-08-08T08:29:14Z</time>
      </trkpt>
      <trkpt lat="48.65237" lon="7.28317">
        <ele>600.9611816</ele>
        <time>2010-08-08T08:29:25Z</time>
      </trkpt>
      <trkpt lat="48.65201" lon="7.28373">
        <ele>603.8452148</ele>
        <time>2010-08-08T08:29:40Z</time>
      </trkpt>
      <trkpt lat="48.65198" lon="7.28377">
        <ele>603.8452148</ele>
        <time>2010-08-08T08:29:41Z</time>
      </trkpt>
      <trkpt lat="48.65165" lon="7.28416">
        <ele>607.6906738</ele>
        <time>2010-08-08T08:29:53Z</time>
      </trkpt>
      <trkpt lat="48.65128" lon="7.28449">
        <ele>608.6518555</ele>
        <time>2010-08-08T08:30:05Z</time>
      </trkpt>
      <trkpt lat="48.65091" lon="7.28489">
        <ele>610.5744629</ele>
        <time>2010-08-08T08:30:18Z</time>
      </trkpt>
      <trkpt lat="48.65054" lon="7.2853">
        <ele>613.9389648</ele>
        <time>2010-08-08T08:30:31Z</time>
      </trkpt>
      <trkpt lat="48.65019" lon="7.28562">
        <ele>617.3037109</ele>
        <time>2010-08-08T08:30:43Z</time>
      </trkpt>
      <trkpt lat="48.65016" lon="7.28564">
        <ele>617.3037109</ele>
        <time>2010-08-08T08:30:44Z</time>
      </trkpt>
      <trkpt lat="48.65006" lon="7.28572">
        <ele>618.7456055</ele>
        <time>2010-08-08T08:30:48Z</time>
      </trkpt>
      <trkpt lat="48.64978" lon="7.28594">
        <ele>619.7070313</ele>
        <time>2010-08-08T08:31:02Z</time>
      </trkpt>
      <trkpt lat="48.6495" lon="7.28607">
        <ele>621.1491699</ele>
        <time>2010-08-08T08:31:13Z</time>
      </trkpt>
      <trkpt lat="48.6494" lon="7.28608">
        <ele>623.0717773</ele>
        <time>2010-08-08T08:31:20Z</time>
      </trkpt>
      <trkpt lat="48.64931" lon="7.28608">
        <ele>624.5136719</ele>
        <time>2010-08-08T08:31:24Z</time>
      </trkpt>
      <trkpt lat="48.64889" lon="7.28593">
        <ele>623.0717773</ele>
        <time>2010-08-08T08:31:41Z</time>
      </trkpt>
      <trkpt lat="48.6485" lon="7.28556">
        <ele>624.032959</ele>
        <time>2010-08-08T08:31:58Z</time>
      </trkpt>
      <trkpt lat="48.64833" lon="7.28504">
        <ele>626.9169922</ele>
        <time>2010-08-08T08:32:12Z</time>
      </trkpt>
      <trkpt lat="48.64817" lon="7.28405">
        <ele>628.8395996</ele>
        <time>2010-08-08T08:32:34Z</time>
      </trkpt>
      <trkpt lat="48.6479" lon="7.28322">
        <ele>631.2429199</ele>
        <time>2010-08-08T08:32:55Z</time>
      </trkpt>
      <trkpt lat="48.64763" lon="7.28246">
        <ele>632.2041016</ele>
        <time>2010-08-08T08:33:13Z</time>
      </trkpt>
      <trkpt lat="48.64725" lon="7.28195">
        <ele>632.6848145</ele>
        <time>2010-08-08T08:33:28Z</time>
      </trkpt>
      <trkpt lat="48.64674" lon="7.28174">
        <ele>634.126709</ele>
        <time>2010-08-08T08:33:44Z</time>
      </trkpt>
      <trkpt lat="48.64644" lon="7.28118">
        <ele>636.5302734</ele>
        <time>2010-08-08T08:33:58Z</time>
      </trkpt>
      <trkpt lat="48.64622" lon="7.28072">
        <ele>638.9335938</ele>
        <time>2010-08-08T08:34:10Z</time>
      </trkpt>
      <trkpt lat="48.64609" lon="7.28054">
        <ele>638.4528809</ele>
        <time>2010-08-08T08:34:18Z</time>
      </trkpt>
      <trkpt lat="48.64593" lon="7.28017">
        <ele>638.9335938</ele>
        <time>2010-08-08T08:34:35Z</time>
      </trkpt>
      <trkpt lat="48.64591" lon="7.28012">
        <ele>639.4140625</ele>
        <time>2010-08-08T08:34:37Z</time>
      </trkpt>
      <trkpt lat="48.64579" lon="7.27957">
        <ele>643.2592773</ele>
        <time>2010-08-08T08:34:55Z</time>
      </trkpt>
      <trkpt lat="48.64563" lon="7.27899">
        <ele>643.7399902</ele>
        <time>2010-08-08T08:35:12Z</time>
      </trkpt>
      <trkpt lat="48.64545" lon="7.27829">
        <ele>644.7011719</ele>
        <time>2010-08-08T08:35:29Z</time>
      </trkpt>
      <trkpt lat="48.64528" lon="7.27772">
        <ele>644.2207031</ele>
        <time>2010-08-08T08:35:45Z</time>
      </trkpt>
      <trkpt lat="48.64508" lon="7.27706">
        <ele>645.6625977</ele>
        <time>2010-08-08T08:36:04Z</time>
      </trkpt>
      <trkpt lat="48.64502" lon="7.27686">
        <ele>647.5852051</ele>
        <time>2010-08-08T08:36:10Z</time>
      </trkpt>
      <trkpt lat="48.64487" lon="7.27645">
        <ele>647.5852051</ele>
        <time>2010-08-08T08:36:21Z</time>
      </trkpt>
      <trkpt lat="48.64469" lon="7.27583">
        <ele>646.1433105</ele>
        <time>2010-08-08T08:36:37Z</time>
      </trkpt>
      <trkpt lat="48.64445" lon="7.27542">
        <ele>645.1818848</ele>
        <time>2010-08-08T08:36:51Z</time>
      </trkpt>
      <trkpt lat="48.64443" lon="7.27541">
        <ele>645.1818848</ele>
        <time>2010-08-08T08:36:52Z</time>
      </trkpt>
      <trkpt lat="48.64425" lon="7.27551">
        <ele>648.065918</ele>
        <time>2010-08-08T08:37:01Z</time>
      </trkpt>
      <trkpt lat="48.64418" lon="7.27556">
        <ele>649.0270996</ele>
        <time>2010-08-08T08:37:05Z</time>
      </trkpt>
      <trkpt lat="48.64388" lon="7.27576">
        <ele>651.9111328</ele>
        <time>2010-08-08T08:37:20Z</time>
      </trkpt>
      <trkpt lat="48.64364" lon="7.27598">
        <ele>655.2758789</ele>
        <time>2010-08-08T08:37:33Z</time>
      </trkpt>
      <trkpt lat="48.64334" lon="7.27626">
        <ele>655.7565918</ele>
        <time>2010-08-08T08:37:47Z</time>
      </trkpt>
      <trkpt lat="48.64305" lon="7.27657">
        <ele>655.7565918</ele>
        <time>2010-08-08T08:38:01Z</time>
      </trkpt>
      <trkpt lat="48.643" lon="7.27669">
        <ele>655.7565918</ele>
        <time>2010-08-08T08:38:06Z</time>
      </trkpt>
      <trkpt lat="48.64285" lon="7.27687">
        <ele>659.1210938</ele>
        <time>2010-08-08T08:38:14Z</time>
      </trkpt>
      <trkpt lat="48.64275" lon="7.277">
        <ele>660.0822754</ele>
        <time>2010-08-08T08:38:20Z</time>
      </trkpt>
      <trkpt lat="48.64255" lon="7.27719">
        <ele>665.3696289</ele>
        <time>2010-08-08T08:38:30Z</time>
      </trkpt>
      <trkpt lat="48.64246" lon="7.27731">
        <ele>668.734375</ele>
        <time>2010-08-08T08:38:36Z</time>
      </trkpt>
      <trkpt lat="48.64221" lon="7.27751">
        <ele>670.6569824</ele>
        <time>2010-08-08T08:38:49Z</time>
      </trkpt>
      <trkpt lat="48.64219" lon="7.27752">
        <ele>670.1762695</ele>
        <time>2010-08-08T08:38:50Z</time>
      </trkpt>
      <trkpt lat="48.64214" lon="7.2776">
        <ele>670.6569824</ele>
        <time>2010-08-08T08:38:54Z</time>
      </trkpt>
      <trkpt lat="48.64206" lon="7.27774">
        <ele>673.5410156</ele>
        <time>2010-08-08T08:39:01Z</time>
      </trkpt>
      <trkpt lat="48.64201" lon="7.27779">
        <ele>674.9829102</ele>
        <time>2010-08-08T08:39:05Z</time>
      </trkpt>
      <trkpt lat="48.64197" lon="7.27784">
        <ele>675.4633789</ele>
        <time>2010-08-08T08:39:08Z</time>
      </trkpt>
      <trkpt lat="48.64196" lon="7.27789">
        <ele>676.4248047</ele>
        <time>2010-08-08T08:39:10Z</time>
      </trkpt>
      <trkpt lat="48.6419" lon="7.27797">
        <ele>677.3862305</ele>
        <time>2010-08-08T08:39:15Z</time>
      </trkpt>
      <trkpt lat="48.64182" lon="7.27806">
        <ele>679.3085938</ele>
        <time>2010-08-08T08:39:22Z</time>
      </trkpt>
      <trkpt lat="48.64171" lon="7.27822">
        <ele>681.2314453</ele>
        <time>2010-08-08T08:39:34Z</time>
      </trkpt>
      <trkpt lat="48.64165" lon="7.27828">
        <ele>682.6733398</ele>
        <time>2010-08-08T08:39:39Z</time>
      </trkpt>
      <trkpt lat="48.64159" lon="7.27832">
        <ele>684.1154785</ele>
        <time>2010-08-08T08:39:43Z</time>
      </trkpt>
      <trkpt lat="48.64148" lon="7.27844">
        <ele>686.0380859</ele>
        <time>2010-08-08T08:39:54Z</time>
      </trkpt>
      <trkpt lat="48.64148" lon="7.27846">
        <ele>686.0380859</ele>
        <time>2010-08-08T08:39:58Z</time>
      </trkpt>
      <trkpt lat="48.6414" lon="7.27858">
        <ele>685.557373</ele>
        <time>2010-08-08T08:40:14Z</time>
      </trkpt>
      <trkpt lat="48.64139" lon="7.27859">
        <ele>685.0769043</ele>
        <time>2010-08-08T08:40:20Z</time>
      </trkpt>
      <trkpt lat="48.64131" lon="7.27868">
        <ele>686.5187988</ele>
        <time>2010-08-08T08:40:28Z</time>
      </trkpt>
      <trkpt lat="48.64111" lon="7.27884">
        <ele>688.4414063</ele>
        <time>2010-08-08T08:40:41Z</time>
      </trkpt>
      <trkpt lat="48.64109" lon="7.27887">
        <ele>688.9221191</ele>
        <time>2010-08-08T08:40:43Z</time>
      </trkpt>
      <trkpt lat="48.6409" lon="7.279">
        <ele>689.8833008</ele>
        <time>2010-08-08T08:40:55Z</time>
      </trkpt>
      <trkpt lat="48.64059" lon="7.27909">
        <ele>690.8444824</ele>
        <time>2010-08-08T08:41:08Z</time>
      </trkpt>
      <trkpt lat="48.6402" lon="7.27923">
        <ele>691.8059082</ele>
        <time>2010-08-08T08:41:20Z</time>
      </trkpt>
      <trkpt lat="48.63994" lon="7.27934">
        <ele>693.7285156</ele>
        <time>2010-08-08T08:41:31Z</time>
      </trkpt>
      <trkpt lat="48.63982" lon="7.27941">
        <ele>695.1704102</ele>
        <time>2010-08-08T08:41:37Z</time>
      </trkpt>
      <trkpt lat="48.63965" lon="7.27953">
        <ele>697.0930176</ele>
        <time>2010-08-08T08:41:50Z</time>
      </trkpt>
      <trkpt lat="48.63955" lon="7.27956">
        <ele>698.5349121</ele>
        <time>2010-08-08T08:41:57Z</time>
      </trkpt>
      <trkpt lat="48.63952" lon="7.27956">
        <ele>698.5349121</ele>
        <time>2010-08-08T08:41:59Z</time>
      </trkpt>
      <trkpt lat="48.63931" lon="7.27949">
        <ele>700.9384766</ele>
        <time>2010-08-08T08:42:13Z</time>
      </trkpt>
      <trkpt lat="48.63915" lon="7.27939">
        <ele>701.4191895</ele>
        <time>2010-08-08T08:42:22Z</time>
      </trkpt>
      <trkpt lat="48.639" lon="7.27933">
        <ele>701.8999023</ele>
        <time>2010-08-08T08:42:33Z</time>
      </trkpt>
      <trkpt lat="48.63893" lon="7.2793">
        <ele>702.861084</ele>
        <time>2010-08-08T08:42:37Z</time>
      </trkpt>
      <trkpt lat="48.63877" lon="7.27919">
        <ele>705.2644043</ele>
        <time>2010-08-08T08:42:48Z</time>
      </trkpt>
      <trkpt lat="48.63871" lon="7.27913">
        <ele>709.590332</ele>
        <time>2010-08-08T08:42:53Z</time>
      </trkpt>
      <trkpt lat="48.63852" lon="7.27903">
        <ele>712.4741211</ele>
        <time>2010-08-08T08:43:06Z</time>
      </trkpt>
      <trkpt lat="48.63845" lon="7.27901">
        <ele>713.4355469</ele>
        <time>2010-08-08T08:43:14Z</time>
      </trkpt>
      <trkpt lat="48.63829" lon="7.2789">
        <ele>719.2036133</ele>
        <time>2010-08-08T08:43:31Z</time>
      </trkpt>
      <trkpt lat="48.6382" lon="7.27887">
        <ele>719.2036133</ele>
        <time>2010-08-08T08:43:36Z</time>
      </trkpt>
      <trkpt lat="48.6381" lon="7.27878">
        <ele>718.7229004</ele>
        <time>2010-08-08T08:43:47Z</time>
      </trkpt>
      <trkpt lat="48.63799" lon="7.27865">
        <ele>722.0874023</ele>
        <time>2010-08-08T08:43:56Z</time>
      </trkpt>
      <trkpt lat="48.63793" lon="7.2786">
        <ele>723.0488281</ele>
        <time>2010-08-08T08:44:00Z</time>
      </trkpt>
      <trkpt lat="48.63786" lon="7.27859">
        <ele>724.4907227</ele>
        <time>2010-08-08T08:44:04Z</time>
      </trkpt>
      <trkpt lat="48.63784" lon="7.27855">
        <ele>725.4519043</ele>
        <time>2010-08-08T08:44:17Z</time>
      </trkpt>
      <trkpt lat="48.63782" lon="7.27854">
        <ele>725.9326172</ele>
        <time>2010-08-08T08:47:10Z</time>
      </trkpt>
      <trkpt lat="48.63781" lon="7.27851">
        <ele>726.4133301</ele>
        <time>2010-08-08T08:49:36Z</time>
      </trkpt>
      <trkpt lat="48.63762" lon="7.27826">
        <ele>727.3747559</ele>
        <time>2010-08-08T08:49:48Z</time>
      </trkpt>
      <trkpt lat="48.63742" lon="7.27804">
        <ele>729.777832</ele>
        <time>2010-08-08T08:49:58Z</time>
      </trkpt>
      <trkpt lat="48.63735" lon="7.27801">
        <ele>729.777832</ele>
        <time>2010-08-08T08:50:02Z</time>
      </trkpt>
      <trkpt lat="48.63715" lon="7.2778">
        <ele>731.7004395</ele>
        <time>2010-08-08T08:50:14Z</time>
      </trkpt>
      <trkpt lat="48.63696" lon="7.27772">
        <ele>732.1813965</ele>
        <time>2010-08-08T08:50:26Z</time>
      </trkpt>
      <trkpt lat="48.63681" lon="7.27766">
        <ele>734.5847168</ele>
        <time>2010-08-08T08:50:36Z</time>
      </trkpt>
      <trkpt lat="48.63669" lon="7.27754">
        <ele>736.987793</ele>
        <time>2010-08-08T08:50:45Z</time>
      </trkpt>
      <trkpt lat="48.63655" lon="7.2774">
        <ele>739.8718262</ele>
        <time>2010-08-08T08:50:53Z</time>
      </trkpt>
      <trkpt lat="48.6363" lon="7.27725">
        <ele>741.7944336</ele>
        <time>2010-08-08T08:51:04Z</time>
      </trkpt>
      <trkpt lat="48.63626" lon="7.27722">
        <ele>742.7558594</ele>
        <time>2010-08-08T08:51:07Z</time>
      </trkpt>
      <trkpt lat="48.6361" lon="7.27705">
        <ele>745.1589355</ele>
        <time>2010-08-08T08:51:18Z</time>
      </trkpt>
      <trkpt lat="48.63596" lon="7.27687">
        <ele>748.0432129</ele>
        <time>2010-08-08T08:51:29Z</time>
      </trkpt>
      <trkpt lat="48.63573" lon="7.27663">
        <ele>751.4077148</ele>
        <time>2010-08-08T08:51:42Z</time>
      </trkpt>
      <trkpt lat="48.63569" lon="7.27659">
        <ele>751.4077148</ele>
        <time>2010-08-08T08:51:44Z</time>
      </trkpt>
      <trkpt lat="48.63522" lon="7.27616">
        <ele>752.8496094</ele>
        <time>2010-08-08T08:51:55Z</time>
      </trkpt>
      <trkpt lat="48.63503" lon="7.27592">
        <ele>753.8110352</ele>
        <time>2010-08-08T08:52:00Z</time>
      </trkpt>
      <trkpt lat="48.63483" lon="7.27556">
        <ele>755.2529297</ele>
        <time>2010-08-08T08:52:05Z</time>
      </trkpt>
      <trkpt lat="48.63475" lon="7.27539">
        <ele>755.2529297</ele>
        <time>2010-08-08T08:52:07Z</time>
      </trkpt>
      <trkpt lat="48.63454" lon="7.2748">
        <ele>754.7722168</ele>
        <time>2010-08-08T08:52:13Z</time>
      </trkpt>
      <trkpt lat="48.63437" lon="7.27416">
        <ele>754.7722168</ele>
        <time>2010-08-08T08:52:19Z</time>
      </trkpt>
      <trkpt lat="48.63417" lon="7.27382">
        <ele>754.7722168</ele>
        <time>2010-08-08T08:52:22Z</time>
      </trkpt>
      <trkpt lat="48.63394" lon="7.27292">
        <ele>755.2529297</ele>
        <time>2010-08-08T08:52:28Z</time>
      </trkpt>
      <trkpt lat="48.63387" lon="7.27226">
        <ele>755.2529297</ele>
        <time>2010-08-08T08:52:35Z</time>
      </trkpt>
      <trkpt lat="48.6338" lon="7.27148">
        <ele>754.291748</ele>
        <time>2010-08-08T08:52:40Z</time>
      </trkpt>
      <trkpt lat="48.63361" lon="7.27045">
        <ele>753.3303223</ele>
        <time>2010-08-08T08:52:48Z</time>
      </trkpt>
      <trkpt lat="48.63358" lon="7.26973">
        <ele>753.3303223</ele>
        <time>2010-08-08T08:52:54Z</time>
      </trkpt>
      <trkpt lat="48.63352" lon="7.26939">
        <ele>752.3688965</ele>
        <time>2010-08-08T08:52:57Z</time>
      </trkpt>
      <trkpt lat="48.63349" lon="7.26892">
        <ele>751.8884277</ele>
        <time>2010-08-08T08:53:01Z</time>
      </trkpt>
      <trkpt lat="48.63342" lon="7.26821">
        <ele>750.4465332</ele>
        <time>2010-08-08T08:53:09Z</time>
      </trkpt>
      <trkpt lat="48.6334" lon="7.26812">
        <ele>750.4465332</ele>
        <time>2010-08-08T08:53:10Z</time>
      </trkpt>
      <trkpt lat="48.63337" lon="7.26777">
        <ele>749.0043945</ele>
        <time>2010-08-08T08:53:14Z</time>
      </trkpt>
      <trkpt lat="48.63335" lon="7.26746">
        <ele>748.5236816</ele>
        <time>2010-08-08T08:53:17Z</time>
      </trkpt>
      <trkpt lat="48.63315" lon="7.26704">
        <ele>747.5622559</ele>
        <time>2010-08-08T08:53:21Z</time>
      </trkpt>
      <trkpt lat="48.6331" lon="7.26669">
        <ele>747.081543</ele>
        <time>2010-08-08T08:53:25Z</time>
      </trkpt>
      <trkpt lat="48.63296" lon="7.26578">
        <ele>745.6396484</ele>
        <time>2010-08-08T08:53:38Z</time>
      </trkpt>
      <trkpt lat="48.63287" lon="7.26496">
        <ele>737.9492188</ele>
        <time>2010-08-08T08:53:54Z</time>
      </trkpt>
      <trkpt lat="48.63287" lon="7.26482">
        <ele>737.4685059</ele>
        <time>2010-08-08T08:54:03Z</time>
      </trkpt>
      <trkpt lat="48.63287" lon="7.26472">
        <ele>736.5073242</ele>
        <time>2010-08-08T08:54:12Z</time>
      </trkpt>
      <trkpt lat="48.63285" lon="7.26462">
        <ele>735.0654297</ele>
        <time>2010-08-08T08:54:16Z</time>
      </trkpt>
      <trkpt lat="48.63281" lon="7.26447">
        <ele>732.6621094</ele>
        <time>2010-08-08T08:54:22Z</time>
      </trkpt>
      <trkpt lat="48.63276" lon="7.26433">
        <ele>729.777832</ele>
        <time>2010-08-08T08:54:25Z</time>
      </trkpt>
      <trkpt lat="48.63259" lon="7.26409">
        <ele>727.3747559</ele>
        <time>2010-08-08T08:54:29Z</time>
      </trkpt>
      <trkpt lat="48.63227" lon="7.26323">
        <ele>722.5681152</ele>
        <time>2010-08-08T08:54:39Z</time>
      </trkpt>
      <trkpt lat="48.63194" lon="7.26215">
        <ele>706.2255859</ele>
        <time>2010-08-08T08:54:52Z</time>
      </trkpt>
      <trkpt lat="48.63181" lon="7.26181">
        <ele>703.3417969</ele>
        <time>2010-08-08T08:54:57Z</time>
      </trkpt>
      <trkpt lat="48.63152" lon="7.26154">
        <ele>699.4963379</ele>
        <time>2010-08-08T08:55:04Z</time>
      </trkpt>
      <trkpt lat="48.63143" lon="7.26149">
        <ele>699.015625</ele>
        <time>2010-08-08T08:55:06Z</time>
      </trkpt>
      <trkpt lat="48.63094" lon="7.26116">
        <ele>697.0930176</ele>
        <time>2010-08-08T08:55:21Z</time>
      </trkpt>
      <trkpt lat="48.63085" lon="7.26114">
        <ele>695.1704102</ele>
        <time>2010-08-08T08:55:33Z</time>
      </trkpt>
      <trkpt lat="48.63084" lon="7.26114">
        <ele>694.6896973</ele>
        <time>2010-08-08T08:56:11Z</time>
      </trkpt>
      <trkpt lat="48.63084" lon="7.26115">
        <ele>694.2092285</ele>
        <time>2010-08-08T09:00:15Z</time>
      </trkpt>
      <trkpt lat="48.63084" lon="7.26115">
        <ele>694.2092285</ele>
        <time>2010-08-08T09:02:30Z</time>
      </trkpt>
      <trkpt lat="48.63078" lon="7.26087">
        <ele>694.6896973</ele>
        <time>2010-08-08T09:02:42Z</time>
      </trkpt>
      <trkpt lat="48.63062" lon="7.26044">
        <ele>694.2092285</ele>
        <time>2010-08-08T09:02:55Z</time>
      </trkpt>
      <trkpt lat="48.63012" lon="7.26001">
        <ele>696.1318359</ele>
        <time>2010-08-08T09:03:15Z</time>
      </trkpt>
      <trkpt lat="48.62978" lon="7.25966">
        <ele>700.4580078</ele>
        <time>2010-08-08T09:03:32Z</time>
      </trkpt>
      <trkpt lat="48.6295" lon="7.25911">
        <ele>704.3032227</ele>
        <time>2010-08-08T09:03:52Z</time>
      </trkpt>
      <trkpt lat="48.62934" lon="7.25874">
        <ele>707.6677246</ele>
        <time>2010-08-08T09:04:08Z</time>
      </trkpt>
      <trkpt lat="48.6292" lon="7.25841">
        <ele>710.5515137</ele>
        <time>2010-08-08T09:04:21Z</time>
      </trkpt>
      <trkpt lat="48.629" lon="7.25792">
        <ele>714.8774414</ele>
        <time>2010-08-08T09:04:42Z</time>
      </trkpt>
      <trkpt lat="48.62892" lon="7.25751">
        <ele>717.2810059</ele>
        <time>2010-08-08T09:04:58Z</time>
      </trkpt>
      <trkpt lat="48.62881" lon="7.25701">
        <ele>721.6066895</ele>
        <time>2010-08-08T09:05:18Z</time>
      </trkpt>
      <trkpt lat="48.62878" lon="7.25688">
        <ele>722.5681152</ele>
        <time>2010-08-08T09:05:23Z</time>
      </trkpt>
      <trkpt lat="48.62867" lon="7.25651">
        <ele>727.3747559</ele>
        <time>2010-08-08T09:05:40Z</time>
      </trkpt>
      <trkpt lat="48.62866" lon="7.25634">
        <ele>729.777832</ele>
        <time>2010-08-08T09:05:52Z</time>
      </trkpt>
      <trkpt lat="48.62859" lon="7.25619">
        <ele>731.2199707</ele>
        <time>2010-08-08T09:06:06Z</time>
      </trkpt>
      <trkpt lat="48.6285" lon="7.25609">
        <ele>734.1040039</ele>
        <time>2010-08-08T09:06:22Z</time>
      </trkpt>
      <trkpt lat="48.6282" lon="7.25603">
        <ele>737.4685059</ele>
        <time>2010-08-08T09:06:42Z</time>
      </trkpt>
      <trkpt lat="48.62796" lon="7.25615">
        <ele>737.9492188</ele>
        <time>2010-08-08T09:06:59Z</time>
      </trkpt>
      <trkpt lat="48.6279" lon="7.25625">
        <ele>740.3525391</ele>
        <time>2010-08-08T09:07:05Z</time>
      </trkpt>
      <trkpt lat="48.62783" lon="7.25633">
        <ele>741.7944336</ele>
        <time>2010-08-08T09:07:17Z</time>
      </trkpt>
      <trkpt lat="48.62781" lon="7.25643">
        <ele>743.2363281</ele>
        <time>2010-08-08T09:07:25Z</time>
      </trkpt>
      <trkpt lat="48.62777" lon="7.25659">
        <ele>745.6396484</ele>
        <time>2010-08-08T09:07:39Z</time>
      </trkpt>
      <trkpt lat="48.62777" lon="7.25661">
        <ele>746.1203613</ele>
        <time>2010-08-08T09:07:40Z</time>
      </trkpt>
      <trkpt lat="48.62774" lon="7.25677">
        <ele>747.5622559</ele>
        <time>2010-08-08T09:07:52Z</time>
      </trkpt>
      <trkpt lat="48.62775" lon="7.25695">
        <ele>748.5236816</ele>
        <time>2010-08-08T09:08:07Z</time>
      </trkpt>
      <trkpt lat="48.62774" lon="7.25711">
        <ele>749.4851074</ele>
        <time>2010-08-08T09:08:16Z</time>
      </trkpt>
      <trkpt lat="48.62773" lon="7.25714">
        <ele>750.4465332</ele>
        <time>2010-08-08T09:08:19Z</time>
      </trkpt>
      <trkpt lat="48.62771" lon="7.25726">
        <ele>750.927002</ele>
        <time>2010-08-08T09:08:36Z</time>
      </trkpt>
      <trkpt lat="48.62762" lon="7.2576">
        <ele>752.8496094</ele>
        <time>2010-08-08T09:08:51Z</time>
      </trkpt>
      <trkpt lat="48.62763" lon="7.25765">
        <ele>753.3303223</ele>
        <time>2010-08-08T09:08:53Z</time>
      </trkpt>
      <trkpt lat="48.62757" lon="7.2582">
        <ele>755.7336426</ele>
        <time>2010-08-08T09:09:14Z</time>
      </trkpt>
      <trkpt lat="48.62745" lon="7.25881">
        <ele>758.1369629</ele>
        <time>2010-08-08T09:09:31Z</time>
      </trkpt>
      <trkpt lat="48.62728" lon="7.25915">
        <ele>760.0593262</ele>
        <time>2010-08-08T09:09:42Z</time>
      </trkpt>
      <trkpt lat="48.62718" lon="7.25936">
        <ele>760.5400391</ele>
        <time>2010-08-08T09:09:50Z</time>
      </trkpt>
      <trkpt lat="48.62707" lon="7.25953">
        <ele>761.9821777</ele>
        <time>2010-08-08T09:10:00Z</time>
      </trkpt>
      <trkpt lat="48.62702" lon="7.25953">
        <ele>761.9821777</ele>
        <time>2010-08-08T09:10:03Z</time>
      </trkpt>
      <trkpt lat="48.62674" lon="7.25981">
        <ele>761.9821777</ele>
        <time>2010-08-08T09:10:19Z</time>
      </trkpt>
      <trkpt lat="48.62657" lon="7.26033">
        <ele>766.7888184</ele>
        <time>2010-08-08T09:10:35Z</time>
      </trkpt>
      <trkpt lat="48.62628" lon="7.26076">
        <ele>771.5952148</ele>
        <time>2010-08-08T09:10:54Z</time>
      </trkpt>
      <trkpt lat="48.6261" lon="7.26099">
        <ele>773.5180664</ele>
        <time>2010-08-08T09:11:05Z</time>
      </trkpt>
      <trkpt lat="48.6259" lon="7.26123">
        <ele>774.9599609</ele>
        <time>2010-08-08T09:11:18Z</time>
      </trkpt>
      <trkpt lat="48.62566" lon="7.2615">
        <ele>777.84375</ele>
        <time>2010-08-08T09:11:33Z</time>
      </trkpt>
      <trkpt lat="48.62528" lon="7.26174">
        <ele>779.2856445</ele>
        <time>2010-08-08T09:11:51Z</time>
      </trkpt>
      <trkpt lat="48.62493" lon="7.26192">
        <ele>781.2087402</ele>
        <time>2010-08-08T09:12:06Z</time>
      </trkpt>
      <trkpt lat="48.62474" lon="7.26212">
        <ele>785.0539551</ele>
        <time>2010-08-08T09:12:17Z</time>
      </trkpt>
      <trkpt lat="48.62441" lon="7.26229">
        <ele>787.4570313</ele>
        <time>2010-08-08T09:12:32Z</time>
      </trkpt>
      <trkpt lat="48.62431" lon="7.26243">
        <ele>788.8991699</ele>
        <time>2010-08-08T09:12:39Z</time>
      </trkpt>
      <trkpt lat="48.62408" lon="7.26279">
        <ele>791.3022461</ele>
        <time>2010-08-08T09:12:56Z</time>
      </trkpt>
      <trkpt lat="48.62381" lon="7.26308">
        <ele>793.7055664</ele>
        <time>2010-08-08T09:13:12Z</time>
      </trkpt>
      <trkpt lat="48.62375" lon="7.26309">
        <ele>794.1862793</ele>
        <time>2010-08-08T09:13:16Z</time>
      </trkpt>
      <trkpt lat="48.62369" lon="7.26307">
        <ele>795.1474609</ele>
        <time>2010-08-08T09:13:20Z</time>
      </trkpt>
      <trkpt lat="48.62367" lon="7.26306">
        <ele>795.1474609</ele>
        <time>2010-08-08T09:13:44Z</time>
      </trkpt>
      <trkpt lat="48.62366" lon="7.26306">
        <ele>796.1091309</ele>
        <time>2010-08-08T09:16:29Z</time>
      </trkpt>
      <trkpt lat="48.6234" lon="7.26282">
        <ele>797.0703125</ele>
        <time>2010-08-08T09:16:44Z</time>
      </trkpt>
      <trkpt lat="48.62299" lon="7.26263">
        <ele>798.512207</ele>
        <time>2010-08-08T09:16:57Z</time>
      </trkpt>
      <trkpt lat="48.62287" lon="7.2626">
        <ele>798.512207</ele>
        <time>2010-08-08T09:17:01Z</time>
      </trkpt>
      <trkpt lat="48.62277" lon="7.26256">
        <ele>797.5510254</ele>
        <time>2010-08-08T09:17:04Z</time>
      </trkpt>
      <trkpt lat="48.6224" lon="7.26257">
        <ele>799.9543457</ele>
        <time>2010-08-08T09:17:16Z</time>
      </trkpt>
      <trkpt lat="48.62194" lon="7.26271">
        <ele>798.9929199</ele>
        <time>2010-08-08T09:17:31Z</time>
      </trkpt>
      <trkpt lat="48.62161" lon="7.26281">
        <ele>795.6281738</ele>
        <time>2010-08-08T09:17:41Z</time>
      </trkpt>
      <trkpt lat="48.62146" lon="7.26291">
        <ele>796.5898438</ele>
        <time>2010-08-08T09:17:46Z</time>
      </trkpt>
      <trkpt lat="48.62137" lon="7.26292">
        <ele>795.1474609</ele>
        <time>2010-08-08T09:17:48Z</time>
      </trkpt>
      <trkpt lat="48.62115" lon="7.26321">
        <ele>797.0703125</ele>
        <time>2010-08-08T09:17:58Z</time>
      </trkpt>
      <trkpt lat="48.621" lon="7.26331">
        <ele>798.0317383</ele>
        <time>2010-08-08T09:18:06Z</time>
      </trkpt>
      <trkpt lat="48.62075" lon="7.26319">
        <ele>797.5510254</ele>
        <time>2010-08-08T09:18:14Z</time>
      </trkpt>
      <trkpt lat="48.62049" lon="7.26317">
        <ele>798.512207</ele>
        <time>2010-08-08T09:18:25Z</time>
      </trkpt>
      <trkpt lat="48.62049" lon="7.26317">
        <ele>798.512207</ele>
        <time>2010-08-08T09:18:32Z</time>
      </trkpt>
      <trkpt lat="48.62042" lon="7.26327">
        <ele>800.4350586</ele>
        <time>2010-08-08T09:18:40Z</time>
      </trkpt>
      <trkpt lat="48.62039" lon="7.26334">
        <ele>801.8769531</ele>
        <time>2010-08-08T09:18:44Z</time>
      </trkpt>
      <trkpt lat="48.6204" lon="7.2634">
        <ele>802.8381348</ele>
        <time>2010-08-08T09:18:47Z</time>
      </trkpt>
      <trkpt lat="48.62045" lon="7.26349">
        <ele>802.8381348</ele>
        <time>2010-08-08T09:18:53Z</time>
      </trkpt>
      <trkpt lat="48.62045" lon="7.26356">
        <ele>802.8381348</ele>
        <time>2010-08-08T09:18:56Z</time>
      </trkpt>
      <trkpt lat="48.62052" lon="7.26366">
        <ele>804.2802734</ele>
        <time>2010-08-08T09:19:06Z</time>
      </trkpt>
      <trkpt lat="48.62054" lon="7.26366">
        <ele>803.7995605</ele>
        <time>2010-08-08T09:19:08Z</time>
      </trkpt>
      <trkpt lat="48.62062" lon="7.26376">
        <ele>803.7995605</ele>
        <time>2010-08-08T09:19:19Z</time>
      </trkpt>
      <trkpt lat="48.62062" lon="7.26377">
        <ele>803.7995605</ele>
        <time>2010-08-08T09:19:25Z</time>
      </trkpt>
      <trkpt lat="48.62064" lon="7.26391">
        <ele>804.7607422</ele>
        <time>2010-08-08T09:19:30Z</time>
      </trkpt>
      <trkpt lat="48.62067" lon="7.26404">
        <ele>803.7995605</ele>
        <time>2010-08-08T09:19:38Z</time>
      </trkpt>
      <trkpt lat="48.62068" lon="7.26403">
        <ele>802.8381348</ele>
        <time>2010-08-08T09:19:51Z</time>
      </trkpt>
      <trkpt lat="48.62065" lon="7.26396">
        <ele>803.3188477</ele>
        <time>2010-08-08T09:25:00Z</time>
      </trkpt>
      <trkpt lat="48.62065" lon="7.2639">
        <ele>803.7995605</ele>
        <time>2010-08-08T09:25:06Z</time>
      </trkpt>
      <trkpt lat="48.62064" lon="7.26386">
        <ele>803.3188477</ele>
        <time>2010-08-08T09:25:08Z</time>
      </trkpt>
      <trkpt lat="48.62063" lon="7.26374">
        <ele>803.7995605</ele>
        <time>2010-08-08T09:25:12Z</time>
      </trkpt>
      <trkpt lat="48.62073" lon="7.26358">
        <ele>802.8381348</ele>
        <time>2010-08-08T09:25:21Z</time>
      </trkpt>
      <trkpt lat="48.62079" lon="7.26338">
        <ele>802.3574219</ele>
        <time>2010-08-08T09:25:27Z</time>
      </trkpt>
      <trkpt lat="48.62082" lon="7.26333">
        <ele>802.3574219</ele>
        <time>2010-08-08T09:25:29Z</time>
      </trkpt>
      <trkpt lat="48.62083" lon="7.26326">
        <ele>801.8769531</ele>
        <time>2010-08-08T09:25:31Z</time>
      </trkpt>
      <trkpt lat="48.62079" lon="7.26321">
        <ele>801.8769531</ele>
        <time>2010-08-08T09:25:38Z</time>
      </trkpt>
      <trkpt lat="48.62041" lon="7.26316">
        <ele>801.8769531</ele>
        <time>2010-08-08T09:25:52Z</time>
      </trkpt>
      <trkpt lat="48.62034" lon="7.26314">
        <ele>802.3574219</ele>
        <time>2010-08-08T09:25:54Z</time>
      </trkpt>
      <trkpt lat="48.6202" lon="7.26308">
        <ele>802.8381348</ele>
        <time>2010-08-08T09:25:58Z</time>
      </trkpt>
      <trkpt lat="48.62005" lon="7.26289">
        <ele>801.3962402</ele>
        <time>2010-08-08T09:26:04Z</time>
      </trkpt>
      <trkpt lat="48.61996" lon="7.26264">
        <ele>801.3962402</ele>
        <time>2010-08-08T09:26:10Z</time>
      </trkpt>
      <trkpt lat="48.61973" lon="7.26249">
        <ele>799.9543457</ele>
        <time>2010-08-08T09:26:16Z</time>
      </trkpt>
      <trkpt lat="48.61931" lon="7.26219">
        <ele>793.7055664</ele>
        <time>2010-08-08T09:26:26Z</time>
      </trkpt>
      <trkpt lat="48.61909" lon="7.26195">
        <ele>789.3796387</ele>
        <time>2010-08-08T09:26:34Z</time>
      </trkpt>
      <trkpt lat="48.61906" lon="7.26189">
        <ele>787.9377441</ele>
        <time>2010-08-08T09:26:37Z</time>
      </trkpt>
      <trkpt lat="48.61892" lon="7.26171">
        <ele>785.0539551</ele>
        <time>2010-08-08T09:26:46Z</time>
      </trkpt>
      <trkpt lat="48.6189" lon="7.26169">
        <ele>785.5344238</ele>
        <time>2010-08-08T09:26:50Z</time>
      </trkpt>
      <trkpt lat="48.61886" lon="7.26175">
        <ele>786.0151367</ele>
        <time>2010-08-08T09:26:54Z</time>
      </trkpt>
      <trkpt lat="48.61883" lon="7.26176">
        <ele>786.4958496</ele>
        <time>2010-08-08T09:26:56Z</time>
      </trkpt>
      <trkpt lat="48.6188" lon="7.26178">
        <ele>786.4958496</ele>
        <time>2010-08-08T09:26:58Z</time>
      </trkpt>
      <trkpt lat="48.61871" lon="7.26208">
        <ele>786.0151367</ele>
        <time>2010-08-08T09:27:05Z</time>
      </trkpt>
      <trkpt lat="48.61869" lon="7.26234">
        <ele>785.5344238</ele>
        <time>2010-08-08T09:27:11Z</time>
      </trkpt>
      <trkpt lat="48.6186" lon="7.26227">
        <ele>785.5344238</ele>
        <time>2010-08-08T09:27:17Z</time>
      </trkpt>
      <trkpt lat="48.61857" lon="7.26223">
        <ele>785.0539551</ele>
        <time>2010-08-08T09:27:24Z</time>
      </trkpt>
      <trkpt lat="48.6184" lon="7.26231">
        <ele>782.6506348</ele>
        <time>2010-08-08T09:27:30Z</time>
      </trkpt>
      <trkpt lat="48.61837" lon="7.26223">
        <ele>781.2087402</ele>
        <time>2010-08-08T09:27:50Z</time>
      </trkpt>
      <trkpt lat="48.61837" lon="7.26223">
        <ele>781.2087402</ele>
        <time>2010-08-08T09:28:15Z</time>
      </trkpt>
      <trkpt lat="48.61834" lon="7.26215">
        <ele>781.2087402</ele>
        <time>2010-08-08T09:28:20Z</time>
      </trkpt>
      <trkpt lat="48.618" lon="7.26162">
        <ele>779.7663574</ele>
        <time>2010-08-08T09:28:31Z</time>
      </trkpt>
      <trkpt lat="48.61763" lon="7.26103">
        <ele>779.2856445</ele>
        <time>2010-08-08T09:28:37Z</time>
      </trkpt>
      <trkpt lat="48.61723" lon="7.26037">
        <ele>779.7663574</ele>
        <time>2010-08-08T09:28:44Z</time>
      </trkpt>
      <trkpt lat="48.61677" lon="7.25998">
        <ele>782.6506348</ele>
        <time>2010-08-08T09:28:54Z</time>
      </trkpt>
      <trkpt lat="48.61636" lon="7.25988">
        <ele>782.1699219</ele>
        <time>2010-08-08T09:29:02Z</time>
      </trkpt>
      <trkpt lat="48.61587" lon="7.25968">
        <ele>784.0925293</ele>
        <time>2010-08-08T09:29:10Z</time>
      </trkpt>
      <trkpt lat="48.61564" lon="7.25959">
        <ele>784.0925293</ele>
        <time>2010-08-08T09:29:13Z</time>
      </trkpt>
      <trkpt lat="48.61512" lon="7.25925">
        <ele>782.6506348</ele>
        <time>2010-08-08T09:29:24Z</time>
      </trkpt>
      <trkpt lat="48.61466" lon="7.25894">
        <ele>773.5180664</ele>
        <time>2010-08-08T09:29:36Z</time>
      </trkpt>
      <trkpt lat="48.61459" lon="7.25894">
        <ele>770.6340332</ele>
        <time>2010-08-08T09:29:39Z</time>
      </trkpt>
      <trkpt lat="48.61455" lon="7.25917">
        <ele>767.2695313</ele>
        <time>2010-08-08T09:29:44Z</time>
      </trkpt>
      <trkpt lat="48.61456" lon="7.2595">
        <ele>763.4240723</ele>
        <time>2010-08-08T09:29:47Z</time>
      </trkpt>
      <trkpt lat="48.6145" lon="7.2598">
        <ele>761.5014648</ele>
        <time>2010-08-08T09:29:50Z</time>
      </trkpt>
      <trkpt lat="48.6143" lon="7.26004">
        <ele>759.5788574</ele>
        <time>2010-08-08T09:29:54Z</time>
      </trkpt>
      <trkpt lat="48.61413" lon="7.26038">
        <ele>756.6948242</ele>
        <time>2010-08-08T09:29:59Z</time>
      </trkpt>
      <trkpt lat="48.61406" lon="7.26054">
        <ele>754.7722168</ele>
        <time>2010-08-08T09:30:02Z</time>
      </trkpt>
      <trkpt lat="48.61404" lon="7.26083">
        <ele>751.8884277</ele>
        <time>2010-08-08T09:30:06Z</time>
      </trkpt>
      <trkpt lat="48.61406" lon="7.26164">
        <ele>742.2751465</ele>
        <time>2010-08-08T09:30:15Z</time>
      </trkpt>
      <trkpt lat="48.61405" lon="7.2619">
        <ele>737.9492188</ele>
        <time>2010-08-08T09:30:19Z</time>
      </trkpt>
      <trkpt lat="48.61443" lon="7.26261">
        <ele>728.3359375</ele>
        <time>2010-08-08T09:30:28Z</time>
      </trkpt>
      <trkpt lat="48.61448" lon="7.26263">
        <ele>725.4519043</ele>
        <time>2010-08-08T09:30:30Z</time>
      </trkpt>
      <trkpt lat="48.61475" lon="7.26217">
        <ele>722.0874023</ele>
        <time>2010-08-08T09:30:41Z</time>
      </trkpt>
      <trkpt lat="48.6148" lon="7.26209">
        <ele>721.6066895</ele>
        <time>2010-08-08T09:30:43Z</time>
      </trkpt>
      <trkpt lat="48.61504" lon="7.26236">
        <ele>713.4355469</ele>
        <time>2010-08-08T09:30:52Z</time>
      </trkpt>
      <trkpt lat="48.61506" lon="7.26239">
        <ele>712.4741211</ele>
        <time>2010-08-08T09:30:53Z</time>
      </trkpt>
      <trkpt lat="48.61494" lon="7.26263">
        <ele>710.5515137</ele>
        <time>2010-08-08T09:31:01Z</time>
      </trkpt>
      <trkpt lat="48.61488" lon="7.2627">
        <ele>708.6289063</ele>
        <time>2010-08-08T09:31:05Z</time>
      </trkpt>
      <trkpt lat="48.61484" lon="7.26294">
        <ele>707.6677246</ele>
        <time>2010-08-08T09:31:10Z</time>
      </trkpt>
      <trkpt lat="48.61481" lon="7.26312">
        <ele>705.2644043</ele>
        <time>2010-08-08T09:31:14Z</time>
      </trkpt>
      <trkpt lat="48.61474" lon="7.2635">
        <ele>700.4580078</ele>
        <time>2010-08-08T09:31:24Z</time>
      </trkpt>
      <trkpt lat="48.61478" lon="7.26383">
        <ele>699.015625</ele>
        <time>2010-08-08T09:31:29Z</time>
      </trkpt>
      <trkpt lat="48.61477" lon="7.26401">
        <ele>697.0930176</ele>
        <time>2010-08-08T09:31:32Z</time>
      </trkpt>
      <trkpt lat="48.61484" lon="7.26418">
        <ele>696.1318359</ele>
        <time>2010-08-08T09:31:34Z</time>
      </trkpt>
      <trkpt lat="48.6149" lon="7.26481">
        <ele>694.2092285</ele>
        <time>2010-08-08T09:31:43Z</time>
      </trkpt>
      <trkpt lat="48.61492" lon="7.26509">
        <ele>694.2092285</ele>
        <time>2010-08-08T09:31:47Z</time>
      </trkpt>
      <trkpt lat="48.61503" lon="7.26574">
        <ele>692.2866211</ele>
        <time>2010-08-08T09:31:54Z</time>
      </trkpt>
      <trkpt lat="48.61511" lon="7.266">
        <ele>694.2092285</ele>
        <time>2010-08-08T09:31:57Z</time>
      </trkpt>
      <trkpt lat="48.61513" lon="7.26645">
        <ele>689.8833008</ele>
        <time>2010-08-08T09:32:02Z</time>
      </trkpt>
      <trkpt lat="48.61503" lon="7.26667">
        <ele>687.4799805</ele>
        <time>2010-08-08T09:32:07Z</time>
      </trkpt>
      <trkpt lat="48.61469" lon="7.26659">
        <ele>681.7119141</ele>
        <time>2010-08-08T09:32:17Z</time>
      </trkpt>
      <trkpt lat="48.61438" lon="7.26655">
        <ele>678.3474121</ele>
        <time>2010-08-08T09:32:25Z</time>
      </trkpt>
      <trkpt lat="48.61403" lon="7.26653">
        <ele>673.5410156</ele>
        <time>2010-08-08T09:32:37Z</time>
      </trkpt>
      <trkpt lat="48.61379" lon="7.26667">
        <ele>670.6569824</ele>
        <time>2010-08-08T09:32:45Z</time>
      </trkpt>
      <trkpt lat="48.61375" lon="7.26669">
        <ele>670.1762695</ele>
        <time>2010-08-08T09:32:46Z</time>
      </trkpt>
      <trkpt lat="48.61367" lon="7.2668">
        <ele>668.734375</ele>
        <time>2010-08-08T09:32:51Z</time>
      </trkpt>
      <trkpt lat="48.61353" lon="7.26708">
        <ele>666.3308105</ele>
        <time>2010-08-08T09:32:59Z</time>
      </trkpt>
      <trkpt lat="48.61328" lon="7.26741">
        <ele>663.9274902</ele>
        <time>2010-08-08T09:33:07Z</time>
      </trkpt>
      <trkpt lat="48.61316" lon="7.26791">
        <ele>660.5629883</ele>
        <time>2010-08-08T09:33:18Z</time>
      </trkpt>
      <trkpt lat="48.61314" lon="7.26799">
        <ele>659.6018066</ele>
        <time>2010-08-08T09:33:19Z</time>
      </trkpt>
      <trkpt lat="48.61286" lon="7.26871">
        <ele>652.3918457</ele>
        <time>2010-08-08T09:33:30Z</time>
      </trkpt>
      <trkpt lat="48.61231" lon="7.26904">
        <ele>639.8947754</ele>
        <time>2010-08-08T09:33:42Z</time>
      </trkpt>
      <trkpt lat="48.61218" lon="7.26902">
        <ele>637.0107422</ele>
        <time>2010-08-08T09:33:45Z</time>
      </trkpt>
      <trkpt lat="48.61183" lon="7.26884">
        <ele>630.2814941</ele>
        <time>2010-08-08T09:33:55Z</time>
      </trkpt>
      <trkpt lat="48.61179" lon="7.26883">
        <ele>627.3977051</ele>
        <time>2010-08-08T09:33:59Z</time>
      </trkpt>
      <trkpt lat="48.61175" lon="7.2688">
        <ele>625.9555664</ele>
        <time>2010-08-08T09:34:04Z</time>
      </trkpt>
      <trkpt lat="48.61162" lon="7.26875">
        <ele>624.032959</ele>
        <time>2010-08-08T09:34:12Z</time>
      </trkpt>
      <trkpt lat="48.61157" lon="7.26874">
        <ele>623.0717773</ele>
        <time>2010-08-08T09:34:20Z</time>
      </trkpt>
      <trkpt lat="48.61139" lon="7.26862">
        <ele>623.0717773</ele>
        <time>2010-08-08T09:34:28Z</time>
      </trkpt>
      <trkpt lat="48.61117" lon="7.26848">
        <ele>623.0717773</ele>
        <time>2010-08-08T09:34:48Z</time>
      </trkpt>
      <trkpt lat="48.61102" lon="7.26836">
        <ele>624.032959</ele>
        <time>2010-08-08T09:34:56Z</time>
      </trkpt>
      <trkpt lat="48.61098" lon="7.26834">
        <ele>624.032959</ele>
        <time>2010-08-08T09:34:58Z</time>
      </trkpt>
      <trkpt lat="48.61089" lon="7.26824">
        <ele>624.9943848</ele>
        <time>2010-08-08T09:35:12Z</time>
      </trkpt>
      <trkpt lat="48.61072" lon="7.26815">
        <ele>626.4362793</ele>
        <time>2010-08-08T09:35:30Z</time>
      </trkpt>
      <trkpt lat="48.61062" lon="7.2681">
        <ele>627.3977051</ele>
        <time>2010-08-08T09:35:46Z</time>
      </trkpt>
      <trkpt lat="48.61058" lon="7.2681">
        <ele>627.3977051</ele>
        <time>2010-08-08T09:35:48Z</time>
      </trkpt>
      <trkpt lat="48.6105" lon="7.2681">
        <ele>627.8781738</ele>
        <time>2010-08-08T09:35:56Z</time>
      </trkpt>
      <trkpt lat="48.61017" lon="7.26804">
        <ele>627.8781738</ele>
        <time>2010-08-08T09:36:06Z</time>
      </trkpt>
      <trkpt lat="48.61015" lon="7.26804">
        <ele>627.8781738</ele>
        <time>2010-08-08T09:36:07Z</time>
      </trkpt>
      <trkpt lat="48.60986" lon="7.26818">
        <ele>627.8781738</ele>
        <time>2010-08-08T09:36:19Z</time>
      </trkpt>
      <trkpt lat="48.60978" lon="7.26824">
        <ele>628.3588867</ele>
        <time>2010-08-08T09:36:28Z</time>
      </trkpt>
      <trkpt lat="48.60978" lon="7.26826">
        <ele>629.8007813</ele>
        <time>2010-08-08T09:36:32Z</time>
      </trkpt>
      <trkpt lat="48.60976" lon="7.26834">
        <ele>627.3977051</ele>
        <time>2010-08-08T09:36:40Z</time>
      </trkpt>
      <trkpt lat="48.60969" lon="7.26834">
        <ele>627.3977051</ele>
        <time>2010-08-08T09:36:51Z</time>
      </trkpt>
      <trkpt lat="48.60969" lon="7.26834">
        <ele>627.3977051</ele>
        <time>2010-08-08T09:38:19Z</time>
      </trkpt>
      <trkpt lat="48.60969" lon="7.26835">
        <ele>627.3977051</ele>
        <time>2010-08-08T09:39:31Z</time>
      </trkpt>
      <trkpt lat="48.60991" lon="7.26859">
        <ele>628.8395996</ele>
        <time>2010-08-08T09:39:40Z</time>
      </trkpt>
      <trkpt lat="48.61017" lon="7.26886">
        <ele>631.2429199</ele>
        <time>2010-08-08T09:39:48Z</time>
      </trkpt>
      <trkpt lat="48.61026" lon="7.26895">
        <ele>631.7233887</ele>
        <time>2010-08-08T09:39:52Z</time>
      </trkpt>
      <trkpt lat="48.61022" lon="7.26903">
        <ele>632.2041016</ele>
        <time>2010-08-08T09:39:58Z</time>
      </trkpt>
      <trkpt lat="48.61014" lon="7.26896">
        <ele>633.1652832</ele>
        <time>2010-08-08T09:40:02Z</time>
      </trkpt>
      <trkpt lat="48.60994" lon="7.2689">
        <ele>636.0495605</ele>
        <time>2010-08-08T09:40:13Z</time>
      </trkpt>
      <trkpt lat="48.60981" lon="7.26884">
        <ele>637.4914551</ele>
        <time>2010-08-08T09:40:19Z</time>
      </trkpt>
      <trkpt lat="48.60957" lon="7.26876">
        <ele>646.1433105</ele>
        <time>2010-08-08T09:40:32Z</time>
      </trkpt>
      <trkpt lat="48.60927" lon="7.26875">
        <ele>644.2207031</ele>
        <time>2010-08-08T09:40:44Z</time>
      </trkpt>
      <trkpt lat="48.60912" lon="7.26875">
        <ele>643.2592773</ele>
        <time>2010-08-08T09:40:50Z</time>
      </trkpt>
      <trkpt lat="48.60886" lon="7.26884">
        <ele>644.2207031</ele>
        <time>2010-08-08T09:41:00Z</time>
      </trkpt>
      <trkpt lat="48.60872" lon="7.26896">
        <ele>645.6625977</ele>
        <time>2010-08-08T09:41:06Z</time>
      </trkpt>
      <trkpt lat="48.60852" lon="7.2691">
        <ele>646.6240234</ele>
        <time>2010-08-08T09:41:14Z</time>
      </trkpt>
      <trkpt lat="48.60843" lon="7.26917">
        <ele>647.5852051</ele>
        <time>2010-08-08T09:41:18Z</time>
      </trkpt>
      <trkpt lat="48.60802" lon="7.26957">
        <ele>650.4692383</ele>
        <time>2010-08-08T09:41:35Z</time>
      </trkpt>
      <trkpt lat="48.60758" lon="7.26987">
        <ele>652.8725586</ele>
        <time>2010-08-08T09:41:51Z</time>
      </trkpt>
      <trkpt lat="48.60746" lon="7.26952">
        <ele>653.3532715</ele>
        <time>2010-08-08T09:42:00Z</time>
      </trkpt>
      <trkpt lat="48.60772" lon="7.26884">
        <ele>655.7565918</ele>
        <time>2010-08-08T09:42:16Z</time>
      </trkpt>
      <trkpt lat="48.60784" lon="7.26847">
        <ele>657.1984863</ele>
        <time>2010-08-08T09:42:24Z</time>
      </trkpt>
      <trkpt lat="48.60792" lon="7.26839">
        <ele>658.1599121</ele>
        <time>2010-08-08T09:42:27Z</time>
      </trkpt>
      <trkpt lat="48.60801" lon="7.26818">
        <ele>660.0822754</ele>
        <time>2010-08-08T09:42:32Z</time>
      </trkpt>
      <trkpt lat="48.60825" lon="7.26768">
        <ele>663.4470215</ele>
        <time>2010-08-08T09:42:45Z</time>
      </trkpt>
      <trkpt lat="48.60829" lon="7.26761">
        <ele>664.4082031</ele>
        <time>2010-08-08T09:42:47Z</time>
      </trkpt>
      <trkpt lat="48.60836" lon="7.26744">
        <ele>668.734375</ele>
        <time>2010-08-08T09:42:52Z</time>
      </trkpt>
      <trkpt lat="48.60833" lon="7.26705">
        <ele>679.7893066</ele>
        <time>2010-08-08T09:43:04Z</time>
      </trkpt>
      <trkpt lat="48.6081" lon="7.26655">
        <ele>690.8444824</ele>
        <time>2010-08-08T09:43:18Z</time>
      </trkpt>
      <trkpt lat="48.60799" lon="7.26633">
        <ele>693.2478027</ele>
        <time>2010-08-08T09:43:25Z</time>
      </trkpt>
      <trkpt lat="48.60779" lon="7.26594">
        <ele>696.1318359</ele>
        <time>2010-08-08T09:43:37Z</time>
      </trkpt>
      <trkpt lat="48.60757" lon="7.26563">
        <ele>698.5349121</ele>
        <time>2010-08-08T09:43:48Z</time>
      </trkpt>
      <trkpt lat="48.60739" lon="7.26537">
        <ele>700.9384766</ele>
        <time>2010-08-08T09:44:00Z</time>
      </trkpt>
      <trkpt lat="48.60732" lon="7.26531">
        <ele>701.4191895</ele>
        <time>2010-08-08T09:44:04Z</time>
      </trkpt>
      <trkpt lat="48.60715" lon="7.26512">
        <ele>701.8999023</ele>
        <time>2010-08-08T09:44:16Z</time>
      </trkpt>
      <trkpt lat="48.60715" lon="7.26515">
        <ele>701.8999023</ele>
        <time>2010-08-08T09:44:20Z</time>
      </trkpt>
      <trkpt lat="48.60716" lon="7.2651">
        <ele>702.3803711</ele>
        <time>2010-08-08T09:44:26Z</time>
      </trkpt>
      <trkpt lat="48.60713" lon="7.26509">
        <ele>702.861084</ele>
        <time>2010-08-08T09:44:28Z</time>
      </trkpt>
      <trkpt lat="48.6071" lon="7.26504">
        <ele>701.8999023</ele>
        <time>2010-08-08T09:44:33Z</time>
      </trkpt>
      <trkpt lat="48.60698" lon="7.26498">
        <ele>700.9384766</ele>
        <time>2010-08-08T09:44:44Z</time>
      </trkpt>
      <trkpt lat="48.60693" lon="7.26494">
        <ele>701.8999023</ele>
        <time>2010-08-08T09:44:49Z</time>
      </trkpt>
      <trkpt lat="48.60677" lon="7.26479">
        <ele>702.3803711</ele>
        <time>2010-08-08T09:45:00Z</time>
      </trkpt>
      <trkpt lat="48.60662" lon="7.26473">
        <ele>702.3803711</ele>
        <time>2010-08-08T09:45:12Z</time>
      </trkpt>
      <trkpt lat="48.60648" lon="7.26462">
        <ele>701.8999023</ele>
        <time>2010-08-08T09:45:19Z</time>
      </trkpt>
      <trkpt lat="48.60635" lon="7.2645">
        <ele>702.3803711</ele>
        <time>2010-08-08T09:45:28Z</time>
      </trkpt>
      <trkpt lat="48.60618" lon="7.26441">
        <ele>704.7836914</ele>
        <time>2010-08-08T09:45:38Z</time>
      </trkpt>
      <trkpt lat="48.606" lon="7.26428">
        <ele>705.7451172</ele>
        <time>2010-08-08T09:45:49Z</time>
      </trkpt>
      <trkpt lat="48.60581" lon="7.26415">
        <ele>707.6677246</ele>
        <time>2010-08-08T09:46:00Z</time>
      </trkpt>
      <trkpt lat="48.6056" lon="7.26406">
        <ele>713.4355469</ele>
        <time>2010-08-08T09:46:11Z</time>
      </trkpt>
      <trkpt lat="48.60542" lon="7.26398">
        <ele>715.8388672</ele>
        <time>2010-08-08T09:46:21Z</time>
      </trkpt>
      <trkpt lat="48.60523" lon="7.26389">
        <ele>717.7614746</ele>
        <time>2010-08-08T09:46:31Z</time>
      </trkpt>
      <trkpt lat="48.60504" lon="7.26379">
        <ele>717.2810059</ele>
        <time>2010-08-08T09:46:41Z</time>
      </trkpt>
      <trkpt lat="48.60487" lon="7.26372">
        <ele>718.7229004</ele>
        <time>2010-08-08T09:46:49Z</time>
      </trkpt>
      <trkpt lat="48.60468" lon="7.26363">
        <ele>724.4907227</ele>
        <time>2010-08-08T09:46:59Z</time>
      </trkpt>
      <trkpt lat="48.60463" lon="7.26362">
        <ele>724.4907227</ele>
        <time>2010-08-08T09:47:02Z</time>
      </trkpt>
      <trkpt lat="48.60458" lon="7.26364">
        <ele>725.4519043</ele>
        <time>2010-08-08T09:47:07Z</time>
      </trkpt>
      <trkpt lat="48.60439" lon="7.26365">
        <ele>725.9326172</ele>
        <time>2010-08-08T09:47:18Z</time>
      </trkpt>
      <trkpt lat="48.60417" lon="7.26366">
        <ele>730.2585449</ele>
        <time>2010-08-08T09:47:31Z</time>
      </trkpt>
      <trkpt lat="48.60413" lon="7.26378">
        <ele>731.7004395</ele>
        <time>2010-08-08T09:47:36Z</time>
      </trkpt>
      <trkpt lat="48.60409" lon="7.26377">
        <ele>732.1813965</ele>
        <time>2010-08-08T09:47:38Z</time>
      </trkpt>
      <trkpt lat="48.60391" lon="7.26381">
        <ele>731.2199707</ele>
        <time>2010-08-08T09:47:48Z</time>
      </trkpt>
      <trkpt lat="48.60388" lon="7.26384">
        <ele>731.2199707</ele>
        <time>2010-08-08T09:47:50Z</time>
      </trkpt>
      <trkpt lat="48.60385" lon="7.26386">
        <ele>730.2585449</ele>
        <time>2010-08-08T09:47:52Z</time>
      </trkpt>
      <trkpt lat="48.60348" lon="7.26383">
        <ele>729.777832</ele>
        <time>2010-08-08T09:48:04Z</time>
      </trkpt>
      <trkpt lat="48.60321" lon="7.26378">
        <ele>729.2971191</ele>
        <time>2010-08-08T09:48:15Z</time>
      </trkpt>
      <trkpt lat="48.60314" lon="7.26371">
        <ele>728.8166504</ele>
        <time>2010-08-08T09:48:19Z</time>
      </trkpt>
      <trkpt lat="48.60309" lon="7.26362">
        <ele>729.2971191</ele>
        <time>2010-08-08T09:48:23Z</time>
      </trkpt>
      <trkpt lat="48.60323" lon="7.26321">
        <ele>732.6621094</ele>
        <time>2010-08-08T09:48:38Z</time>
      </trkpt>
      <trkpt lat="48.60341" lon="7.26296">
        <ele>735.5458984</ele>
        <time>2010-08-08T09:48:48Z</time>
      </trkpt>
      <trkpt lat="48.60348" lon="7.26239">
        <ele>737.9492188</ele>
        <time>2010-08-08T09:49:04Z</time>
      </trkpt>
      <trkpt lat="48.60338" lon="7.26201">
        <ele>739.3911133</ele>
        <time>2010-08-08T09:49:16Z</time>
      </trkpt>
      <trkpt lat="48.60315" lon="7.26137">
        <ele>738.9106445</ele>
        <time>2010-08-08T09:49:35Z</time>
      </trkpt>
      <trkpt lat="48.60297" lon="7.26096">
        <ele>741.3137207</ele>
        <time>2010-08-08T09:49:49Z</time>
      </trkpt>
      <trkpt lat="48.60278" lon="7.26054">
        <ele>746.1203613</ele>
        <time>2010-08-08T09:50:04Z</time>
      </trkpt>
      <trkpt lat="48.60265" lon="7.26014">
        <ele>752.3688965</ele>
        <time>2010-08-08T09:50:16Z</time>
      </trkpt>
      <trkpt lat="48.60256" lon="7.25985">
        <ele>756.2141113</ele>
        <time>2010-08-08T09:50:24Z</time>
      </trkpt>
      <trkpt lat="48.6024" lon="7.25949">
        <ele>758.1369629</ele>
        <time>2010-08-08T09:50:36Z</time>
      </trkpt>
      <trkpt lat="48.6022" lon="7.25904">
        <ele>757.65625</ele>
        <time>2010-08-08T09:50:52Z</time>
      </trkpt>
      <trkpt lat="48.60185" lon="7.25851">
        <ele>757.1755371</ele>
        <time>2010-08-08T09:51:12Z</time>
      </trkpt>
      <trkpt lat="48.60154" lon="7.2582">
        <ele>758.6174316</ele>
        <time>2010-08-08T09:51:28Z</time>
      </trkpt>
      <trkpt lat="48.60118" lon="7.25782">
        <ele>755.2529297</ele>
        <time>2010-08-08T09:51:45Z</time>
      </trkpt>
      <trkpt lat="48.60089" lon="7.25743">
        <ele>756.2141113</ele>
        <time>2010-08-08T09:52:02Z</time>
      </trkpt>
      <trkpt lat="48.60047" lon="7.25711">
        <ele>757.65625</ele>
        <time>2010-08-08T09:52:24Z</time>
      </trkpt>
      <trkpt lat="48.60045" lon="7.25708">
        <ele>757.1755371</ele>
        <time>2010-08-08T09:52:41Z</time>
      </trkpt>
      <trkpt lat="48.60045" lon="7.25694">
        <ele>758.1369629</ele>
        <time>2010-08-08T09:53:46Z</time>
      </trkpt>
      <trkpt lat="48.60043" lon="7.25692">
        <ele>757.65625</ele>
        <time>2010-08-08T09:56:36Z</time>
      </trkpt>
      <trkpt lat="48.60029" lon="7.25675">
        <ele>753.3303223</ele>
        <time>2010-08-08T09:56:48Z</time>
      </trkpt>
      <trkpt lat="48.60029" lon="7.25675">
        <ele>753.3303223</ele>
        <time>2010-08-08T09:56:51Z</time>
      </trkpt>
      <trkpt lat="48.60036" lon="7.25685">
        <ele>760.0593262</ele>
        <time>2010-08-08T12:02:33Z</time>
      </trkpt>
      <trkpt lat="48.60035" lon="7.25684">
        <ele>755.7336426</ele>
        <time>2010-08-08T12:02:43Z</time>
      </trkpt>
      <trkpt lat="48.60036" lon="7.25684">
        <ele>754.291748</ele>
        <time>2010-08-08T12:02:48Z</time>
      </trkpt>
      <trkpt lat="48.60039" lon="7.25686">
        <ele>752.3688965</ele>
        <time>2010-08-08T12:02:53Z</time>
      </trkpt>
      <trkpt lat="48.60045" lon="7.25708">
        <ele>754.7722168</ele>
        <time>2010-08-08T12:03:05Z</time>
      </trkpt>
      <trkpt lat="48.60043" lon="7.25714">
        <ele>754.7722168</ele>
        <time>2010-08-08T12:03:09Z</time>
      </trkpt>
      <trkpt lat="48.6004" lon="7.25715">
        <ele>754.291748</ele>
        <time>2010-08-08T12:03:11Z</time>
      </trkpt>
      <trkpt lat="48.60027" lon="7.25706">
        <ele>754.291748</ele>
        <time>2010-08-08T12:03:20Z</time>
      </trkpt>
      <trkpt lat="48.60015" lon="7.25703">
        <ele>759.0981445</ele>
        <time>2010-08-08T12:03:30Z</time>
      </trkpt>
      <trkpt lat="48.59996" lon="7.2569">
        <ele>761.5014648</ele>
        <time>2010-08-08T12:03:44Z</time>
      </trkpt>
      <trkpt lat="48.59964" lon="7.25679">
        <ele>763.4240723</ele>
        <time>2010-08-08T12:03:54Z</time>
      </trkpt>
      <trkpt lat="48.5992" lon="7.25681">
        <ele>762.4626465</ele>
        <time>2010-08-08T12:04:09Z</time>
      </trkpt>
      <trkpt lat="48.59872" lon="7.25698">
        <ele>764.8662109</ele>
        <time>2010-08-08T12:04:27Z</time>
      </trkpt>
      <trkpt lat="48.5983" lon="7.25701">
        <ele>768.2307129</ele>
        <time>2010-08-08T12:04:43Z</time>
      </trkpt>
      <trkpt lat="48.59813" lon="7.25702">
        <ele>768.7114258</ele>
        <time>2010-08-08T12:04:51Z</time>
      </trkpt>
      <trkpt lat="48.59781" lon="7.25693">
        <ele>768.7114258</ele>
        <time>2010-08-08T12:05:05Z</time>
      </trkpt>
      <trkpt lat="48.59737" lon="7.25694">
        <ele>773.0373535</ele>
        <time>2010-08-08T12:05:24Z</time>
      </trkpt>
      <trkpt lat="48.59713" lon="7.25662">
        <ele>773.5180664</ele>
        <time>2010-08-08T12:05:38Z</time>
      </trkpt>
      <trkpt lat="48.59752" lon="7.25624">
        <ele>773.9985352</ele>
        <time>2010-08-08T12:05:52Z</time>
      </trkpt>
      <trkpt lat="48.59792" lon="7.25604">
        <ele>775.4404297</ele>
        <time>2010-08-08T12:06:04Z</time>
      </trkpt>
      <trkpt lat="48.59836" lon="7.2557">
        <ele>775.4404297</ele>
        <time>2010-08-08T12:06:18Z</time>
      </trkpt>
      <trkpt lat="48.59843" lon="7.25565">
        <ele>774.479248</ele>
        <time>2010-08-08T12:06:20Z</time>
      </trkpt>
      <trkpt lat="48.59854" lon="7.25559">
        <ele>774.479248</ele>
        <time>2010-08-08T12:06:23Z</time>
      </trkpt>
      <trkpt lat="48.59894" lon="7.25532">
        <ele>775.4404297</ele>
        <time>2010-08-08T12:06:36Z</time>
      </trkpt>
      <trkpt lat="48.59916" lon="7.25524">
        <ele>778.8051758</ele>
        <time>2010-08-08T12:06:42Z</time>
      </trkpt>
      <trkpt lat="48.59952" lon="7.25507">
        <ele>781.689209</ele>
        <time>2010-08-08T12:06:55Z</time>
      </trkpt>
      <trkpt lat="48.59965" lon="7.255">
        <ele>783.6118164</ele>
        <time>2010-08-08T12:07:00Z</time>
      </trkpt>
      <trkpt lat="48.59978" lon="7.25489">
        <ele>783.6118164</ele>
        <time>2010-08-08T12:07:08Z</time>
      </trkpt>
      <trkpt lat="48.60011" lon="7.25487">
        <ele>783.6118164</ele>
        <time>2010-08-08T12:07:18Z</time>
      </trkpt>
      <trkpt lat="48.60029" lon="7.25478">
        <ele>785.0539551</ele>
        <time>2010-08-08T12:07:24Z</time>
      </trkpt>
      <trkpt lat="48.60048" lon="7.25483">
        <ele>789.8603516</ele>
        <time>2010-08-08T12:07:30Z</time>
      </trkpt>
      <trkpt lat="48.60058" lon="7.25485">
        <ele>793.2248535</ele>
        <time>2010-08-08T12:07:36Z</time>
      </trkpt>
      <trkpt lat="48.60087" lon="7.25489">
        <ele>799.4736328</ele>
        <time>2010-08-08T12:07:46Z</time>
      </trkpt>
      <trkpt lat="48.60118" lon="7.25489">
        <ele>802.8381348</ele>
        <time>2010-08-08T12:07:55Z</time>
      </trkpt>
      <trkpt lat="48.60141" lon="7.2549">
        <ele>804.2802734</ele>
        <time>2010-08-08T12:08:03Z</time>
      </trkpt>
      <trkpt lat="48.60173" lon="7.25498">
        <ele>805.722168</ele>
        <time>2010-08-08T12:08:13Z</time>
      </trkpt>
      <trkpt lat="48.60209" lon="7.25513">
        <ele>804.7607422</ele>
        <time>2010-08-08T12:08:24Z</time>
      </trkpt>
      <trkpt lat="48.60258" lon="7.2552">
        <ele>804.2802734</ele>
        <time>2010-08-08T12:08:39Z</time>
      </trkpt>
      <trkpt lat="48.60298" lon="7.25503">
        <ele>807.1640625</ele>
        <time>2010-08-08T12:08:52Z</time>
      </trkpt>
      <trkpt lat="48.60323" lon="7.25475">
        <ele>804.2802734</ele>
        <time>2010-08-08T12:09:02Z</time>
      </trkpt>
      <trkpt lat="48.60326" lon="7.25403">
        <ele>803.3188477</ele>
        <time>2010-08-08T12:09:16Z</time>
      </trkpt>
      <trkpt lat="48.60324" lon="7.25346">
        <ele>802.3574219</ele>
        <time>2010-08-08T12:09:28Z</time>
      </trkpt>
      <trkpt lat="48.60321" lon="7.25322">
        <ele>801.3962402</ele>
        <time>2010-08-08T12:09:34Z</time>
      </trkpt>
      <trkpt lat="48.60316" lon="7.25305">
        <ele>804.2802734</ele>
        <time>2010-08-08T12:09:40Z</time>
      </trkpt>
      <trkpt lat="48.60303" lon="7.25287">
        <ele>809.0866699</ele>
        <time>2010-08-08T12:09:49Z</time>
      </trkpt>
      <trkpt lat="48.60298" lon="7.25278">
        <ele>810.5285645</ele>
        <time>2010-08-08T12:09:55Z</time>
      </trkpt>
      <trkpt lat="48.60283" lon="7.25259">
        <ele>813.8933105</ele>
        <time>2010-08-08T12:10:07Z</time>
      </trkpt>
      <trkpt lat="48.60276" lon="7.25245">
        <ele>816.7773438</ele>
        <time>2010-08-08T12:10:17Z</time>
      </trkpt>
      <trkpt lat="48.60266" lon="7.25232">
        <ele>819.1806641</ele>
        <time>2010-08-08T12:10:24Z</time>
      </trkpt>
      <trkpt lat="48.60244" lon="7.25214">
        <ele>822.0644531</ele>
        <time>2010-08-08T12:10:35Z</time>
      </trkpt>
      <trkpt lat="48.60219" lon="7.25195">
        <ele>825.4289551</ele>
        <time>2010-08-08T12:10:45Z</time>
      </trkpt>
      <trkpt lat="48.60201" lon="7.25184">
        <ele>824.9484863</ele>
        <time>2010-08-08T12:10:52Z</time>
      </trkpt>
      <trkpt lat="48.6018" lon="7.25175">
        <ele>825.4289551</ele>
        <time>2010-08-08T12:11:02Z</time>
      </trkpt>
      <trkpt lat="48.60151" lon="7.2517">
        <ele>830.2358398</ele>
        <time>2010-08-08T12:11:15Z</time>
      </trkpt>
      <trkpt lat="48.60132" lon="7.25166">
        <ele>832.6391602</ele>
        <time>2010-08-08T12:11:24Z</time>
      </trkpt>
      <trkpt lat="48.6013" lon="7.25165">
        <ele>832.6391602</ele>
        <time>2010-08-08T12:11:25Z</time>
      </trkpt>
      <trkpt lat="48.60121" lon="7.25161">
        <ele>832.6391602</ele>
        <time>2010-08-08T12:11:28Z</time>
      </trkpt>
      <trkpt lat="48.60087" lon="7.25161">
        <ele>831.6777344</ele>
        <time>2010-08-08T12:11:40Z</time>
      </trkpt>
      <trkpt lat="48.60069" lon="7.25169">
        <ele>832.6391602</ele>
        <time>2010-08-08T12:11:50Z</time>
      </trkpt>
      <trkpt lat="48.60062" lon="7.25171">
        <ele>834.0810547</ele>
        <time>2010-08-08T12:11:56Z</time>
      </trkpt>
      <trkpt lat="48.60051" lon="7.25172">
        <ele>833.6003418</ele>
        <time>2010-08-08T12:11:59Z</time>
      </trkpt>
      <trkpt lat="48.60043" lon="7.25174">
        <ele>834.5617676</ele>
        <time>2010-08-08T12:12:02Z</time>
      </trkpt>
      <trkpt lat="48.60026" lon="7.25179">
        <ele>836.0036621</ele>
        <time>2010-08-08T12:12:09Z</time>
      </trkpt>
      <trkpt lat="48.60007" lon="7.25181">
        <ele>836.9648438</ele>
        <time>2010-08-08T12:12:18Z</time>
      </trkpt>
      <trkpt lat="48.5998" lon="7.25177">
        <ele>838.4069824</ele>
        <time>2010-08-08T12:12:31Z</time>
      </trkpt>
      <trkpt lat="48.59977" lon="7.25177">
        <ele>838.8876953</ele>
        <time>2010-08-08T12:12:32Z</time>
      </trkpt>
      <trkpt lat="48.5997" lon="7.25178">
        <ele>841.7714844</ele>
        <time>2010-08-08T12:12:36Z</time>
      </trkpt>
      <trkpt lat="48.59942" lon="7.25188">
        <ele>845.1362305</ele>
        <time>2010-08-08T12:12:47Z</time>
      </trkpt>
      <trkpt lat="48.59933" lon="7.25185">
        <ele>845.1362305</ele>
        <time>2010-08-08T12:12:53Z</time>
      </trkpt>
      <trkpt lat="48.59926" lon="7.25192">
        <ele>846.0976563</ele>
        <time>2010-08-08T12:12:59Z</time>
      </trkpt>
      <trkpt lat="48.59899" lon="7.25213">
        <ele>845.6169434</ele>
        <time>2010-08-08T12:13:10Z</time>
      </trkpt>
      <trkpt lat="48.59886" lon="7.25226">
        <ele>845.1362305</ele>
        <time>2010-08-08T12:13:17Z</time>
      </trkpt>
      <trkpt lat="48.59881" lon="7.25231">
        <ele>845.1362305</ele>
        <time>2010-08-08T12:13:21Z</time>
      </trkpt>
      <trkpt lat="48.5987" lon="7.25233">
        <ele>843.6940918</ele>
        <time>2010-08-08T12:13:26Z</time>
      </trkpt>
      <trkpt lat="48.59863" lon="7.2524">
        <ele>843.6940918</ele>
        <time>2010-08-08T12:13:30Z</time>
      </trkpt>
      <trkpt lat="48.59833" lon="7.2525">
        <ele>841.7714844</ele>
        <time>2010-08-08T12:13:43Z</time>
      </trkpt>
      <trkpt lat="48.59808" lon="7.25255">
        <ele>841.7714844</ele>
        <time>2010-08-08T12:13:53Z</time>
      </trkpt>
      <trkpt lat="48.59785" lon="7.25262">
        <ele>844.1750488</ele>
        <time>2010-08-08T12:14:04Z</time>
      </trkpt>
      <trkpt lat="48.59783" lon="7.25263">
        <ele>844.1750488</ele>
        <time>2010-08-08T12:14:05Z</time>
      </trkpt>
      <trkpt lat="48.59763" lon="7.25271">
        <ele>847.5395508</ele>
        <time>2010-08-08T12:14:16Z</time>
      </trkpt>
      <trkpt lat="48.59739" lon="7.2528">
        <ele>850.9040527</ele>
        <time>2010-08-08T12:14:27Z</time>
      </trkpt>
      <trkpt lat="48.59722" lon="7.25289">
        <ele>850.9040527</ele>
        <time>2010-08-08T12:14:35Z</time>
      </trkpt>
      <trkpt lat="48.59714" lon="7.25297">
        <ele>854.7492676</ele>
        <time>2010-08-08T12:14:46Z</time>
      </trkpt>
      <trkpt lat="48.59701" lon="7.25306">
        <ele>856.1911621</ele>
        <time>2010-08-08T12:14:54Z</time>
      </trkpt>
      <trkpt lat="48.59696" lon="7.25309">
        <ele>856.671875</ele>
        <time>2010-08-08T12:14:59Z</time>
      </trkpt>
      <trkpt lat="48.59683" lon="7.25316">
        <ele>857.1525879</ele>
        <time>2010-08-08T12:15:08Z</time>
      </trkpt>
      <trkpt lat="48.59674" lon="7.25318">
        <ele>860.0366211</ele>
        <time>2010-08-08T12:15:15Z</time>
      </trkpt>
      <trkpt lat="48.59651" lon="7.25309">
        <ele>861.9594727</ele>
        <time>2010-08-08T12:15:30Z</time>
      </trkpt>
      <trkpt lat="48.59637" lon="7.25303">
        <ele>863.8818359</ele>
        <time>2010-08-08T12:15:39Z</time>
      </trkpt>
      <trkpt lat="48.59631" lon="7.25301">
        <ele>865.8046875</ele>
        <time>2010-08-08T12:15:47Z</time>
      </trkpt>
      <trkpt lat="48.59617" lon="7.25289">
        <ele>869.1691895</ele>
        <time>2010-08-08T12:16:06Z</time>
      </trkpt>
      <trkpt lat="48.59615" lon="7.25285">
        <ele>870.1303711</ele>
        <time>2010-08-08T12:16:10Z</time>
      </trkpt>
      <trkpt lat="48.59613" lon="7.2528">
        <ele>870.1303711</ele>
        <time>2010-08-08T12:16:15Z</time>
      </trkpt>
      <trkpt lat="48.59604" lon="7.25265">
        <ele>869.6499023</ele>
        <time>2010-08-08T12:16:24Z</time>
      </trkpt>
      <trkpt lat="48.59599" lon="7.25252">
        <ele>871.0917969</ele>
        <time>2010-08-08T12:16:33Z</time>
      </trkpt>
      <trkpt lat="48.59596" lon="7.2525">
        <ele>871.0917969</ele>
        <time>2010-08-08T12:16:42Z</time>
      </trkpt>
      <trkpt lat="48.59589" lon="7.25239">
        <ele>872.5336914</ele>
        <time>2010-08-08T12:16:55Z</time>
      </trkpt>
      <trkpt lat="48.59578" lon="7.2523">
        <ele>873.4951172</ele>
        <time>2010-08-08T12:17:15Z</time>
      </trkpt>
      <trkpt lat="48.59572" lon="7.25215">
        <ele>874.9370117</ele>
        <time>2010-08-08T12:17:29Z</time>
      </trkpt>
      <trkpt lat="48.59564" lon="7.25202">
        <ele>874.9370117</ele>
        <time>2010-08-08T12:17:36Z</time>
      </trkpt>
      <trkpt lat="48.59559" lon="7.2519">
        <ele>877.3405762</ele>
        <time>2010-08-08T12:17:46Z</time>
      </trkpt>
      <trkpt lat="48.59559" lon="7.25189">
        <ele>876.8598633</ele>
        <time>2010-08-08T12:17:48Z</time>
      </trkpt>
      <trkpt lat="48.59554" lon="7.25184">
        <ele>878.7824707</ele>
        <time>2010-08-08T12:17:56Z</time>
      </trkpt>
      <trkpt lat="48.59547" lon="7.25173">
        <ele>883.1081543</ele>
        <time>2010-08-08T12:18:10Z</time>
      </trkpt>
      <trkpt lat="48.59546" lon="7.25167">
        <ele>885.5114746</ele>
        <time>2010-08-08T12:18:23Z</time>
      </trkpt>
      <trkpt lat="48.59539" lon="7.25152">
        <ele>885.0310059</ele>
        <time>2010-08-08T12:18:32Z</time>
      </trkpt>
      <trkpt lat="48.59535" lon="7.25141">
        <ele>885.9921875</ele>
        <time>2010-08-08T12:18:41Z</time>
      </trkpt>
      <trkpt lat="48.59526" lon="7.25126">
        <ele>887.434082</ele>
        <time>2010-08-08T12:18:56Z</time>
      </trkpt>
      <trkpt lat="48.5952" lon="7.2511">
        <ele>888.3955078</ele>
        <time>2010-08-08T12:19:08Z</time>
      </trkpt>
      <trkpt lat="48.59512" lon="7.25099">
        <ele>889.8374023</ele>
        <time>2010-08-08T12:19:19Z</time>
      </trkpt>
      <trkpt lat="48.59503" lon="7.25086">
        <ele>890.3181152</ele>
        <time>2010-08-08T12:19:34Z</time>
      </trkpt>
      <trkpt lat="48.59496" lon="7.25083">
        <ele>890.3181152</ele>
        <time>2010-08-08T12:19:45Z</time>
      </trkpt>
      <trkpt lat="48.59487" lon="7.25086">
        <ele>893.2021484</ele>
        <time>2010-08-08T12:19:58Z</time>
      </trkpt>
      <trkpt lat="48.59477" lon="7.25091">
        <ele>898.4892578</ele>
        <time>2010-08-08T12:20:15Z</time>
      </trkpt>
      <trkpt lat="48.5947" lon="7.25091">
        <ele>898.9699707</ele>
        <time>2010-08-08T12:20:30Z</time>
      </trkpt>
      <trkpt lat="48.59464" lon="7.25091">
        <ele>899.4506836</ele>
        <time>2010-08-08T12:20:43Z</time>
      </trkpt>
      <trkpt lat="48.59463" lon="7.25091">
        <ele>899.4506836</ele>
        <time>2010-08-08T12:21:36Z</time>
      </trkpt>
      <trkpt lat="48.59458" lon="7.25089">
        <ele>899.9313965</ele>
        <time>2010-08-08T12:24:29Z</time>
      </trkpt>
      <trkpt lat="48.59458" lon="7.25093">
        <ele>898.9699707</ele>
        <time>2010-08-08T12:24:49Z</time>
      </trkpt>
      <trkpt lat="48.59451" lon="7.25107">
        <ele>899.4506836</ele>
        <time>2010-08-08T12:24:54Z</time>
      </trkpt>
      <trkpt lat="48.59439" lon="7.25128">
        <ele>900.8925781</ele>
        <time>2010-08-08T12:25:00Z</time>
      </trkpt>
      <trkpt lat="48.59432" lon="7.25146">
        <ele>903.2958984</ele>
        <time>2010-08-08T12:25:04Z</time>
      </trkpt>
      <trkpt lat="48.59424" lon="7.25155">
        <ele>904.737793</ele>
        <time>2010-08-08T12:25:08Z</time>
      </trkpt>
      <trkpt lat="48.59391" lon="7.25164">
        <ele>907.6218262</ele>
        <time>2010-08-08T12:25:18Z</time>
      </trkpt>
      <trkpt lat="48.59382" lon="7.2516">
        <ele>908.583252</ele>
        <time>2010-08-08T12:25:22Z</time>
      </trkpt>
      <trkpt lat="48.59372" lon="7.25158">
        <ele>909.0639648</ele>
        <time>2010-08-08T12:25:26Z</time>
      </trkpt>
      <trkpt lat="48.59354" lon="7.25137">
        <ele>910.9865723</ele>
        <time>2010-08-08T12:25:36Z</time>
      </trkpt>
      <trkpt lat="48.59317" lon="7.25103">
        <ele>912.4284668</ele>
        <time>2010-08-08T12:25:46Z</time>
      </trkpt>
      <trkpt lat="48.59295" lon="7.25073">
        <ele>911.947998</ele>
        <time>2010-08-08T12:25:49Z</time>
      </trkpt>
      <trkpt lat="48.59268" lon="7.2504">
        <ele>911.4672852</ele>
        <time>2010-08-08T12:25:58Z</time>
      </trkpt>
      <trkpt lat="48.5926" lon="7.25034">
        <ele>910.9865723</ele>
        <time>2010-08-08T12:25:59Z</time>
      </trkpt>
      <trkpt lat="48.59226" lon="7.2502">
        <ele>907.6218262</ele>
        <time>2010-08-08T12:26:06Z</time>
      </trkpt>
      <trkpt lat="48.5921" lon="7.25005">
        <ele>904.737793</ele>
        <time>2010-08-08T12:26:13Z</time>
      </trkpt>
      <trkpt lat="48.59208" lon="7.25004">
        <ele>904.2573242</ele>
        <time>2010-08-08T12:26:18Z</time>
      </trkpt>
      <trkpt lat="48.59202" lon="7.24999">
        <ele>903.7766113</ele>
        <time>2010-08-08T12:26:29Z</time>
      </trkpt>
      <trkpt lat="48.59201" lon="7.24999">
        <ele>904.2573242</ele>
        <time>2010-08-08T12:26:48Z</time>
      </trkpt>
      <trkpt lat="48.59199" lon="7.24998">
        <ele>903.2958984</ele>
        <time>2010-08-08T12:28:36Z</time>
      </trkpt>
      <trkpt lat="48.59176" lon="7.25004">
        <ele>899.9313965</ele>
        <time>2010-08-08T12:28:46Z</time>
      </trkpt>
      <trkpt lat="48.59143" lon="7.24987">
        <ele>894.644043</ele>
        <time>2010-08-08T12:28:55Z</time>
      </trkpt>
      <trkpt lat="48.59078" lon="7.24917">
        <ele>885.5114746</ele>
        <time>2010-08-08T12:29:08Z</time>
      </trkpt>
      <trkpt lat="48.59007" lon="7.24887">
        <ele>880.2243652</ele>
        <time>2010-08-08T12:29:19Z</time>
      </trkpt>
      <trkpt lat="48.59" lon="7.24887">
        <ele>879.7436523</ele>
        <time>2010-08-08T12:29:20Z</time>
      </trkpt>
      <trkpt lat="48.5897" lon="7.2489">
        <ele>878.3017578</ele>
        <time>2010-08-08T12:29:24Z</time>
      </trkpt>
      <trkpt lat="48.58938" lon="7.24933">
        <ele>875.8981934</ele>
        <time>2010-08-08T12:29:30Z</time>
      </trkpt>
      <trkpt lat="48.58931" lon="7.24952">
        <ele>874.9370117</ele>
        <time>2010-08-08T12:29:32Z</time>
      </trkpt>
      <trkpt lat="48.58921" lon="7.24992">
        <ele>874.4562988</ele>
        <time>2010-08-08T12:29:36Z</time>
      </trkpt>
      <trkpt lat="48.58912" lon="7.2507">
        <ele>871.5722656</ele>
        <time>2010-08-08T12:29:43Z</time>
      </trkpt>
      <trkpt lat="48.58905" lon="7.25091">
        <ele>870.611084</ele>
        <time>2010-08-08T12:29:45Z</time>
      </trkpt>
      <trkpt lat="48.58882" lon="7.25114">
        <ele>870.1303711</ele>
        <time>2010-08-08T12:29:49Z</time>
      </trkpt>
      <trkpt lat="48.58847" lon="7.25124">
        <ele>868.6884766</ele>
        <time>2010-08-08T12:29:54Z</time>
      </trkpt>
      <trkpt lat="48.58829" lon="7.25132">
        <ele>868.2077637</ele>
        <time>2010-08-08T12:29:57Z</time>
      </trkpt>
      <trkpt lat="48.58786" lon="7.25119">
        <ele>868.2077637</ele>
        <time>2010-08-08T12:30:02Z</time>
      </trkpt>
      <trkpt lat="48.5866" lon="7.25045">
        <ele>867.7270508</ele>
        <time>2010-08-08T12:30:18Z</time>
      </trkpt>
      <trkpt lat="48.58588" lon="7.24975">
        <ele>868.6884766</ele>
        <time>2010-08-08T12:30:29Z</time>
      </trkpt>
      <trkpt lat="48.58581" lon="7.24969">
        <ele>868.6884766</ele>
        <time>2010-08-08T12:30:30Z</time>
      </trkpt>
      <trkpt lat="48.58552" lon="7.24918">
        <ele>869.6499023</ele>
        <time>2010-08-08T12:30:35Z</time>
      </trkpt>
      <trkpt lat="48.58524" lon="7.24791">
        <ele>870.611084</ele>
        <time>2010-08-08T12:30:46Z</time>
      </trkpt>
      <trkpt lat="48.58481" lon="7.24683">
        <ele>871.0917969</ele>
        <time>2010-08-08T12:30:56Z</time>
      </trkpt>
      <trkpt lat="48.5842" lon="7.246">
        <ele>864.3625488</ele>
        <time>2010-08-08T12:31:07Z</time>
      </trkpt>
      <trkpt lat="48.58331" lon="7.2455">
        <ele>859.5559082</ele>
        <time>2010-08-08T12:31:19Z</time>
      </trkpt>
      <trkpt lat="48.58241" lon="7.24492">
        <ele>858.1140137</ele>
        <time>2010-08-08T12:31:31Z</time>
      </trkpt>
      <trkpt lat="48.58188" lon="7.24433">
        <ele>858.1140137</ele>
        <time>2010-08-08T12:31:40Z</time>
      </trkpt>
      <trkpt lat="48.58094" lon="7.24376">
        <ele>854.2687988</ele>
        <time>2010-08-08T12:31:52Z</time>
      </trkpt>
      <trkpt lat="48.58005" lon="7.24352">
        <ele>849.9428711</ele>
        <time>2010-08-08T12:32:04Z</time>
      </trkpt>
      <trkpt lat="48.57973" lon="7.24342">
        <ele>849.4621582</ele>
        <time>2010-08-08T12:32:08Z</time>
      </trkpt>
      <trkpt lat="48.57914" lon="7.24296">
        <ele>848.9814453</ele>
        <time>2010-08-08T12:32:17Z</time>
      </trkpt>
      <trkpt lat="48.5788" lon="7.24259">
        <ele>848.5007324</ele>
        <time>2010-08-08T12:32:24Z</time>
      </trkpt>
      <trkpt lat="48.57814" lon="7.24174">
        <ele>843.6940918</ele>
        <time>2010-08-08T12:32:35Z</time>
      </trkpt>
      <trkpt lat="48.57769" lon="7.2416">
        <ele>841.7714844</ele>
        <time>2010-08-08T12:32:41Z</time>
      </trkpt>
      <trkpt lat="48.57695" lon="7.24167">
        <ele>837.9262695</ele>
        <time>2010-08-08T12:32:51Z</time>
      </trkpt>
      <trkpt lat="48.57671" lon="7.24171">
        <ele>836.484375</ele>
        <time>2010-08-08T12:32:54Z</time>
      </trkpt>
      <trkpt lat="48.57602" lon="7.24185">
        <ele>834.5617676</ele>
        <time>2010-08-08T12:33:03Z</time>
      </trkpt>
      <trkpt lat="48.57574" lon="7.2418">
        <ele>832.6391602</ele>
        <time>2010-08-08T12:33:07Z</time>
      </trkpt>
      <trkpt lat="48.57454" lon="7.24133">
        <ele>821.1032715</ele>
        <time>2010-08-08T12:33:24Z</time>
      </trkpt>
      <trkpt lat="48.57394" lon="7.24094">
        <ele>818.2192383</ele>
        <time>2010-08-08T12:33:33Z</time>
      </trkpt>
      <trkpt lat="48.57334" lon="7.23987">
        <ele>816.2966309</ele>
        <time>2010-08-08T12:33:46Z</time>
      </trkpt>
      <trkpt lat="48.57253" lon="7.23888">
        <ele>817.2580566</ele>
        <time>2010-08-08T12:34:02Z</time>
      </trkpt>
      <trkpt lat="48.57186" lon="7.23819">
        <ele>815.8161621</ele>
        <time>2010-08-08T12:34:15Z</time>
      </trkpt>
      <trkpt lat="48.57101" lon="7.23746">
        <ele>813.4128418</ele>
        <time>2010-08-08T12:34:30Z</time>
      </trkpt>
      <trkpt lat="48.57066" lon="7.23705">
        <ele>812.451416</ele>
        <time>2010-08-08T12:34:37Z</time>
      </trkpt>
      <trkpt lat="48.57058" lon="7.23686">
        <ele>812.451416</ele>
        <time>2010-08-08T12:34:40Z</time>
      </trkpt>
      <trkpt lat="48.57033" lon="7.23616">
        <ele>813.4128418</ele>
        <time>2010-08-08T12:34:55Z</time>
      </trkpt>
      <trkpt lat="48.5702" lon="7.23576">
        <ele>812.451416</ele>
        <time>2010-08-08T12:35:07Z</time>
      </trkpt>
      <trkpt lat="48.57002" lon="7.23545">
        <ele>814.8547363</ele>
        <time>2010-08-08T12:35:19Z</time>
      </trkpt>
      <trkpt lat="48.57006" lon="7.23549">
        <ele>813.8933105</ele>
        <time>2010-08-08T12:35:47Z</time>
      </trkpt>
      <trkpt lat="48.56993" lon="7.23524">
        <ele>814.8547363</ele>
        <time>2010-08-08T12:35:56Z</time>
      </trkpt>
      <trkpt lat="48.56974" lon="7.23487">
        <ele>815.3354492</ele>
        <time>2010-08-08T12:36:05Z</time>
      </trkpt>
      <trkpt lat="48.56949" lon="7.23408">
        <ele>817.7385254</ele>
        <time>2010-08-08T12:36:20Z</time>
      </trkpt>
      <trkpt lat="48.56947" lon="7.2332">
        <ele>820.1418457</ele>
        <time>2010-08-08T12:36:35Z</time>
      </trkpt>
      <trkpt lat="48.56946" lon="7.23275">
        <ele>821.1032715</ele>
        <time>2010-08-08T12:36:43Z</time>
      </trkpt>
      <trkpt lat="48.56949" lon="7.23255">
        <ele>820.1418457</ele>
        <time>2010-08-08T12:36:47Z</time>
      </trkpt>
      <trkpt lat="48.56959" lon="7.23171">
        <ele>822.0644531</ele>
        <time>2010-08-08T12:37:02Z</time>
      </trkpt>
      <trkpt lat="48.56939" lon="7.2307">
        <ele>824.9484863</ele>
        <time>2010-08-08T12:37:21Z</time>
      </trkpt>
      <trkpt lat="48.56895" lon="7.22966">
        <ele>827.8322754</ele>
        <time>2010-08-08T12:37:43Z</time>
      </trkpt>
      <trkpt lat="48.56848" lon="7.22865">
        <ele>828.7939453</ele>
        <time>2010-08-08T12:38:05Z</time>
      </trkpt>
      <trkpt lat="48.56826" lon="7.22795">
        <ele>830.2358398</ele>
        <time>2010-08-08T12:38:19Z</time>
      </trkpt>
      <trkpt lat="48.56797" lon="7.22722">
        <ele>831.6777344</ele>
        <time>2010-08-08T12:38:35Z</time>
      </trkpt>
      <trkpt lat="48.56747" lon="7.22639">
        <ele>835.0424805</ele>
        <time>2010-08-08T12:38:56Z</time>
      </trkpt>
      <trkpt lat="48.56711" lon="7.22594">
        <ele>836.9648438</ele>
        <time>2010-08-08T12:39:10Z</time>
      </trkpt>
      <trkpt lat="48.56682" lon="7.22565">
        <ele>838.8876953</ele>
        <time>2010-08-08T12:39:20Z</time>
      </trkpt>
      <trkpt lat="48.56652" lon="7.22537">
        <ele>842.2521973</ele>
        <time>2010-08-08T12:39:31Z</time>
      </trkpt>
      <trkpt lat="48.56624" lon="7.22514">
        <ele>845.1362305</ele>
        <time>2010-08-08T12:39:41Z</time>
      </trkpt>
      <trkpt lat="48.56603" lon="7.22492">
        <ele>847.5395508</ele>
        <time>2010-08-08T12:39:51Z</time>
      </trkpt>
      <trkpt lat="48.56574" lon="7.22454">
        <ele>851.8654785</ele>
        <time>2010-08-08T12:40:01Z</time>
      </trkpt>
      <trkpt lat="48.5656" lon="7.22433">
        <ele>854.2687988</ele>
        <time>2010-08-08T12:40:07Z</time>
      </trkpt>
      <trkpt lat="48.56533" lon="7.22372">
        <ele>858.1140137</ele>
        <time>2010-08-08T12:40:18Z</time>
      </trkpt>
      <trkpt lat="48.56524" lon="7.22344">
        <ele>860.517334</ele>
        <time>2010-08-08T12:40:26Z</time>
      </trkpt>
      <trkpt lat="48.56506" lon="7.22311">
        <ele>861.9594727</ele>
        <time>2010-08-08T12:40:33Z</time>
      </trkpt>
      <trkpt lat="48.565" lon="7.22297">
        <ele>862.4399414</ele>
        <time>2010-08-08T12:40:35Z</time>
      </trkpt>
      <trkpt lat="48.56475" lon="7.22248">
        <ele>864.8432617</ele>
        <time>2010-08-08T12:40:44Z</time>
      </trkpt>
      <trkpt lat="48.56452" lon="7.22207">
        <ele>865.3239746</ele>
        <time>2010-08-08T12:40:49Z</time>
      </trkpt>
      <trkpt lat="48.56467" lon="7.22164">
        <ele>862.9206543</ele>
        <time>2010-08-08T12:40:59Z</time>
      </trkpt>
      <trkpt lat="48.56472" lon="7.22164">
        <ele>862.9206543</ele>
        <time>2010-08-08T12:41:00Z</time>
      </trkpt>
      <trkpt lat="48.56519" lon="7.22185">
        <ele>862.4399414</ele>
        <time>2010-08-08T12:41:12Z</time>
      </trkpt>
      <trkpt lat="48.56522" lon="7.22187">
        <ele>861.9594727</ele>
        <time>2010-08-08T12:41:13Z</time>
      </trkpt>
      <trkpt lat="48.56554" lon="7.22223">
        <ele>860.9980469</ele>
        <time>2010-08-08T12:41:23Z</time>
      </trkpt>
      <trkpt lat="48.56573" lon="7.22241">
        <ele>861.9594727</ele>
        <time>2010-08-08T12:41:31Z</time>
      </trkpt>
      <trkpt lat="48.5661" lon="7.22265">
        <ele>860.517334</ele>
        <time>2010-08-08T12:41:42Z</time>
      </trkpt>
      <trkpt lat="48.56653" lon="7.2227">
        <ele>857.6333008</ele>
        <time>2010-08-08T12:41:53Z</time>
      </trkpt>
      <trkpt lat="48.56661" lon="7.2227">
        <ele>858.1140137</ele>
        <time>2010-08-08T12:41:55Z</time>
      </trkpt>
      <trkpt lat="48.56694" lon="7.22266">
        <ele>858.5944824</ele>
        <time>2010-08-08T12:42:02Z</time>
      </trkpt>
      <trkpt lat="48.56739" lon="7.2226">
        <ele>861.4787598</ele>
        <time>2010-08-08T12:42:12Z</time>
      </trkpt>
      <trkpt lat="48.56772" lon="7.22239">
        <ele>861.9594727</ele>
        <time>2010-08-08T12:42:22Z</time>
      </trkpt>
      <trkpt lat="48.56824" lon="7.222">
        <ele>864.8432617</ele>
        <time>2010-08-08T12:42:34Z</time>
      </trkpt>
      <trkpt lat="48.56873" lon="7.22159">
        <ele>858.5944824</ele>
        <time>2010-08-08T12:42:47Z</time>
      </trkpt>
      <trkpt lat="48.56874" lon="7.22129">
        <ele>857.1525879</ele>
        <time>2010-08-08T12:42:53Z</time>
      </trkpt>
      <trkpt lat="48.5686" lon="7.22095">
        <ele>855.7106934</ele>
        <time>2010-08-08T12:42:59Z</time>
      </trkpt>
      <trkpt lat="48.56846" lon="7.22072">
        <ele>854.2687988</ele>
        <time>2010-08-08T12:43:03Z</time>
      </trkpt>
      <trkpt lat="48.56818" lon="7.22031">
        <ele>853.7880859</ele>
        <time>2010-08-08T12:43:11Z</time>
      </trkpt>
      <trkpt lat="48.56771" lon="7.2197">
        <ele>852.8266602</ele>
        <time>2010-08-08T12:43:24Z</time>
      </trkpt>
      <trkpt lat="48.56731" lon="7.21872">
        <ele>851.8654785</ele>
        <time>2010-08-08T12:43:40Z</time>
      </trkpt>
      <trkpt lat="48.56727" lon="7.21852">
        <ele>851.3847656</ele>
        <time>2010-08-08T12:43:43Z</time>
      </trkpt>
      <trkpt lat="48.56713" lon="7.21775">
        <ele>851.3847656</ele>
        <time>2010-08-08T12:43:54Z</time>
      </trkpt>
      <trkpt lat="48.56691" lon="7.21638">
        <ele>849.9428711</ele>
        <time>2010-08-08T12:44:14Z</time>
      </trkpt>
      <trkpt lat="48.56691" lon="7.21608">
        <ele>849.4621582</ele>
        <time>2010-08-08T12:44:20Z</time>
      </trkpt>
      <trkpt lat="48.56676" lon="7.21563">
        <ele>850.9040527</ele>
        <time>2010-08-08T12:44:26Z</time>
      </trkpt>
      <trkpt lat="48.56662" lon="7.21509">
        <ele>853.307373</ele>
        <time>2010-08-08T12:44:37Z</time>
      </trkpt>
      <trkpt lat="48.56661" lon="7.21505">
        <ele>853.307373</ele>
        <time>2010-08-08T12:44:38Z</time>
      </trkpt>
      <trkpt lat="48.5665" lon="7.21444">
        <ele>852.8266602</ele>
        <time>2010-08-08T12:44:48Z</time>
      </trkpt>
      <trkpt lat="48.56607" lon="7.21268">
        <ele>853.7880859</ele>
        <time>2010-08-08T12:45:07Z</time>
      </trkpt>
      <trkpt lat="48.56585" lon="7.21144">
        <ele>849.9428711</ele>
        <time>2010-08-08T12:45:22Z</time>
      </trkpt>
      <trkpt lat="48.56564" lon="7.2106">
        <ele>848.0202637</ele>
        <time>2010-08-08T12:45:31Z</time>
      </trkpt>
      <trkpt lat="48.56514" lon="7.20973">
        <ele>845.1362305</ele>
        <time>2010-08-08T12:45:42Z</time>
      </trkpt>
      <trkpt lat="48.56489" lon="7.20946">
        <ele>844.1750488</ele>
        <time>2010-08-08T12:45:47Z</time>
      </trkpt>
      <trkpt lat="48.56466" lon="7.20932">
        <ele>843.2133789</ele>
        <time>2010-08-08T12:45:51Z</time>
      </trkpt>
      <trkpt lat="48.56431" lon="7.20922">
        <ele>842.2521973</ele>
        <time>2010-08-08T12:45:57Z</time>
      </trkpt>
      <trkpt lat="48.56356" lon="7.20922">
        <ele>843.2133789</ele>
        <time>2010-08-08T12:46:08Z</time>
      </trkpt>
      <trkpt lat="48.56316" lon="7.20924">
        <ele>843.6940918</ele>
        <time>2010-08-08T12:46:14Z</time>
      </trkpt>
      <trkpt lat="48.56235" lon="7.20938">
        <ele>844.1750488</ele>
        <time>2010-08-08T12:46:29Z</time>
      </trkpt>
      <trkpt lat="48.56144" lon="7.20941">
        <ele>841.7714844</ele>
        <time>2010-08-08T12:46:47Z</time>
      </trkpt>
      <trkpt lat="48.56083" lon="7.20952">
        <ele>842.2521973</ele>
        <time>2010-08-08T12:47:00Z</time>
      </trkpt>
      <trkpt lat="48.56056" lon="7.20962">
        <ele>842.7329102</ele>
        <time>2010-08-08T12:47:06Z</time>
      </trkpt>
      <trkpt lat="48.56015" lon="7.20987">
        <ele>842.7329102</ele>
        <time>2010-08-08T12:47:17Z</time>
      </trkpt>
      <trkpt lat="48.55974" lon="7.21015">
        <ele>842.2521973</ele>
        <time>2010-08-08T12:47:27Z</time>
      </trkpt>
      <trkpt lat="48.55934" lon="7.21067">
        <ele>844.1750488</ele>
        <time>2010-08-08T12:47:42Z</time>
      </trkpt>
      <trkpt lat="48.55915" lon="7.21115">
        <ele>846.5783691</ele>
        <time>2010-08-08T12:47:55Z</time>
      </trkpt>
      <trkpt lat="48.55915" lon="7.2112">
        <ele>846.0976563</ele>
        <time>2010-08-08T12:48:14Z</time>
      </trkpt>
      <trkpt lat="48.5592" lon="7.21119">
        <ele>846.0976563</ele>
        <time>2010-08-08T12:48:35Z</time>
      </trkpt>
      <trkpt lat="48.55918" lon="7.21121">
        <ele>845.1362305</ele>
        <time>2010-08-08T12:48:45Z</time>
      </trkpt>
      <trkpt lat="48.55921" lon="7.21116">
        <ele>844.1750488</ele>
        <time>2010-08-08T12:49:05Z</time>
      </trkpt>
      <trkpt lat="48.55921" lon="7.21119">
        <ele>839.848877</ele>
        <time>2010-08-08T12:49:26Z</time>
      </trkpt>
      <trkpt lat="48.55917" lon="7.2112">
        <ele>841.2907715</ele>
        <time>2010-08-08T12:49:38Z</time>
      </trkpt>
      <trkpt lat="48.55903" lon="7.21162">
        <ele>842.2521973</ele>
        <time>2010-08-08T12:49:51Z</time>
      </trkpt>
      <trkpt lat="48.55879" lon="7.21212">
        <ele>845.6169434</ele>
        <time>2010-08-08T12:50:07Z</time>
      </trkpt>
      <trkpt lat="48.55865" lon="7.21234">
        <ele>846.5783691</ele>
        <time>2010-08-08T12:50:23Z</time>
      </trkpt>
      <trkpt lat="48.55826" lon="7.21273">
        <ele>848.0202637</ele>
        <time>2010-08-08T12:50:37Z</time>
      </trkpt>
      <trkpt lat="48.5581" lon="7.21244">
        <ele>847.0588379</ele>
        <time>2010-08-08T12:50:45Z</time>
      </trkpt>
      <trkpt lat="48.55809" lon="7.21235">
        <ele>847.0588379</ele>
        <time>2010-08-08T12:50:55Z</time>
      </trkpt>
      <trkpt lat="48.55803" lon="7.21231">
        <ele>847.0588379</ele>
        <time>2010-08-08T12:51:57Z</time>
      </trkpt>
      <trkpt lat="48.55805" lon="7.21196">
        <ele>848.5007324</ele>
        <time>2010-08-08T12:52:15Z</time>
      </trkpt>
      <trkpt lat="48.55796" lon="7.21159">
        <ele>847.0588379</ele>
        <time>2010-08-08T12:52:21Z</time>
      </trkpt>
      <trkpt lat="48.55767" lon="7.21092">
        <ele>849.4621582</ele>
        <time>2010-08-08T12:52:31Z</time>
      </trkpt>
      <trkpt lat="48.55759" lon="7.2108">
        <ele>848.9814453</ele>
        <time>2010-08-08T12:52:33Z</time>
      </trkpt>
      <trkpt lat="48.55735" lon="7.21064">
        <ele>848.9814453</ele>
        <time>2010-08-08T12:52:38Z</time>
      </trkpt>
      <trkpt lat="48.5572" lon="7.2106">
        <ele>848.0202637</ele>
        <time>2010-08-08T12:52:42Z</time>
      </trkpt>
      <trkpt lat="48.55706" lon="7.21024">
        <ele>846.5783691</ele>
        <time>2010-08-08T12:52:49Z</time>
      </trkpt>
      <trkpt lat="48.55708" lon="7.21019">
        <ele>846.5783691</ele>
        <time>2010-08-08T12:52:50Z</time>
      </trkpt>
      <trkpt lat="48.55725" lon="7.20998">
        <ele>846.0976563</ele>
        <time>2010-08-08T12:52:55Z</time>
      </trkpt>
      <trkpt lat="48.55736" lon="7.20986">
        <ele>846.0976563</ele>
        <time>2010-08-08T12:52:58Z</time>
      </trkpt>
      <trkpt lat="48.55758" lon="7.2095">
        <ele>846.5783691</ele>
        <time>2010-08-08T12:53:06Z</time>
      </trkpt>
      <trkpt lat="48.55784" lon="7.20901">
        <ele>846.0976563</ele>
        <time>2010-08-08T12:53:14Z</time>
      </trkpt>
      <trkpt lat="48.55795" lon="7.20858">
        <ele>846.0976563</ele>
        <time>2010-08-08T12:53:20Z</time>
      </trkpt>
      <trkpt lat="48.55795" lon="7.20777">
        <ele>846.0976563</ele>
        <time>2010-08-08T12:53:31Z</time>
      </trkpt>
      <trkpt lat="48.55788" lon="7.20735">
        <ele>842.2521973</ele>
        <time>2010-08-08T12:53:37Z</time>
      </trkpt>
      <trkpt lat="48.55777" lon="7.20703">
        <ele>840.8100586</ele>
        <time>2010-08-08T12:53:41Z</time>
      </trkpt>
      <trkpt lat="48.55751" lon="7.20657">
        <ele>838.8876953</ele>
        <time>2010-08-08T12:53:51Z</time>
      </trkpt>
      <trkpt lat="48.55747" lon="7.20653">
        <ele>839.848877</ele>
        <time>2010-08-08T12:53:53Z</time>
      </trkpt>
      <trkpt lat="48.55744" lon="7.20647">
        <ele>840.3295898</ele>
        <time>2010-08-08T12:53:55Z</time>
      </trkpt>
      <trkpt lat="48.5574" lon="7.20648">
        <ele>840.8100586</ele>
        <time>2010-08-08T12:53:59Z</time>
      </trkpt>
      <trkpt lat="48.55747" lon="7.20652">
        <ele>842.2521973</ele>
        <time>2010-08-08T12:54:05Z</time>
      </trkpt>
      <trkpt lat="48.5577" lon="7.20691">
        <ele>843.6940918</ele>
        <time>2010-08-08T12:54:21Z</time>
      </trkpt>
      <trkpt lat="48.55762" lon="7.207">
        <ele>845.6169434</ele>
        <time>2010-08-08T12:54:28Z</time>
      </trkpt>
      <trkpt lat="48.55729" lon="7.20695">
        <ele>848.5007324</ele>
        <time>2010-08-08T12:54:43Z</time>
      </trkpt>
      <trkpt lat="48.55702" lon="7.2069">
        <ele>849.9428711</ele>
        <time>2010-08-08T12:54:55Z</time>
      </trkpt>
      <trkpt lat="48.55667" lon="7.20681">
        <ele>851.3847656</ele>
        <time>2010-08-08T12:55:10Z</time>
      </trkpt>
      <trkpt lat="48.55638" lon="7.20674">
        <ele>854.7492676</ele>
        <time>2010-08-08T12:55:24Z</time>
      </trkpt>
      <trkpt lat="48.55607" lon="7.20669">
        <ele>856.1911621</ele>
        <time>2010-08-08T12:55:40Z</time>
      </trkpt>
      <trkpt lat="48.55575" lon="7.20658">
        <ele>858.1140137</ele>
        <time>2010-08-08T12:55:58Z</time>
      </trkpt>
      <trkpt lat="48.55545" lon="7.20651">
        <ele>860.0366211</ele>
        <time>2010-08-08T12:56:14Z</time>
      </trkpt>
      <trkpt lat="48.55519" lon="7.20636">
        <ele>861.4787598</ele>
        <time>2010-08-08T12:56:31Z</time>
      </trkpt>
      <trkpt lat="48.55492" lon="7.20617">
        <ele>865.8046875</ele>
        <time>2010-08-08T12:56:48Z</time>
      </trkpt>
      <trkpt lat="48.55471" lon="7.20595">
        <ele>869.1691895</ele>
        <time>2010-08-08T12:57:03Z</time>
      </trkpt>
      <trkpt lat="48.5545" lon="7.20571">
        <ele>873.0144043</ele>
        <time>2010-08-08T12:57:20Z</time>
      </trkpt>
      <trkpt lat="48.55448" lon="7.20567">
        <ele>873.4951172</ele>
        <time>2010-08-08T12:57:22Z</time>
      </trkpt>
      <trkpt lat="48.55431" lon="7.20538">
        <ele>876.8598633</ele>
        <time>2010-08-08T12:57:38Z</time>
      </trkpt>
      <trkpt lat="48.55418" lon="7.20495">
        <ele>881.185791</ele>
        <time>2010-08-08T12:57:58Z</time>
      </trkpt>
      <trkpt lat="48.55417" lon="7.20496">
        <ele>879.7436523</ele>
        <time>2010-08-08T12:58:22Z</time>
      </trkpt>
      <trkpt lat="48.55418" lon="7.20487">
        <ele>879.2629395</ele>
        <time>2010-08-08T13:00:01Z</time>
      </trkpt>
      <trkpt lat="48.55417" lon="7.20494">
        <ele>879.7436523</ele>
        <time>2010-08-08T13:00:11Z</time>
      </trkpt>
      <trkpt lat="48.5542" lon="7.20474">
        <ele>879.7436523</ele>
        <time>2010-08-08T13:00:49Z</time>
      </trkpt>
      <trkpt lat="48.55421" lon="7.20468">
        <ele>879.7436523</ele>
        <time>2010-08-08T13:00:51Z</time>
      </trkpt>
      <trkpt lat="48.55418" lon="7.20422">
        <ele>880.2243652</ele>
        <time>2010-08-08T13:01:04Z</time>
      </trkpt>
      <trkpt lat="48.55415" lon="7.20364">
        <ele>879.7436523</ele>
        <time>2010-08-08T13:01:17Z</time>
      </trkpt>
      <trkpt lat="48.55403" lon="7.20293">
        <ele>880.7050781</ele>
        <time>2010-08-08T13:01:35Z</time>
      </trkpt>
      <trkpt lat="48.55388" lon="7.20241">
        <ele>882.1469727</ele>
        <time>2010-08-08T13:01:51Z</time>
      </trkpt>
      <trkpt lat="48.55372" lon="7.20193">
        <ele>884.550293</ele>
        <time>2010-08-08T13:02:07Z</time>
      </trkpt>
      <trkpt lat="48.55356" lon="7.20134">
        <ele>883.5888672</ele>
        <time>2010-08-08T13:02:21Z</time>
      </trkpt>
      <trkpt lat="48.5534" lon="7.20102">
        <ele>883.1081543</ele>
        <time>2010-08-08T13:02:33Z</time>
      </trkpt>
      <trkpt lat="48.55323" lon="7.20069">
        <ele>887.9147949</ele>
        <time>2010-08-08T13:02:48Z</time>
      </trkpt>
      <trkpt lat="48.55319" lon="7.20064">
        <ele>887.9147949</ele>
        <time>2010-08-08T13:02:51Z</time>
      </trkpt>
      <trkpt lat="48.55299" lon="7.20026">
        <ele>891.2792969</ele>
        <time>2010-08-08T13:03:08Z</time>
      </trkpt>
      <trkpt lat="48.55299" lon="7.20027">
        <ele>892.2409668</ele>
        <time>2010-08-08T13:03:18Z</time>
      </trkpt>
      <trkpt lat="48.55297" lon="7.20025">
        <ele>892.7216797</ele>
        <time>2010-08-08T13:03:59Z</time>
      </trkpt>
      <trkpt lat="48.55291" lon="7.20011">
        <ele>891.7600098</ele>
        <time>2010-08-08T13:04:08Z</time>
      </trkpt>
      <trkpt lat="48.55271" lon="7.19972">
        <ele>891.2792969</ele>
        <time>2010-08-08T13:04:23Z</time>
      </trkpt>
      <trkpt lat="48.55251" lon="7.19929">
        <ele>891.2792969</ele>
        <time>2010-08-08T13:04:39Z</time>
      </trkpt>
      <trkpt lat="48.55248" lon="7.19923">
        <ele>891.2792969</ele>
        <time>2010-08-08T13:04:41Z</time>
      </trkpt>
      <trkpt lat="48.55243" lon="7.19918">
        <ele>890.798584</ele>
        <time>2010-08-08T13:04:44Z</time>
      </trkpt>
      <trkpt lat="48.5524" lon="7.19913">
        <ele>890.798584</ele>
        <time>2010-08-08T13:04:46Z</time>
      </trkpt>
      <trkpt lat="48.55233" lon="7.19908">
        <ele>890.798584</ele>
        <time>2010-08-08T13:04:49Z</time>
      </trkpt>
      <trkpt lat="48.55228" lon="7.19902">
        <ele>891.2792969</ele>
        <time>2010-08-08T13:04:52Z</time>
      </trkpt>
      <trkpt lat="48.55205" lon="7.19879">
        <ele>890.798584</ele>
        <time>2010-08-08T13:05:06Z</time>
      </trkpt>
      <trkpt lat="48.55195" lon="7.19871">
        <ele>890.3181152</ele>
        <time>2010-08-08T13:05:18Z</time>
      </trkpt>
      <trkpt lat="48.55194" lon="7.19871">
        <ele>890.798584</ele>
        <time>2010-08-08T13:05:39Z</time>
      </trkpt>
      <trkpt lat="48.55188" lon="7.19842">
        <ele>891.7600098</ele>
        <time>2010-08-08T13:05:48Z</time>
      </trkpt>
      <trkpt lat="48.55178" lon="7.19814">
        <ele>893.2021484</ele>
        <time>2010-08-08T13:05:57Z</time>
      </trkpt>
      <trkpt lat="48.55171" lon="7.19803">
        <ele>893.6828613</ele>
        <time>2010-08-08T13:06:02Z</time>
      </trkpt>
      <trkpt lat="48.55167" lon="7.1979">
        <ele>894.644043</ele>
        <time>2010-08-08T13:06:08Z</time>
      </trkpt>
      <trkpt lat="48.55158" lon="7.19779">
        <ele>895.1247559</ele>
        <time>2010-08-08T13:06:14Z</time>
      </trkpt>
      <trkpt lat="48.55144" lon="7.19747">
        <ele>896.0861816</ele>
        <time>2010-08-08T13:06:26Z</time>
      </trkpt>
      <trkpt lat="48.55133" lon="7.19718">
        <ele>898.9699707</ele>
        <time>2010-08-08T13:06:38Z</time>
      </trkpt>
      <trkpt lat="48.55126" lon="7.19695">
        <ele>900.8925781</ele>
        <time>2010-08-08T13:06:47Z</time>
      </trkpt>
      <trkpt lat="48.551" lon="7.1968">
        <ele>898.9699707</ele>
        <time>2010-08-08T13:06:58Z</time>
      </trkpt>
      <trkpt lat="48.55085" lon="7.19657">
        <ele>899.9313965</ele>
        <time>2010-08-08T13:07:08Z</time>
      </trkpt>
      <trkpt lat="48.55083" lon="7.19657">
        <ele>899.9313965</ele>
        <time>2010-08-08T13:07:12Z</time>
      </trkpt>
      <trkpt lat="48.55077" lon="7.19639">
        <ele>898.9699707</ele>
        <time>2010-08-08T13:07:25Z</time>
      </trkpt>
      <trkpt lat="48.55073" lon="7.19624">
        <ele>900.4121094</ele>
        <time>2010-08-08T13:07:37Z</time>
      </trkpt>
      <trkpt lat="48.55062" lon="7.19565">
        <ele>898.0087891</ele>
        <time>2010-08-08T13:07:52Z</time>
      </trkpt>
      <trkpt lat="48.55046" lon="7.19537">
        <ele>898.4892578</ele>
        <time>2010-08-08T13:08:01Z</time>
      </trkpt>
      <trkpt lat="48.55043" lon="7.19528">
        <ele>898.0087891</ele>
        <time>2010-08-08T13:08:04Z</time>
      </trkpt>
      <trkpt lat="48.55028" lon="7.19504">
        <ele>897.5280762</ele>
        <time>2010-08-08T13:08:11Z</time>
      </trkpt>
      <trkpt lat="48.5502" lon="7.1949">
        <ele>897.0473633</ele>
        <time>2010-08-08T13:08:14Z</time>
      </trkpt>
      <trkpt lat="48.55009" lon="7.19471">
        <ele>896.0861816</ele>
        <time>2010-08-08T13:08:23Z</time>
      </trkpt>
      <trkpt lat="48.54997" lon="7.19458">
        <ele>896.5668945</ele>
        <time>2010-08-08T13:08:41Z</time>
      </trkpt>
      <trkpt lat="48.54983" lon="7.19441">
        <ele>893.6828613</ele>
        <time>2010-08-08T13:08:57Z</time>
      </trkpt>
      <trkpt lat="48.5497" lon="7.19421">
        <ele>891.2792969</ele>
        <time>2010-08-08T13:09:11Z</time>
      </trkpt>
      <trkpt lat="48.5497" lon="7.1942">
        <ele>891.2792969</ele>
        <time>2010-08-08T13:09:21Z</time>
      </trkpt>
      <trkpt lat="48.54976" lon="7.19411">
        <ele>893.2021484</ele>
        <time>2010-08-08T13:09:29Z</time>
      </trkpt>
      <trkpt lat="48.54978" lon="7.19399">
        <ele>891.2792969</ele>
        <time>2010-08-08T13:09:43Z</time>
      </trkpt>
      <trkpt lat="48.54977" lon="7.19394">
        <ele>891.2792969</ele>
        <time>2010-08-08T13:09:51Z</time>
      </trkpt>
      <trkpt lat="48.54973" lon="7.19387">
        <ele>890.3181152</ele>
        <time>2010-08-08T13:09:55Z</time>
      </trkpt>
      <trkpt lat="48.54971" lon="7.19377">
        <ele>888.8762207</ele>
        <time>2010-08-08T13:09:59Z</time>
      </trkpt>
      <trkpt lat="48.54961" lon="7.19353">
        <ele>887.434082</ele>
        <time>2010-08-08T13:10:09Z</time>
      </trkpt>
      <trkpt lat="48.54944" lon="7.19325">
        <ele>885.5114746</ele>
        <time>2010-08-08T13:10:21Z</time>
      </trkpt>
      <trkpt lat="48.54919" lon="7.19299">
        <ele>882.1469727</ele>
        <time>2010-08-08T13:10:32Z</time>
      </trkpt>
      <trkpt lat="48.54902" lon="7.19274">
        <ele>881.185791</ele>
        <time>2010-08-08T13:10:42Z</time>
      </trkpt>
      <trkpt lat="48.54887" lon="7.19261">
        <ele>879.7436523</ele>
        <time>2010-08-08T13:10:48Z</time>
      </trkpt>
      <trkpt lat="48.54877" lon="7.1925">
        <ele>874.9370117</ele>
        <time>2010-08-08T13:10:59Z</time>
      </trkpt>
      <trkpt lat="48.54867" lon="7.19234">
        <ele>870.1303711</ele>
        <time>2010-08-08T13:11:09Z</time>
      </trkpt>
      <trkpt lat="48.54861" lon="7.19228">
        <ele>868.2077637</ele>
        <time>2010-08-08T13:11:12Z</time>
      </trkpt>
      <trkpt lat="48.54854" lon="7.19222">
        <ele>864.3625488</ele>
        <time>2010-08-08T13:11:18Z</time>
      </trkpt>
      <trkpt lat="48.5485" lon="7.19215">
        <ele>862.9206543</ele>
        <time>2010-08-08T13:11:21Z</time>
      </trkpt>
      <trkpt lat="48.54831" lon="7.19199">
        <ele>856.1911621</ele>
        <time>2010-08-08T13:11:32Z</time>
      </trkpt>
      <trkpt lat="48.54822" lon="7.19197">
        <ele>852.8266602</ele>
        <time>2010-08-08T13:11:42Z</time>
      </trkpt>
      <trkpt lat="48.54818" lon="7.1919">
        <ele>853.307373</ele>
        <time>2010-08-08T13:11:56Z</time>
      </trkpt>
      <trkpt lat="48.54813" lon="7.19186">
        <ele>850.9040527</ele>
        <time>2010-08-08T13:12:07Z</time>
      </trkpt>
      <trkpt lat="48.54812" lon="7.19186">
        <ele>850.423584</ele>
        <time>2010-08-08T13:12:08Z</time>
      </trkpt>
      <trkpt lat="48.54807" lon="7.19187">
        <ele>847.5395508</ele>
        <time>2010-08-08T13:12:15Z</time>
      </trkpt>
      <trkpt lat="48.54802" lon="7.19184">
        <ele>846.0976563</ele>
        <time>2010-08-08T13:12:22Z</time>
      </trkpt>
      <trkpt lat="48.54795" lon="7.19182">
        <ele>841.7714844</ele>
        <time>2010-08-08T13:12:35Z</time>
      </trkpt>
      <trkpt lat="48.54787" lon="7.19172">
        <ele>837.4455566</ele>
        <time>2010-08-08T13:12:47Z</time>
      </trkpt>
      <trkpt lat="48.54784" lon="7.19171">
        <ele>837.4455566</ele>
        <time>2010-08-08T13:12:50Z</time>
      </trkpt>
      <trkpt lat="48.54776" lon="7.19166">
        <ele>833.1196289</ele>
        <time>2010-08-08T13:13:04Z</time>
      </trkpt>
      <trkpt lat="48.54769" lon="7.19165">
        <ele>830.2358398</ele>
        <time>2010-08-08T13:13:19Z</time>
      </trkpt>
      <trkpt lat="48.54763" lon="7.1916">
        <ele>828.3132324</ele>
        <time>2010-08-08T13:13:32Z</time>
      </trkpt>
      <trkpt lat="48.54759" lon="7.19156">
        <ele>823.9870605</ele>
        <time>2010-08-08T13:13:44Z</time>
      </trkpt>
      <trkpt lat="48.54751" lon="7.19153">
        <ele>818.6999512</ele>
        <time>2010-08-08T13:13:59Z</time>
      </trkpt>
      <trkpt lat="48.54747" lon="7.19151">
        <ele>816.2966309</ele>
        <time>2010-08-08T13:14:10Z</time>
      </trkpt>
      <trkpt lat="48.54739" lon="7.19149">
        <ele>810.5285645</ele>
        <time>2010-08-08T13:14:25Z</time>
      </trkpt>
      <trkpt lat="48.54724" lon="7.19137">
        <ele>804.7607422</ele>
        <time>2010-08-08T13:14:43Z</time>
      </trkpt>
      <trkpt lat="48.54694" lon="7.19121">
        <ele>796.1091309</ele>
        <time>2010-08-08T13:14:53Z</time>
      </trkpt>
      <trkpt lat="48.54691" lon="7.1912">
        <ele>795.1474609</ele>
        <time>2010-08-08T13:14:54Z</time>
      </trkpt>
      <trkpt lat="48.54681" lon="7.19114">
        <ele>792.2636719</ele>
        <time>2010-08-08T13:14:58Z</time>
      </trkpt>
      <trkpt lat="48.54675" lon="7.19114">
        <ele>790.3410645</ele>
        <time>2010-08-08T13:15:01Z</time>
      </trkpt>
      <trkpt lat="48.54651" lon="7.191">
        <ele>784.0925293</ele>
        <time>2010-08-08T13:15:12Z</time>
      </trkpt>
      <trkpt lat="48.54642" lon="7.19095">
        <ele>783.6118164</ele>
        <time>2010-08-08T13:15:27Z</time>
      </trkpt>
      <trkpt lat="48.54632" lon="7.19093">
        <ele>781.2087402</ele>
        <time>2010-08-08T13:15:40Z</time>
      </trkpt>
      <trkpt lat="48.54626" lon="7.1909">
        <ele>776.8825684</ele>
        <time>2010-08-08T13:15:50Z</time>
      </trkpt>
      <trkpt lat="48.54617" lon="7.19091">
        <ele>773.0373535</ele>
        <time>2010-08-08T13:16:04Z</time>
      </trkpt>
      <trkpt lat="48.54617" lon="7.19091">
        <ele>773.0373535</ele>
        <time>2010-08-08T13:16:08Z</time>
      </trkpt>
      <trkpt lat="48.54584" lon="7.19063">
        <ele>761.020752</ele>
        <time>2010-08-08T13:16:20Z</time>
      </trkpt>
      <trkpt lat="48.54544" lon="7.19042">
        <ele>749.4851074</ele>
        <time>2010-08-08T13:16:30Z</time>
      </trkpt>
      <trkpt lat="48.54539" lon="7.19039">
        <ele>748.5236816</ele>
        <time>2010-08-08T13:16:31Z</time>
      </trkpt>
      <trkpt lat="48.54524" lon="7.19012">
        <ele>744.6782227</ele>
        <time>2010-08-08T13:16:36Z</time>
      </trkpt>
      <trkpt lat="48.54519" lon="7.19003">
        <ele>745.1589355</ele>
        <time>2010-08-08T13:16:38Z</time>
      </trkpt>
      <trkpt lat="48.54502" lon="7.19004">
        <ele>742.2751465</ele>
        <time>2010-08-08T13:16:51Z</time>
      </trkpt>
      <trkpt lat="48.54504" lon="7.19003">
        <ele>742.7558594</ele>
        <time>2010-08-08T13:17:29Z</time>
      </trkpt>
      <trkpt lat="48.545" lon="7.19012">
        <ele>741.3137207</ele>
        <time>2010-08-08T13:17:36Z</time>
      </trkpt>
      <trkpt lat="48.5447" lon="7.19042">
        <ele>740.3525391</ele>
        <time>2010-08-08T13:17:49Z</time>
      </trkpt>
      <trkpt lat="48.5443" lon="7.19088">
        <ele>739.3911133</ele>
        <time>2010-08-08T13:18:04Z</time>
      </trkpt>
      <trkpt lat="48.54376" lon="7.19123">
        <ele>738.4299316</ele>
        <time>2010-08-08T13:18:18Z</time>
      </trkpt>
      <trkpt lat="48.54351" lon="7.19133">
        <ele>737.9492188</ele>
        <time>2010-08-08T13:18:24Z</time>
      </trkpt>
      <trkpt lat="48.54282" lon="7.19164">
        <ele>737.9492188</ele>
        <time>2010-08-08T13:18:41Z</time>
      </trkpt>
      <trkpt lat="48.54213" lon="7.19168">
        <ele>736.5073242</ele>
        <time>2010-08-08T13:18:57Z</time>
      </trkpt>
      <trkpt lat="48.54181" lon="7.19171">
        <ele>736.987793</ele>
        <time>2010-08-08T13:19:05Z</time>
      </trkpt>
      <trkpt lat="48.54125" lon="7.19175">
        <ele>735.5458984</ele>
        <time>2010-08-08T13:19:15Z</time>
      </trkpt>
      <trkpt lat="48.54106" lon="7.19175">
        <ele>734.5847168</ele>
        <time>2010-08-08T13:19:18Z</time>
      </trkpt>
      <trkpt lat="48.54096" lon="7.19173">
        <ele>735.0654297</ele>
        <time>2010-08-08T13:19:20Z</time>
      </trkpt>
      <trkpt lat="48.54036" lon="7.1914">
        <ele>731.2199707</ele>
        <time>2010-08-08T13:19:35Z</time>
      </trkpt>
      <trkpt lat="48.54005" lon="7.19108">
        <ele>725.9326172</ele>
        <time>2010-08-08T13:19:44Z</time>
      </trkpt>
      <trkpt lat="48.53942" lon="7.19041">
        <ele>727.3747559</ele>
        <time>2010-08-08T13:19:59Z</time>
      </trkpt>
      <trkpt lat="48.53886" lon="7.18987">
        <ele>727.3747559</ele>
        <time>2010-08-08T13:20:12Z</time>
      </trkpt>
      <trkpt lat="48.53868" lon="7.18967">
        <ele>727.8552246</ele>
        <time>2010-08-08T13:20:16Z</time>
      </trkpt>
      <trkpt lat="48.53828" lon="7.18938">
        <ele>727.8552246</ele>
        <time>2010-08-08T13:20:24Z</time>
      </trkpt>
      <trkpt lat="48.53797" lon="7.18923">
        <ele>729.777832</ele>
        <time>2010-08-08T13:20:30Z</time>
      </trkpt>
      <trkpt lat="48.53745" lon="7.18913">
        <ele>729.777832</ele>
        <time>2010-08-08T13:20:40Z</time>
      </trkpt>
      <trkpt lat="48.53726" lon="7.18907">
        <ele>729.777832</ele>
        <time>2010-08-08T13:20:44Z</time>
      </trkpt>
      <trkpt lat="48.53668" lon="7.18884">
        <ele>728.8166504</ele>
        <time>2010-08-08T13:20:57Z</time>
      </trkpt>
      <trkpt lat="48.53655" lon="7.18875">
        <ele>727.8552246</ele>
        <time>2010-08-08T13:21:00Z</time>
      </trkpt>
      <trkpt lat="48.53615" lon="7.18828">
        <ele>722.5681152</ele>
        <time>2010-08-08T13:21:12Z</time>
      </trkpt>
      <trkpt lat="48.5359" lon="7.18762">
        <ele>722.5681152</ele>
        <time>2010-08-08T13:21:23Z</time>
      </trkpt>
      <trkpt lat="48.53584" lon="7.18739">
        <ele>724.0100098</ele>
        <time>2010-08-08T13:21:27Z</time>
      </trkpt>
      <trkpt lat="48.53568" lon="7.18659">
        <ele>724.9714355</ele>
        <time>2010-08-08T13:21:40Z</time>
      </trkpt>
      <trkpt lat="48.5354" lon="7.18542">
        <ele>724.0100098</ele>
        <time>2010-08-08T13:21:57Z</time>
      </trkpt>
      <trkpt lat="48.53526" lon="7.18488">
        <ele>720.6455078</ele>
        <time>2010-08-08T13:22:06Z</time>
      </trkpt>
      <trkpt lat="48.53521" lon="7.1847">
        <ele>719.6843262</ele>
        <time>2010-08-08T13:22:09Z</time>
      </trkpt>
      <trkpt lat="48.53501" lon="7.18437">
        <ele>716.3195801</ele>
        <time>2010-08-08T13:22:17Z</time>
      </trkpt>
      <trkpt lat="48.5347" lon="7.18368">
        <ele>710.5515137</ele>
        <time>2010-08-08T13:22:26Z</time>
      </trkpt>
      <trkpt lat="48.53442" lon="7.1834">
        <ele>704.3032227</ele>
        <time>2010-08-08T13:22:34Z</time>
      </trkpt>
      <trkpt lat="48.53415" lon="7.18297">
        <ele>696.6125488</ele>
        <time>2010-08-08T13:22:43Z</time>
      </trkpt>
      <trkpt lat="48.53409" lon="7.18282">
        <ele>696.1318359</ele>
        <time>2010-08-08T13:22:45Z</time>
      </trkpt>
      <trkpt lat="48.53399" lon="7.1826">
        <ele>693.2478027</ele>
        <time>2010-08-08T13:22:49Z</time>
      </trkpt>
      <trkpt lat="48.53381" lon="7.18213">
        <ele>691.3251953</ele>
        <time>2010-08-08T13:22:57Z</time>
      </trkpt>
      <trkpt lat="48.53367" lon="7.18181">
        <ele>693.7285156</ele>
        <time>2010-08-08T13:23:02Z</time>
      </trkpt>
      <trkpt lat="48.53349" lon="7.18156">
        <ele>695.1704102</ele>
        <time>2010-08-08T13:23:07Z</time>
      </trkpt>
      <trkpt lat="48.53337" lon="7.18124">
        <ele>697.0930176</ele>
        <time>2010-08-08T13:23:12Z</time>
      </trkpt>
      <trkpt lat="48.53329" lon="7.18081">
        <ele>699.4963379</ele>
        <time>2010-08-08T13:23:18Z</time>
      </trkpt>
      <trkpt lat="48.53316" lon="7.1804">
        <ele>701.8999023</ele>
        <time>2010-08-08T13:23:24Z</time>
      </trkpt>
      <trkpt lat="48.53294" lon="7.17951">
        <ele>706.2255859</ele>
        <time>2010-08-08T13:23:39Z</time>
      </trkpt>
      <trkpt lat="48.53264" lon="7.17867">
        <ele>708.1484375</ele>
        <time>2010-08-08T13:23:52Z</time>
      </trkpt>
      <trkpt lat="48.53221" lon="7.17758">
        <ele>711.9936523</ele>
        <time>2010-08-08T13:24:09Z</time>
      </trkpt>
      <trkpt lat="48.53199" lon="7.17693">
        <ele>715.3581543</ele>
        <time>2010-08-08T13:24:19Z</time>
      </trkpt>
      <trkpt lat="48.53195" lon="7.1767">
        <ele>715.3581543</ele>
        <time>2010-08-08T13:24:22Z</time>
      </trkpt>
      <trkpt lat="48.53172" lon="7.17612">
        <ele>716.3195801</ele>
        <time>2010-08-08T13:24:31Z</time>
      </trkpt>
      <trkpt lat="48.53134" lon="7.17495">
        <ele>719.6843262</ele>
        <time>2010-08-08T13:24:49Z</time>
      </trkpt>
      <trkpt lat="48.53116" lon="7.17422">
        <ele>724.0100098</ele>
        <time>2010-08-08T13:25:05Z</time>
      </trkpt>
      <trkpt lat="48.53109" lon="7.174">
        <ele>727.3747559</ele>
        <time>2010-08-08T13:25:20Z</time>
      </trkpt>
      <trkpt lat="48.53105" lon="7.17377">
        <ele>729.2971191</ele>
        <time>2010-08-08T13:26:07Z</time>
      </trkpt>
      <trkpt lat="48.53097" lon="7.17323">
        <ele>732.6621094</ele>
        <time>2010-08-08T13:26:22Z</time>
      </trkpt>
      <trkpt lat="48.53096" lon="7.17315">
        <ele>733.623291</ele>
        <time>2010-08-08T13:26:25Z</time>
      </trkpt>
      <trkpt lat="48.53095" lon="7.17309">
        <ele>734.1040039</ele>
        <time>2010-08-08T13:26:27Z</time>
      </trkpt>
      <trkpt lat="48.5309" lon="7.17266">
        <ele>734.1040039</ele>
        <time>2010-08-08T13:26:42Z</time>
      </trkpt>
      <trkpt lat="48.53077" lon="7.17227">
        <ele>730.2585449</ele>
        <time>2010-08-08T13:26:56Z</time>
      </trkpt>
      <trkpt lat="48.53071" lon="7.17209">
        <ele>729.777832</ele>
        <time>2010-08-08T13:27:03Z</time>
      </trkpt>
      <trkpt lat="48.53062" lon="7.17189">
        <ele>729.2971191</ele>
        <time>2010-08-08T13:27:11Z</time>
      </trkpt>
      <trkpt lat="48.53054" lon="7.17149">
        <ele>724.9714355</ele>
        <time>2010-08-08T13:27:26Z</time>
      </trkpt>
      <trkpt lat="48.53047" lon="7.17112">
        <ele>721.1262207</ele>
        <time>2010-08-08T13:27:39Z</time>
      </trkpt>
      <trkpt lat="48.53038" lon="7.1708">
        <ele>718.2421875</ele>
        <time>2010-08-08T13:27:51Z</time>
      </trkpt>
      <trkpt lat="48.53012" lon="7.17043">
        <ele>733.1425781</ele>
        <time>2010-08-08T13:28:10Z</time>
      </trkpt>
      <trkpt lat="48.52976" lon="7.17011">
        <ele>749.0043945</ele>
        <time>2010-08-08T13:28:28Z</time>
      </trkpt>
      <trkpt lat="48.52947" lon="7.16987">
        <ele>756.2141113</ele>
        <time>2010-08-08T13:28:44Z</time>
      </trkpt>
      <trkpt lat="48.52913" lon="7.16963">
        <ele>763.904541</ele>
        <time>2010-08-08T13:29:04Z</time>
      </trkpt>
      <trkpt lat="48.5288" lon="7.16937">
        <ele>763.904541</ele>
        <time>2010-08-08T13:29:23Z</time>
      </trkpt>
      <trkpt lat="48.52878" lon="7.16936">
        <ele>764.385498</ele>
        <time>2010-08-08T13:29:25Z</time>
      </trkpt>
      <trkpt lat="48.52838" lon="7.16909">
        <ele>771.5952148</ele>
        <time>2010-08-08T13:29:51Z</time>
      </trkpt>
      <trkpt lat="48.52811" lon="7.16888">
        <ele>777.84375</ele>
        <time>2010-08-08T13:30:09Z</time>
      </trkpt>
      <trkpt lat="48.52771" lon="7.1686">
        <ele>783.6118164</ele>
        <time>2010-08-08T13:30:36Z</time>
      </trkpt>
      <trkpt lat="48.52766" lon="7.16857">
        <ele>784.5732422</ele>
        <time>2010-08-08T13:30:39Z</time>
      </trkpt>
      <trkpt lat="48.5276" lon="7.16848">
        <ele>784.5732422</ele>
        <time>2010-08-08T13:30:55Z</time>
      </trkpt>
      <trkpt lat="48.52761" lon="7.16847">
        <ele>785.0539551</ele>
        <time>2010-08-08T13:31:11Z</time>
      </trkpt>
      <trkpt lat="48.52764" lon="7.16843">
        <ele>785.5344238</ele>
        <time>2010-08-08T13:31:15Z</time>
      </trkpt>
      <trkpt lat="48.52767" lon="7.16829">
        <ele>786.9763184</ele>
        <time>2010-08-08T13:31:21Z</time>
      </trkpt>
      <trkpt lat="48.52768" lon="7.16809">
        <ele>787.4570313</ele>
        <time>2010-08-08T13:31:39Z</time>
      </trkpt>
      <trkpt lat="48.52767" lon="7.16804">
        <ele>787.4570313</ele>
        <time>2010-08-08T13:32:27Z</time>
      </trkpt>
      <trkpt lat="48.52762" lon="7.16776">
        <ele>788.8991699</ele>
        <time>2010-08-08T13:32:37Z</time>
      </trkpt>
      <trkpt lat="48.52756" lon="7.16764">
        <ele>788.8991699</ele>
        <time>2010-08-08T13:32:41Z</time>
      </trkpt>
      <trkpt lat="48.52721" lon="7.16722">
        <ele>788.8991699</ele>
        <time>2010-08-08T13:32:57Z</time>
      </trkpt>
      <trkpt lat="48.52688" lon="7.1669">
        <ele>787.9377441</ele>
        <time>2010-08-08T13:33:07Z</time>
      </trkpt>
      <trkpt lat="48.52675" lon="7.16682">
        <ele>787.9377441</ele>
        <time>2010-08-08T13:33:10Z</time>
      </trkpt>
      <trkpt lat="48.52661" lon="7.1667">
        <ele>787.9377441</ele>
        <time>2010-08-08T13:33:13Z</time>
      </trkpt>
      <trkpt lat="48.52554" lon="7.16627">
        <ele>787.9377441</ele>
        <time>2010-08-08T13:33:34Z</time>
      </trkpt>
      <trkpt lat="48.52474" lon="7.16603">
        <ele>786.4958496</ele>
        <time>2010-08-08T13:33:48Z</time>
      </trkpt>
      <trkpt lat="48.52415" lon="7.16584">
        <ele>786.0151367</ele>
        <time>2010-08-08T13:33:57Z</time>
      </trkpt>
      <trkpt lat="48.52329" lon="7.16579">
        <ele>784.0925293</ele>
        <time>2010-08-08T13:34:09Z</time>
      </trkpt>
      <trkpt lat="48.52271" lon="7.16611">
        <ele>783.1311035</ele>
        <time>2010-08-08T13:34:18Z</time>
      </trkpt>
      <trkpt lat="48.52205" lon="7.167">
        <ele>782.6506348</ele>
        <time>2010-08-08T13:34:30Z</time>
      </trkpt>
      <trkpt lat="48.52161" lon="7.16766">
        <ele>782.1699219</ele>
        <time>2010-08-08T13:34:38Z</time>
      </trkpt>
      <trkpt lat="48.52094" lon="7.16811">
        <ele>782.1699219</ele>
        <time>2010-08-08T13:34:49Z</time>
      </trkpt>
      <trkpt lat="48.52081" lon="7.16816">
        <ele>782.6506348</ele>
        <time>2010-08-08T13:34:51Z</time>
      </trkpt>
      <trkpt lat="48.52033" lon="7.16824">
        <ele>782.1699219</ele>
        <time>2010-08-08T13:34:58Z</time>
      </trkpt>
      <trkpt lat="48.51961" lon="7.16807">
        <ele>786.0151367</ele>
        <time>2010-08-08T13:35:10Z</time>
      </trkpt>
      <trkpt lat="48.51873" lon="7.16797">
        <ele>785.5344238</ele>
        <time>2010-08-08T13:35:21Z</time>
      </trkpt>
      <trkpt lat="48.51808" lon="7.16804">
        <ele>780.7280273</ele>
        <time>2010-08-08T13:35:30Z</time>
      </trkpt>
      <trkpt lat="48.51769" lon="7.16769">
        <ele>780.2473145</ele>
        <time>2010-08-08T13:35:37Z</time>
      </trkpt>
      <trkpt lat="48.51787" lon="7.16723">
        <ele>780.7280273</ele>
        <time>2010-08-08T13:35:42Z</time>
      </trkpt>
      <trkpt lat="48.51794" lon="7.16708">
        <ele>781.2087402</ele>
        <time>2010-08-08T13:35:44Z</time>
      </trkpt>
      <trkpt lat="48.51797" lon="7.1669">
        <ele>781.689209</ele>
        <time>2010-08-08T13:35:46Z</time>
      </trkpt>
      <trkpt lat="48.51798" lon="7.16671">
        <ele>782.1699219</ele>
        <time>2010-08-08T13:35:48Z</time>
      </trkpt>
      <trkpt lat="48.51797" lon="7.16618">
        <ele>783.1311035</ele>
        <time>2010-08-08T13:35:53Z</time>
      </trkpt>
      <trkpt lat="48.51838" lon="7.16473">
        <ele>778.8051758</ele>
        <time>2010-08-08T13:36:06Z</time>
      </trkpt>
      <trkpt lat="48.51844" lon="7.16393">
        <ele>774.9599609</ele>
        <time>2010-08-08T13:36:12Z</time>
      </trkpt>
      <trkpt lat="48.51807" lon="7.16182">
        <ele>762.9433594</ele>
        <time>2010-08-08T13:36:28Z</time>
      </trkpt>
      <trkpt lat="48.51743" lon="7.16013">
        <ele>757.1755371</ele>
        <time>2010-08-08T13:36:44Z</time>
      </trkpt>
      <trkpt lat="48.51684" lon="7.15921">
        <ele>755.2529297</ele>
        <time>2010-08-08T13:36:56Z</time>
      </trkpt>
      <trkpt lat="48.51607" lon="7.1584">
        <ele>756.6948242</ele>
        <time>2010-08-08T13:37:12Z</time>
      </trkpt>
      <trkpt lat="48.51574" lon="7.15811">
        <ele>758.1369629</ele>
        <time>2010-08-08T13:37:19Z</time>
      </trkpt>
      <trkpt lat="48.51525" lon="7.15765">
        <ele>757.65625</ele>
        <time>2010-08-08T13:37:30Z</time>
      </trkpt>
      <trkpt lat="48.5147" lon="7.15719">
        <ele>758.6174316</ele>
        <time>2010-08-08T13:37:42Z</time>
      </trkpt>
      <trkpt lat="48.51462" lon="7.1571">
        <ele>759.0981445</ele>
        <time>2010-08-08T13:37:44Z</time>
      </trkpt>
      <trkpt lat="48.51444" lon="7.15698">
        <ele>758.6174316</ele>
        <time>2010-08-08T13:37:48Z</time>
      </trkpt>
      <trkpt lat="48.51387" lon="7.15656">
        <ele>759.5788574</ele>
        <time>2010-08-08T13:38:01Z</time>
      </trkpt>
      <trkpt lat="48.51355" lon="7.15637">
        <ele>760.0593262</ele>
        <time>2010-08-08T13:38:08Z</time>
      </trkpt>
      <trkpt lat="48.51325" lon="7.15604">
        <ele>760.5400391</ele>
        <time>2010-08-08T13:38:15Z</time>
      </trkpt>
      <trkpt lat="48.51303" lon="7.15571">
        <ele>761.5014648</ele>
        <time>2010-08-08T13:38:21Z</time>
      </trkpt>
      <trkpt lat="48.51282" lon="7.15544">
        <ele>762.4626465</ele>
        <time>2010-08-08T13:38:26Z</time>
      </trkpt>
      <trkpt lat="48.51272" lon="7.15539">
        <ele>762.9433594</ele>
        <time>2010-08-08T13:38:28Z</time>
      </trkpt>
      <trkpt lat="48.5124" lon="7.15529">
        <ele>762.4626465</ele>
        <time>2010-08-08T13:38:34Z</time>
      </trkpt>
      <trkpt lat="48.51221" lon="7.15498">
        <ele>762.9433594</ele>
        <time>2010-08-08T13:38:39Z</time>
      </trkpt>
      <trkpt lat="48.51213" lon="7.15475">
        <ele>763.4240723</ele>
        <time>2010-08-08T13:38:42Z</time>
      </trkpt>
      <trkpt lat="48.51191" lon="7.15442">
        <ele>762.4626465</ele>
        <time>2010-08-08T13:38:47Z</time>
      </trkpt>
      <trkpt lat="48.51164" lon="7.15428">
        <ele>761.5014648</ele>
        <time>2010-08-08T13:38:52Z</time>
      </trkpt>
      <trkpt lat="48.51127" lon="7.1543">
        <ele>759.5788574</ele>
        <time>2010-08-08T13:38:58Z</time>
      </trkpt>
      <trkpt lat="48.51084" lon="7.15385">
        <ele>757.65625</ele>
        <time>2010-08-08T13:39:07Z</time>
      </trkpt>
      <trkpt lat="48.51066" lon="7.15339">
        <ele>756.6948242</ele>
        <time>2010-08-08T13:39:13Z</time>
      </trkpt>
      <trkpt lat="48.50997" lon="7.15265">
        <ele>756.2141113</ele>
        <time>2010-08-08T13:39:27Z</time>
      </trkpt>
      <trkpt lat="48.50894" lon="7.15173">
        <ele>752.3688965</ele>
        <time>2010-08-08T13:39:47Z</time>
      </trkpt>
      <trkpt lat="48.50883" lon="7.15161">
        <ele>751.8884277</ele>
        <time>2010-08-08T13:39:49Z</time>
      </trkpt>
      <trkpt lat="48.50837" lon="7.15044">
        <ele>748.5236816</ele>
        <time>2010-08-08T13:40:03Z</time>
      </trkpt>
      <trkpt lat="48.50816" lon="7.14922">
        <ele>743.2363281</ele>
        <time>2010-08-08T13:40:14Z</time>
      </trkpt>
      <trkpt lat="48.50793" lon="7.14711">
        <ele>735.5458984</ele>
        <time>2010-08-08T13:40:30Z</time>
      </trkpt>
      <trkpt lat="48.50799" lon="7.14636">
        <ele>732.6621094</ele>
        <time>2010-08-08T13:40:36Z</time>
      </trkpt>
      <trkpt lat="48.5077" lon="7.14591">
        <ele>729.2971191</ele>
        <time>2010-08-08T13:40:42Z</time>
      </trkpt>
      <trkpt lat="48.5075" lon="7.14595">
        <ele>727.3747559</ele>
        <time>2010-08-08T13:40:45Z</time>
      </trkpt>
      <trkpt lat="48.50729" lon="7.14608">
        <ele>727.3747559</ele>
        <time>2010-08-08T13:40:54Z</time>
      </trkpt>
      <trkpt lat="48.50729" lon="7.14607">
        <ele>727.3747559</ele>
        <time>2010-08-08T13:41:02Z</time>
      </trkpt>
      <trkpt lat="48.50726" lon="7.14602">
        <ele>726.894043</ele>
        <time>2010-08-08T13:41:25Z</time>
      </trkpt>
      <trkpt lat="48.50729" lon="7.14599">
        <ele>726.894043</ele>
        <time>2010-08-08T13:41:57Z</time>
      </trkpt>
      <trkpt lat="48.50723" lon="7.14601">
        <ele>725.4519043</ele>
        <time>2010-08-08T13:42:31Z</time>
      </trkpt>
      <trkpt lat="48.50727" lon="7.14595">
        <ele>724.9714355</ele>
        <time>2010-08-08T13:43:47Z</time>
      </trkpt>
      <trkpt lat="48.50726" lon="7.14602">
        <ele>724.4907227</ele>
        <time>2010-08-08T13:44:35Z</time>
      </trkpt>
      <trkpt lat="48.50728" lon="7.14604">
        <ele>724.9714355</ele>
        <time>2010-08-08T13:45:13Z</time>
      </trkpt>
      <trkpt lat="48.50726" lon="7.14604">
        <ele>727.3747559</ele>
        <time>2010-08-08T13:45:30Z</time>
      </trkpt>
      <trkpt lat="48.50725" lon="7.14615">
        <ele>727.3747559</ele>
        <time>2010-08-08T13:45:34Z</time>
      </trkpt>
      <trkpt lat="48.50728" lon="7.14673">
        <ele>724.9714355</ele>
        <time>2010-08-08T13:45:49Z</time>
      </trkpt>
      <trkpt lat="48.50725" lon="7.14677">
        <ele>724.9714355</ele>
        <time>2010-08-08T13:45:50Z</time>
      </trkpt>
      <trkpt lat="48.50666" lon="7.14728">
        <ele>720.6455078</ele>
        <time>2010-08-08T13:46:02Z</time>
      </trkpt>
      <trkpt lat="48.50649" lon="7.14741">
        <ele>719.2036133</ele>
        <time>2010-08-08T13:46:12Z</time>
      </trkpt>
      <trkpt lat="48.50632" lon="7.1476">
        <ele>718.2421875</ele>
        <time>2010-08-08T13:47:04Z</time>
      </trkpt>
      <trkpt lat="48.50623" lon="7.14769">
        <ele>717.7614746</ele>
        <time>2010-08-08T13:47:06Z</time>
      </trkpt>
      <trkpt lat="48.50525" lon="7.14841">
        <ele>711.0322266</ele>
        <time>2010-08-08T13:47:19Z</time>
      </trkpt>
      <trkpt lat="48.50475" lon="7.14878">
        <ele>707.6677246</ele>
        <time>2010-08-08T13:47:24Z</time>
      </trkpt>
      <trkpt lat="48.50439" lon="7.14963">
        <ele>703.8225098</ele>
        <time>2010-08-08T13:47:30Z</time>
      </trkpt>
      <trkpt lat="48.50408" lon="7.15127">
        <ele>696.1318359</ele>
        <time>2010-08-08T13:47:39Z</time>
      </trkpt>
      <trkpt lat="48.50351" lon="7.15323">
        <ele>685.0769043</ele>
        <time>2010-08-08T13:47:50Z</time>
      </trkpt>
      <trkpt lat="48.50355" lon="7.15421">
        <ele>679.7893066</ele>
        <time>2010-08-08T13:47:55Z</time>
      </trkpt>
      <trkpt lat="48.50372" lon="7.15497">
        <ele>676.4248047</ele>
        <time>2010-08-08T13:47:59Z</time>
      </trkpt>
      <trkpt lat="48.5038" lon="7.15554">
        <ele>673.0603027</ele>
        <time>2010-08-08T13:48:02Z</time>
      </trkpt>
      <trkpt lat="48.50382" lon="7.15592">
        <ele>670.6569824</ele>
        <time>2010-08-08T13:48:04Z</time>
      </trkpt>
      <trkpt lat="48.50383" lon="7.15646">
        <ele>669.2150879</ele>
        <time>2010-08-08T13:48:07Z</time>
      </trkpt>
      <trkpt lat="48.50345" lon="7.15706">
        <ele>665.3696289</ele>
        <time>2010-08-08T13:48:13Z</time>
      </trkpt>
      <trkpt lat="48.50327" lon="7.15705">
        <ele>663.9274902</ele>
        <time>2010-08-08T13:48:15Z</time>
      </trkpt>
      <trkpt lat="48.50305" lon="7.15708">
        <ele>663.4470215</ele>
        <time>2010-08-08T13:48:17Z</time>
      </trkpt>
      <trkpt lat="48.50246" lon="7.15739">
        <ele>661.0437012</ele>
        <time>2010-08-08T13:48:22Z</time>
      </trkpt>
      <trkpt lat="48.50205" lon="7.1581">
        <ele>658.6403809</ele>
        <time>2010-08-08T13:48:27Z</time>
      </trkpt>
      <trkpt lat="48.50167" lon="7.15991">
        <ele>655.2758789</ele>
        <time>2010-08-08T13:48:37Z</time>
      </trkpt>
      <trkpt lat="48.50168" lon="7.16065">
        <ele>649.9885254</ele>
        <time>2010-08-08T13:48:41Z</time>
      </trkpt>
      <trkpt lat="48.502" lon="7.1616">
        <ele>645.6625977</ele>
        <time>2010-08-08T13:48:47Z</time>
      </trkpt>
      <trkpt lat="48.50216" lon="7.16184">
        <ele>644.7011719</ele>
        <time>2010-08-08T13:48:49Z</time>
      </trkpt>
      <trkpt lat="48.50203" lon="7.16221">
        <ele>641.8173828</ele>
        <time>2010-08-08T13:48:54Z</time>
      </trkpt>
      <trkpt lat="48.50171" lon="7.16199">
        <ele>640.855957</ele>
        <time>2010-08-08T13:48:56Z</time>
      </trkpt>
      <trkpt lat="48.50062" lon="7.16135">
        <ele>633.1652832</ele>
        <time>2010-08-08T13:49:09Z</time>
      </trkpt>
      <trkpt lat="48.50018" lon="7.16075">
        <ele>630.762207</ele>
        <time>2010-08-08T13:49:15Z</time>
      </trkpt>
      <trkpt lat="48.49951" lon="7.16037">
        <ele>626.9169922</ele>
        <time>2010-08-08T13:49:22Z</time>
      </trkpt>
      <trkpt lat="48.49859" lon="7.16054">
        <ele>624.032959</ele>
        <time>2010-08-08T13:49:30Z</time>
      </trkpt>
      <trkpt lat="48.49748" lon="7.16087">
        <ele>619.2263184</ele>
        <time>2010-08-08T13:49:39Z</time>
      </trkpt>
      <trkpt lat="48.49722" lon="7.16095">
        <ele>617.3037109</ele>
        <time>2010-08-08T13:49:41Z</time>
      </trkpt>
      <trkpt lat="48.49691" lon="7.16163">
        <ele>612.9777832</ele>
        <time>2010-08-08T13:49:45Z</time>
      </trkpt>
      <trkpt lat="48.49618" lon="7.16365">
        <ele>597.5966797</ele>
        <time>2010-08-08T13:49:57Z</time>
      </trkpt>
      <trkpt lat="48.49607" lon="7.16419">
        <ele>593.7514648</ele>
        <time>2010-08-08T13:50:00Z</time>
      </trkpt>
      <trkpt lat="48.49607" lon="7.16498">
        <ele>588.9450684</ele>
        <time>2010-08-08T13:50:04Z</time>
      </trkpt>
      <trkpt lat="48.49635" lon="7.16745">
        <ele>576.4477539</ele>
        <time>2010-08-08T13:50:17Z</time>
      </trkpt>
      <trkpt lat="48.49647" lon="7.16838">
        <ele>572.6025391</ele>
        <time>2010-08-08T13:50:22Z</time>
      </trkpt>
      <trkpt lat="48.49654" lon="7.16874">
        <ele>571.6408691</ele>
        <time>2010-08-08T13:50:24Z</time>
      </trkpt>
      <trkpt lat="48.49736" lon="7.17021">
        <ele>566.3537598</ele>
        <time>2010-08-08T13:50:34Z</time>
      </trkpt>
      <trkpt lat="48.49778" lon="7.17092">
        <ele>566.8344727</ele>
        <time>2010-08-08T13:50:39Z</time>
      </trkpt>
      <trkpt lat="48.49848" lon="7.17191">
        <ele>563.9504395</ele>
        <time>2010-08-08T13:50:47Z</time>
      </trkpt>
      <trkpt lat="48.49841" lon="7.17239">
        <ele>561.0666504</ele>
        <time>2010-08-08T13:50:52Z</time>
      </trkpt>
      <trkpt lat="48.49822" lon="7.17231">
        <ele>559.144043</ele>
        <time>2010-08-08T13:50:55Z</time>
      </trkpt>
      <trkpt lat="48.49727" lon="7.17155">
        <ele>550.9726563</ele>
        <time>2010-08-08T13:51:06Z</time>
      </trkpt>
      <trkpt lat="48.49621" lon="7.17042">
        <ele>540.3983154</ele>
        <time>2010-08-08T13:51:17Z</time>
      </trkpt>
      <trkpt lat="48.49566" lon="7.17001">
        <ele>535.5915527</ele>
        <time>2010-08-08T13:51:22Z</time>
      </trkpt>
      <trkpt lat="48.49487" lon="7.16903">
        <ele>524.536499</ele>
        <time>2010-08-08T13:51:31Z</time>
      </trkpt>
      <trkpt lat="48.4947" lon="7.16882">
        <ele>522.1331787</ele>
        <time>2010-08-08T13:51:33Z</time>
      </trkpt>
      <trkpt lat="48.49414" lon="7.16678">
        <ele>510.1166992</ele>
        <time>2010-08-08T13:51:45Z</time>
      </trkpt>
      <trkpt lat="48.49343" lon="7.16494">
        <ele>497.138916</ele>
        <time>2010-08-08T13:51:58Z</time>
      </trkpt>
      <trkpt lat="48.49265" lon="7.16287">
        <ele>485.1224365</ele>
        <time>2010-08-08T13:52:12Z</time>
      </trkpt>
      <trkpt lat="48.49254" lon="7.16258">
        <ele>482.7192383</ele>
        <time>2010-08-08T13:52:14Z</time>
      </trkpt>
      <trkpt lat="48.4921" lon="7.16229">
        <ele>477.9124756</ele>
        <time>2010-08-08T13:52:19Z</time>
      </trkpt>
      <trkpt lat="48.49152" lon="7.16245">
        <ele>473.1060791</ele>
        <time>2010-08-08T13:52:25Z</time>
      </trkpt>
      <trkpt lat="48.49056" lon="7.16224">
        <ele>465.4155273</ele>
        <time>2010-08-08T13:52:33Z</time>
      </trkpt>
      <trkpt lat="48.49008" lon="7.16217">
        <ele>461.0894775</ele>
        <time>2010-08-08T13:52:37Z</time>
      </trkpt>
      <trkpt lat="48.48962" lon="7.16232">
        <ele>457.2442627</ele>
        <time>2010-08-08T13:52:41Z</time>
      </trkpt>
      <trkpt lat="48.48847" lon="7.16335">
        <ele>445.708374</ele>
        <time>2010-08-08T13:52:52Z</time>
      </trkpt>
      <trkpt lat="48.48712" lon="7.16429">
        <ele>434.1726074</ele>
        <time>2010-08-08T13:53:04Z</time>
      </trkpt>
      <trkpt lat="48.48675" lon="7.1648">
        <ele>429.8465576</ele>
        <time>2010-08-08T13:53:08Z</time>
      </trkpt>
      <trkpt lat="48.48654" lon="7.16527">
        <ele>426.4820557</ele>
        <time>2010-08-08T13:53:11Z</time>
      </trkpt>
      <trkpt lat="48.48626" lon="7.1656">
        <ele>422.6367188</ele>
        <time>2010-08-08T13:53:14Z</time>
      </trkpt>
      <trkpt lat="48.48595" lon="7.16584">
        <ele>419.2722168</ele>
        <time>2010-08-08T13:53:17Z</time>
      </trkpt>
      <trkpt lat="48.48561" lon="7.16648">
        <ele>415.9074707</ele>
        <time>2010-08-08T13:53:22Z</time>
      </trkpt>
      <trkpt lat="48.48516" lon="7.16795">
        <ele>409.6590576</ele>
        <time>2010-08-08T13:53:31Z</time>
      </trkpt>
      <trkpt lat="48.48488" lon="7.16857">
        <ele>406.7749023</ele>
        <time>2010-08-08T13:53:35Z</time>
      </trkpt>
      <trkpt lat="48.48476" lon="7.16927">
        <ele>404.3717041</ele>
        <time>2010-08-08T13:53:39Z</time>
      </trkpt>
      <trkpt lat="48.48481" lon="7.17105">
        <ele>402.9296875</ele>
        <time>2010-08-08T13:53:50Z</time>
      </trkpt>
      <trkpt lat="48.48476" lon="7.17179">
        <ele>400.0458984</ele>
        <time>2010-08-08T13:53:55Z</time>
      </trkpt>
      <trkpt lat="48.48432" lon="7.17271">
        <ele>395.2391357</ele>
        <time>2010-08-08T13:54:02Z</time>
      </trkpt>
      <trkpt lat="48.48412" lon="7.17292">
        <ele>393.7972412</ele>
        <time>2010-08-08T13:54:04Z</time>
      </trkpt>
      <trkpt lat="48.48351" lon="7.17438">
        <ele>389.9519043</ele>
        <time>2010-08-08T13:54:14Z</time>
      </trkpt>
      <trkpt lat="48.48325" lon="7.17515">
        <ele>387.548584</ele>
        <time>2010-08-08T13:54:20Z</time>
      </trkpt>
      <trkpt lat="48.48339" lon="7.1761">
        <ele>385.6259766</ele>
        <time>2010-08-08T13:54:27Z</time>
      </trkpt>
      <trkpt lat="48.48354" lon="7.1763">
        <ele>385.1453857</ele>
        <time>2010-08-08T13:54:29Z</time>
      </trkpt>
      <trkpt lat="48.48413" lon="7.17701">
        <ele>383.7032471</ele>
        <time>2010-08-08T13:54:37Z</time>
      </trkpt>
      <trkpt lat="48.4844" lon="7.17802">
        <ele>382.7420654</ele>
        <time>2010-08-08T13:54:46Z</time>
      </trkpt>
      <trkpt lat="48.48423" lon="7.17966">
        <ele>378.4161377</ele>
        <time>2010-08-08T13:55:00Z</time>
      </trkpt>
      <trkpt lat="48.48418" lon="7.18003">
        <ele>377.454834</ele>
        <time>2010-08-08T13:55:03Z</time>
      </trkpt>
      <trkpt lat="48.4842" lon="7.18174">
        <ele>372.6481934</ele>
        <time>2010-08-08T13:55:15Z</time>
      </trkpt>
      <trkpt lat="48.48411" lon="7.18362">
        <ele>369.2836914</ele>
        <time>2010-08-08T13:55:28Z</time>
      </trkpt>
      <trkpt lat="48.48402" lon="7.18574">
        <ele>364.9576416</ele>
        <time>2010-08-08T13:55:44Z</time>
      </trkpt>
      <trkpt lat="48.48385" lon="7.18821">
        <ele>360.6317139</ele>
        <time>2010-08-08T13:56:03Z</time>
      </trkpt>
      <trkpt lat="48.48355" lon="7.19019">
        <ele>357.2670898</ele>
        <time>2010-08-08T13:56:20Z</time>
      </trkpt>
      <trkpt lat="48.48333" lon="7.19196">
        <ele>351.0184326</ele>
        <time>2010-08-08T13:56:33Z</time>
      </trkpt>
      <trkpt lat="48.48323" lon="7.19258">
        <ele>349.0958252</ele>
        <time>2010-08-08T13:56:37Z</time>
      </trkpt>
      <trkpt lat="48.48269" lon="7.19411">
        <ele>348.1346436</ele>
        <time>2010-08-08T13:56:49Z</time>
      </trkpt>
      <trkpt lat="48.48253" lon="7.19612">
        <ele>345.2506104</ele>
        <time>2010-08-08T13:57:05Z</time>
      </trkpt>
      <trkpt lat="48.48276" lon="7.19821">
        <ele>339.482666</ele>
        <time>2010-08-08T13:57:19Z</time>
      </trkpt>
      <trkpt lat="48.48279" lon="7.19849">
        <ele>339.0020752</ele>
        <time>2010-08-08T13:57:21Z</time>
      </trkpt>
      <trkpt lat="48.48297" lon="7.20016">
        <ele>337.5600586</ele>
        <time>2010-08-08T13:57:34Z</time>
      </trkpt>
      <trkpt lat="48.48282" lon="7.20181">
        <ele>334.6761475</ele>
        <time>2010-08-08T13:57:49Z</time>
      </trkpt>
      <trkpt lat="48.48249" lon="7.20372">
        <ele>332.75354</ele>
        <time>2010-08-08T13:58:06Z</time>
      </trkpt>
      <trkpt lat="48.4821" lon="7.20599">
        <ele>328.4276123</ele>
        <time>2010-08-08T13:58:26Z</time>
      </trkpt>
      <trkpt lat="48.48198" lon="7.20665">
        <ele>327.4661865</ele>
        <time>2010-08-08T13:58:32Z</time>
      </trkpt>
      <trkpt lat="48.48139" lon="7.20832">
        <ele>324.1015625</ele>
        <time>2010-08-08T13:58:49Z</time>
      </trkpt>
      <trkpt lat="48.48084" lon="7.21027">
        <ele>321.2177734</ele>
        <time>2010-08-08T13:59:07Z</time>
      </trkpt>
      <trkpt lat="48.48046" lon="7.21062">
        <ele>320.2563477</ele>
        <time>2010-08-08T13:59:13Z</time>
      </trkpt>
      <trkpt lat="48.48023" lon="7.21063">
        <ele>320.7370605</ele>
        <time>2010-08-08T13:59:16Z</time>
      </trkpt>
      <trkpt lat="48.47978" lon="7.21103">
        <ele>318.8143311</ele>
        <time>2010-08-08T13:59:23Z</time>
      </trkpt>
      <trkpt lat="48.47899" lon="7.21208">
        <ele>317.8530273</ele>
        <time>2010-08-08T13:59:37Z</time>
      </trkpt>
      <trkpt lat="48.47874" lon="7.21223">
        <ele>317.8530273</ele>
        <time>2010-08-08T13:59:41Z</time>
      </trkpt>
      <trkpt lat="48.47776" lon="7.2125">
        <ele>319.2950439</ele>
        <time>2010-08-08T13:59:58Z</time>
      </trkpt>
      <trkpt lat="48.47669" lon="7.21255">
        <ele>320.7370605</ele>
        <time>2010-08-08T14:00:18Z</time>
      </trkpt>
      <trkpt lat="48.47636" lon="7.21279">
        <ele>321.2177734</ele>
        <time>2010-08-08T14:00:29Z</time>
      </trkpt>
      <trkpt lat="48.47636" lon="7.21279">
        <ele>320.7370605</ele>
        <time>2010-08-08T14:02:15Z</time>
      </trkpt>
      <trkpt lat="48.47633" lon="7.21293">
        <ele>320.7370605</ele>
        <time>2010-08-08T14:02:21Z</time>
      </trkpt>
      <trkpt lat="48.47622" lon="7.21376">
        <ele>320.7370605</ele>
        <time>2010-08-08T14:02:35Z</time>
      </trkpt>
      <trkpt lat="48.4763" lon="7.21427">
        <ele>319.7756348</ele>
        <time>2010-08-08T14:02:43Z</time>
      </trkpt>
      <trkpt lat="48.47658" lon="7.21456">
        <ele>317.3724365</ele>
        <time>2010-08-08T14:02:49Z</time>
      </trkpt>
      <trkpt lat="48.47717" lon="7.21487">
        <ele>314.4884033</ele>
        <time>2010-08-08T14:02:58Z</time>
      </trkpt>
      <trkpt lat="48.47749" lon="7.2156">
        <ele>311.1237793</ele>
        <time>2010-08-08T14:03:06Z</time>
      </trkpt>
      <trkpt lat="48.47749" lon="7.2157">
        <ele>311.1237793</ele>
        <time>2010-08-08T14:03:07Z</time>
      </trkpt>
      <trkpt lat="48.47749" lon="7.21601">
        <ele>309.6818848</ele>
        <time>2010-08-08T14:03:10Z</time>
      </trkpt>
      <trkpt lat="48.47729" lon="7.21643">
        <ele>306.3172607</ele>
        <time>2010-08-08T14:03:17Z</time>
      </trkpt>
      <trkpt lat="48.47664" lon="7.21653">
        <ele>310.1624756</ele>
        <time>2010-08-08T14:03:28Z</time>
      </trkpt>
      <trkpt lat="48.47579" lon="7.21639">
        <ele>310.1624756</ele>
        <time>2010-08-08T14:03:42Z</time>
      </trkpt>
      <trkpt lat="48.47543" lon="7.21646">
        <ele>311.1237793</ele>
        <time>2010-08-08T14:03:48Z</time>
      </trkpt>
      <trkpt lat="48.47486" lon="7.21659">
        <ele>315.9304199</ele>
        <time>2010-08-08T14:03:58Z</time>
      </trkpt>
      <trkpt lat="48.47388" lon="7.21631">
        <ele>319.2950439</ele>
        <time>2010-08-08T14:04:15Z</time>
      </trkpt>
      <trkpt lat="48.47285" lon="7.21571">
        <ele>318.3336182</ele>
        <time>2010-08-08T14:04:35Z</time>
      </trkpt>
      <trkpt lat="48.47263" lon="7.21565">
        <ele>317.8530273</ele>
        <time>2010-08-08T14:04:39Z</time>
      </trkpt>
      <trkpt lat="48.47253" lon="7.21564">
        <ele>317.3724365</ele>
        <time>2010-08-08T14:04:41Z</time>
      </trkpt>
      <trkpt lat="48.47146" lon="7.21591">
        <ele>319.7756348</ele>
        <time>2010-08-08T14:05:00Z</time>
      </trkpt>
      <trkpt lat="48.47064" lon="7.21611">
        <ele>322.1789551</ele>
        <time>2010-08-08T14:05:15Z</time>
      </trkpt>
      <trkpt lat="48.46987" lon="7.21618">
        <ele>320.7370605</ele>
        <time>2010-08-08T14:05:29Z</time>
      </trkpt>
      <trkpt lat="48.46934" lon="7.21561">
        <ele>321.6983643</ele>
        <time>2010-08-08T14:05:42Z</time>
      </trkpt>
      <trkpt lat="48.46922" lon="7.21547">
        <ele>321.2177734</ele>
        <time>2010-08-08T14:05:45Z</time>
      </trkpt>
      <trkpt lat="48.46895" lon="7.21544">
        <ele>320.2563477</ele>
        <time>2010-08-08T14:05:51Z</time>
      </trkpt>
      <trkpt lat="48.46866" lon="7.21551">
        <ele>320.7370605</ele>
        <time>2010-08-08T14:05:57Z</time>
      </trkpt>
      <trkpt lat="48.46847" lon="7.21547">
        <ele>320.7370605</ele>
        <time>2010-08-08T14:06:01Z</time>
      </trkpt>
      <trkpt lat="48.4676" lon="7.21476">
        <ele>323.6209717</ele>
        <time>2010-08-08T14:06:23Z</time>
      </trkpt>
      <trkpt lat="48.4668" lon="7.21422">
        <ele>328.4276123</ele>
        <time>2010-08-08T14:06:43Z</time>
      </trkpt>
      <trkpt lat="48.46576" lon="7.21389">
        <ele>332.2728271</ele>
        <time>2010-08-08T14:07:06Z</time>
      </trkpt>
      <trkpt lat="48.46548" lon="7.21377">
        <ele>332.75354</ele>
        <time>2010-08-08T14:07:13Z</time>
      </trkpt>
      <trkpt lat="48.46469" lon="7.21326">
        <ele>334.1954346</ele>
        <time>2010-08-08T14:07:30Z</time>
      </trkpt>
      <trkpt lat="48.46334" lon="7.21211">
        <ele>335.1567383</ele>
        <time>2010-08-08T14:07:59Z</time>
      </trkpt>
      <trkpt lat="48.46238" lon="7.21124">
        <ele>336.598877</ele>
        <time>2010-08-08T14:08:21Z</time>
      </trkpt>
      <trkpt lat="48.46133" lon="7.21024">
        <ele>338.5214844</ele>
        <time>2010-08-08T14:08:45Z</time>
      </trkpt>
      <trkpt lat="48.46028" lon="7.20925">
        <ele>340.4440918</ele>
        <time>2010-08-08T14:09:08Z</time>
      </trkpt>
      <trkpt lat="48.45946" lon="7.20869">
        <ele>341.4052734</ele>
        <time>2010-08-08T14:09:24Z</time>
      </trkpt>
      <trkpt lat="48.45848" lon="7.20838">
        <ele>342.84729</ele>
        <time>2010-08-08T14:09:43Z</time>
      </trkpt>
      <trkpt lat="48.458" lon="7.20829">
        <ele>343.3278809</ele>
        <time>2010-08-08T14:09:52Z</time>
      </trkpt>
      <trkpt lat="48.45779" lon="7.2082">
        <ele>343.3278809</ele>
        <time>2010-08-08T14:09:56Z</time>
      </trkpt>
      <trkpt lat="48.45701" lon="7.20744">
        <ele>342.3666992</ele>
        <time>2010-08-08T14:10:12Z</time>
      </trkpt>
      <trkpt lat="48.4569" lon="7.20733">
        <ele>342.84729</ele>
        <time>2010-08-08T14:10:14Z</time>
      </trkpt>
      <trkpt lat="48.45677" lon="7.20713">
        <ele>342.3666992</ele>
        <time>2010-08-08T14:10:17Z</time>
      </trkpt>
      <trkpt lat="48.45643" lon="7.20702">
        <ele>342.84729</ele>
        <time>2010-08-08T14:10:23Z</time>
      </trkpt>
      <trkpt lat="48.45591" lon="7.2072">
        <ele>343.3278809</ele>
        <time>2010-08-08T14:10:32Z</time>
      </trkpt>
      <trkpt lat="48.45554" lon="7.20716">
        <ele>342.84729</ele>
        <time>2010-08-08T14:10:39Z</time>
      </trkpt>
      <trkpt lat="48.45539" lon="7.20703">
        <ele>343.8085938</ele>
        <time>2010-08-08T14:10:43Z</time>
      </trkpt>
      <trkpt lat="48.45469" lon="7.20611">
        <ele>346.2120361</ele>
        <time>2010-08-08T14:11:05Z</time>
      </trkpt>
      <trkpt lat="48.45457" lon="7.20592">
        <ele>346.692627</ele>
        <time>2010-08-08T14:11:09Z</time>
      </trkpt>
      <trkpt lat="48.4545" lon="7.2056">
        <ele>344.7700195</ele>
        <time>2010-08-08T14:11:14Z</time>
      </trkpt>
      <trkpt lat="48.45451" lon="7.20528">
        <ele>344.2894287</ele>
        <time>2010-08-08T14:11:18Z</time>
      </trkpt>
      <trkpt lat="48.4543" lon="7.20406">
        <ele>345.2506104</ele>
        <time>2010-08-08T14:11:33Z</time>
      </trkpt>
      <trkpt lat="48.45387" lon="7.20253">
        <ele>346.2120361</ele>
        <time>2010-08-08T14:11:55Z</time>
      </trkpt>
      <trkpt lat="48.45359" lon="7.20146">
        <ele>347.6539307</ele>
        <time>2010-08-08T14:12:12Z</time>
      </trkpt>
      <trkpt lat="48.45355" lon="7.20134">
        <ele>348.1346436</ele>
        <time>2010-08-08T14:12:14Z</time>
      </trkpt>
      <trkpt lat="48.45297" lon="7.20057">
        <ele>350.057251</ele>
        <time>2010-08-08T14:12:30Z</time>
      </trkpt>
      <trkpt lat="48.4521" lon="7.19966">
        <ele>351.9798584</ele>
        <time>2010-08-08T14:12:53Z</time>
      </trkpt>
      <trkpt lat="48.45128" lon="7.19875">
        <ele>353.421875</ele>
        <time>2010-08-08T14:13:16Z</time>
      </trkpt>
      <trkpt lat="48.45067" lon="7.19797">
        <ele>356.3057861</ele>
        <time>2010-08-08T14:13:34Z</time>
      </trkpt>
      <trkpt lat="48.45028" lon="7.19763">
        <ele>356.786377</ele>
        <time>2010-08-08T14:13:44Z</time>
      </trkpt>
      <trkpt lat="48.45019" lon="7.19758">
        <ele>356.3057861</ele>
        <time>2010-08-08T14:13:46Z</time>
      </trkpt>
      <trkpt lat="48.44967" lon="7.19735">
        <ele>358.7089844</ele>
        <time>2010-08-08T14:13:57Z</time>
      </trkpt>
      <trkpt lat="48.44888" lon="7.19725">
        <ele>357.7478027</ele>
        <time>2010-08-08T14:14:11Z</time>
      </trkpt>
      <trkpt lat="48.44863" lon="7.19723">
        <ele>356.3057861</ele>
        <time>2010-08-08T14:14:15Z</time>
      </trkpt>
      <trkpt lat="48.44831" lon="7.19707">
        <ele>355.8251953</ele>
        <time>2010-08-08T14:14:21Z</time>
      </trkpt>
      <trkpt lat="48.4476" lon="7.19636">
        <ele>354.8637695</ele>
        <time>2010-08-08T14:14:36Z</time>
      </trkpt>
      <trkpt lat="48.44747" lon="7.19623">
        <ele>354.3831787</ele>
        <time>2010-08-08T14:14:39Z</time>
      </trkpt>
      <trkpt lat="48.44659" lon="7.19555">
        <ele>355.3444824</ele>
        <time>2010-08-08T14:14:59Z</time>
      </trkpt>
      <trkpt lat="48.44573" lon="7.19487">
        <ele>357.7478027</ele>
        <time>2010-08-08T14:15:18Z</time>
      </trkpt>
      <trkpt lat="48.44501" lon="7.19428">
        <ele>357.2670898</ele>
        <time>2010-08-08T14:15:33Z</time>
      </trkpt>
      <trkpt lat="48.44475" lon="7.19395">
        <ele>357.2670898</ele>
        <time>2010-08-08T14:15:39Z</time>
      </trkpt>
      <trkpt lat="48.44449" lon="7.19331">
        <ele>357.7478027</ele>
        <time>2010-08-08T14:15:48Z</time>
      </trkpt>
      <trkpt lat="48.44445" lon="7.19301">
        <ele>358.2283936</ele>
        <time>2010-08-08T14:15:52Z</time>
      </trkpt>
      <trkpt lat="48.44426" lon="7.19172">
        <ele>359.1896973</ele>
        <time>2010-08-08T14:16:10Z</time>
      </trkpt>
      <trkpt lat="48.44397" lon="7.19023">
        <ele>362.5543213</ele>
        <time>2010-08-08T14:16:31Z</time>
      </trkpt>
      <trkpt lat="48.44354" lon="7.18888">
        <ele>363.0350342</ele>
        <time>2010-08-08T14:16:51Z</time>
      </trkpt>
      <trkpt lat="48.44304" lon="7.18742">
        <ele>365.4383545</ele>
        <time>2010-08-08T14:17:13Z</time>
      </trkpt>
      <trkpt lat="48.44295" lon="7.18722">
        <ele>364.9576416</ele>
        <time>2010-08-08T14:17:17Z</time>
      </trkpt>
      <trkpt lat="48.44239" lon="7.18628">
        <ele>365.4383545</ele>
        <time>2010-08-08T14:17:35Z</time>
      </trkpt>
      <trkpt lat="48.44234" lon="7.1862">
        <ele>365.4383545</ele>
        <time>2010-08-08T14:17:37Z</time>
      </trkpt>
      <trkpt lat="48.44156" lon="7.18551">
        <ele>366.880249</ele>
        <time>2010-08-08T14:17:57Z</time>
      </trkpt>
      <trkpt lat="48.44062" lon="7.18504">
        <ele>368.8029785</ele>
        <time>2010-08-08T14:18:18Z</time>
      </trkpt>
      <trkpt lat="48.43963" lon="7.18472">
        <ele>369.2836914</ele>
        <time>2010-08-08T14:18:39Z</time>
      </trkpt>
      <trkpt lat="48.43885" lon="7.1846">
        <ele>371.2062988</ele>
        <time>2010-08-08T14:18:55Z</time>
      </trkpt>
      <trkpt lat="48.4376" lon="7.18384">
        <ele>375.0515137</ele>
        <time>2010-08-08T14:19:22Z</time>
      </trkpt>
      <trkpt lat="48.43743" lon="7.18372">
        <ele>375.5321045</ele>
        <time>2010-08-08T14:19:26Z</time>
      </trkpt>
      <trkpt lat="48.43662" lon="7.18321">
        <ele>376.9742432</ele>
        <time>2010-08-08T14:19:45Z</time>
      </trkpt>
      <trkpt lat="48.43566" lon="7.18256">
        <ele>377.454834</ele>
        <time>2010-08-08T14:20:06Z</time>
      </trkpt>
      <trkpt lat="48.43483" lon="7.18206">
        <ele>377.454834</ele>
        <time>2010-08-08T14:20:25Z</time>
      </trkpt>
      <trkpt lat="48.43454" lon="7.18195">
        <ele>377.9354248</ele>
        <time>2010-08-08T14:20:31Z</time>
      </trkpt>
      <trkpt lat="48.43429" lon="7.18195">
        <ele>378.4161377</ele>
        <time>2010-08-08T14:20:36Z</time>
      </trkpt>
      <trkpt lat="48.4339" lon="7.1821">
        <ele>379.3774414</ele>
        <time>2010-08-08T14:20:46Z</time>
      </trkpt>
      <trkpt lat="48.43315" lon="7.18259">
        <ele>378.8968506</ele>
        <time>2010-08-08T14:21:02Z</time>
      </trkpt>
      <trkpt lat="48.43251" lon="7.18331">
        <ele>381.3000488</ele>
        <time>2010-08-08T14:21:16Z</time>
      </trkpt>
      <trkpt lat="48.43192" lon="7.18398">
        <ele>384.184082</ele>
        <time>2010-08-08T14:21:30Z</time>
      </trkpt>
      <trkpt lat="48.43121" lon="7.1843">
        <ele>382.7420654</ele>
        <time>2010-08-08T14:21:45Z</time>
      </trkpt>
      <trkpt lat="48.43072" lon="7.18422">
        <ele>383.2226563</ele>
        <time>2010-08-08T14:21:56Z</time>
      </trkpt>
      <trkpt lat="48.43004" lon="7.18379">
        <ele>388.5100098</ele>
        <time>2010-08-08T14:22:15Z</time>
      </trkpt>
      <trkpt lat="48.42954" lon="7.18344">
        <ele>390.4326172</ele>
        <time>2010-08-08T14:22:31Z</time>
      </trkpt>
      <trkpt lat="48.42876" lon="7.18335">
        <ele>391.8745117</ele>
        <time>2010-08-08T14:22:51Z</time>
      </trkpt>
      <trkpt lat="48.42808" lon="7.18352">
        <ele>392.8359375</ele>
        <time>2010-08-08T14:23:08Z</time>
      </trkpt>
      <trkpt lat="48.42708" lon="7.18382">
        <ele>393.3165283</ele>
        <time>2010-08-08T14:23:33Z</time>
      </trkpt>
      <trkpt lat="48.42633" lon="7.18395">
        <ele>395.7198486</ele>
        <time>2010-08-08T14:23:51Z</time>
      </trkpt>
      <trkpt lat="48.4254" lon="7.18401">
        <ele>398.1231689</ele>
        <time>2010-08-08T14:24:13Z</time>
      </trkpt>
      <trkpt lat="48.42475" lon="7.18407">
        <ele>398.6037598</ele>
        <time>2010-08-08T14:24:29Z</time>
      </trkpt>
      <trkpt lat="48.42424" lon="7.18408">
        <ele>398.6037598</ele>
        <time>2010-08-08T14:24:42Z</time>
      </trkpt>
      <trkpt lat="48.42351" lon="7.18406">
        <ele>396.2005615</ele>
        <time>2010-08-08T14:24:59Z</time>
      </trkpt>
      <trkpt lat="48.42325" lon="7.18407">
        <ele>395.2391357</ele>
        <time>2010-08-08T14:25:05Z</time>
      </trkpt>
      <trkpt lat="48.42304" lon="7.18405">
        <ele>394.2779541</ele>
        <time>2010-08-08T14:25:09Z</time>
      </trkpt>
      <trkpt lat="48.42202" lon="7.18374">
        <ele>393.3165283</ele>
        <time>2010-08-08T14:25:26Z</time>
      </trkpt>
      <trkpt lat="48.42168" lon="7.18364">
        <ele>392.8359375</ele>
        <time>2010-08-08T14:25:32Z</time>
      </trkpt>
      <trkpt lat="48.42118" lon="7.1834">
        <ele>395.2391357</ele>
        <time>2010-08-08T14:25:46Z</time>
      </trkpt>
      <trkpt lat="48.42105" lon="7.18334">
        <ele>396.6811523</ele>
        <time>2010-08-08T14:25:50Z</time>
      </trkpt>
      <trkpt lat="48.42106" lon="7.18343">
        <ele>396.2005615</ele>
        <time>2010-08-08T14:25:56Z</time>
      </trkpt>
      <trkpt lat="48.42154" lon="7.18379">
        <ele>394.2779541</ele>
        <time>2010-08-08T14:26:12Z</time>
      </trkpt>
      <trkpt lat="48.42155" lon="7.18415">
        <ele>394.7585449</ele>
        <time>2010-08-08T14:26:19Z</time>
      </trkpt>
      <trkpt lat="48.4211" lon="7.18506">
        <ele>397.1617432</ele>
        <time>2010-08-08T14:26:40Z</time>
      </trkpt>
      <trkpt lat="48.42106" lon="7.1851">
        <ele>397.1617432</ele>
        <time>2010-08-08T14:26:42Z</time>
      </trkpt>
      <trkpt lat="48.4211" lon="7.18511">
        <ele>396.6811523</ele>
        <time>2010-08-08T14:26:48Z</time>
      </trkpt>
      <trkpt lat="48.42153" lon="7.18426">
        <ele>398.1231689</ele>
        <time>2010-08-08T14:27:06Z</time>
      </trkpt>
      <trkpt lat="48.4217" lon="7.18382">
        <ele>397.6424561</ele>
        <time>2010-08-08T14:27:14Z</time>
      </trkpt>
      <trkpt lat="48.42161" lon="7.18363">
        <ele>397.6424561</ele>
        <time>2010-08-08T14:27:19Z</time>
      </trkpt>
      <trkpt lat="48.42101" lon="7.1833">
        <ele>399.0843506</ele>
        <time>2010-08-08T14:27:37Z</time>
      </trkpt>
      <trkpt lat="48.42039" lon="7.18255">
        <ele>403.4104004</ele>
        <time>2010-08-08T14:28:00Z</time>
      </trkpt>
      <trkpt lat="48.41996" lon="7.18155">
        <ele>405.8137207</ele>
        <time>2010-08-08T14:28:24Z</time>
      </trkpt>
      <trkpt lat="48.4198" lon="7.18049">
        <ele>409.6590576</ele>
        <time>2010-08-08T14:28:45Z</time>
      </trkpt>
      <trkpt lat="48.41964" lon="7.17963">
        <ele>408.217041</ele>
        <time>2010-08-08T14:29:00Z</time>
      </trkpt>
      <trkpt lat="48.41946" lon="7.17883">
        <ele>408.217041</ele>
        <time>2010-08-08T14:29:12Z</time>
      </trkpt>
      <trkpt lat="48.41942" lon="7.1786">
        <ele>407.2556152</ele>
        <time>2010-08-08T14:29:15Z</time>
      </trkpt>
      <trkpt lat="48.41897" lon="7.17741">
        <ele>408.217041</ele>
        <time>2010-08-08T14:29:34Z</time>
      </trkpt>
      <trkpt lat="48.41823" lon="7.17633">
        <ele>408.6976318</ele>
        <time>2010-08-08T14:29:56Z</time>
      </trkpt>
      <trkpt lat="48.41756" lon="7.17541">
        <ele>404.8522949</ele>
        <time>2010-08-08T14:30:17Z</time>
      </trkpt>
      <trkpt lat="48.41685" lon="7.17448">
        <ele>401.487793</ele>
        <time>2010-08-08T14:30:40Z</time>
      </trkpt>
      <trkpt lat="48.41611" lon="7.17381">
        <ele>409.1783447</ele>
        <time>2010-08-08T14:31:02Z</time>
      </trkpt>
      <trkpt lat="48.41528" lon="7.17338">
        <ele>413.0235596</ele>
        <time>2010-08-08T14:31:24Z</time>
      </trkpt>
      <trkpt lat="48.41458" lon="7.1729">
        <ele>414.4654541</ele>
        <time>2010-08-08T14:31:44Z</time>
      </trkpt>
      <trkpt lat="48.41425" lon="7.17255">
        <ele>413.9848633</ele>
        <time>2010-08-08T14:31:56Z</time>
      </trkpt>
      <trkpt lat="48.41388" lon="7.17198">
        <ele>414.946167</ele>
        <time>2010-08-08T14:32:11Z</time>
      </trkpt>
      <trkpt lat="48.41356" lon="7.17161">
        <ele>414.946167</ele>
        <time>2010-08-08T14:32:22Z</time>
      </trkpt>
      <trkpt lat="48.41335" lon="7.17092">
        <ele>417.8302002</ele>
        <time>2010-08-08T14:32:35Z</time>
      </trkpt>
      <trkpt lat="48.41288" lon="7.17038">
        <ele>424.5594482</ele>
        <time>2010-08-08T14:32:51Z</time>
      </trkpt>
      <trkpt lat="48.41271" lon="7.17026">
        <ele>425.520752</ele>
        <time>2010-08-08T14:32:55Z</time>
      </trkpt>
      <trkpt lat="48.41174" lon="7.16968">
        <ele>429.3659668</ele>
        <time>2010-08-08T14:33:17Z</time>
      </trkpt>
      <trkpt lat="48.41108" lon="7.16954">
        <ele>429.3659668</ele>
        <time>2010-08-08T14:33:31Z</time>
      </trkpt>
      <trkpt lat="48.41005" lon="7.169">
        <ele>431.2885742</ele>
        <time>2010-08-08T14:33:52Z</time>
      </trkpt>
      <trkpt lat="48.40921" lon="7.16839">
        <ele>430.8079834</ele>
        <time>2010-08-08T14:34:10Z</time>
      </trkpt>
      <trkpt lat="48.40847" lon="7.16736">
        <ele>430.3272705</ele>
        <time>2010-08-08T14:34:29Z</time>
      </trkpt>
      <trkpt lat="48.40771" lon="7.16633">
        <ele>430.3272705</ele>
        <time>2010-08-08T14:34:49Z</time>
      </trkpt>
      <trkpt lat="48.40755" lon="7.16609">
        <ele>429.8465576</ele>
        <time>2010-08-08T14:34:54Z</time>
      </trkpt>
      <trkpt lat="48.4074" lon="7.16574">
        <ele>429.3659668</ele>
        <time>2010-08-08T14:35:00Z</time>
      </trkpt>
      <trkpt lat="48.40723" lon="7.16547">
        <ele>428.885376</ele>
        <time>2010-08-08T14:35:05Z</time>
      </trkpt>
      <trkpt lat="48.40714" lon="7.16539">
        <ele>428.4046631</ele>
        <time>2010-08-08T14:35:07Z</time>
      </trkpt>
      <trkpt lat="48.40699" lon="7.16518">
        <ele>427.4433594</ele>
        <time>2010-08-08T14:35:11Z</time>
      </trkpt>
      <trkpt lat="48.40638" lon="7.16406">
        <ele>424.0787354</ele>
        <time>2010-08-08T14:35:31Z</time>
      </trkpt>
      <trkpt lat="48.40605" lon="7.16357">
        <ele>422.6367188</ele>
        <time>2010-08-08T14:35:40Z</time>
      </trkpt>
      <trkpt lat="48.40512" lon="7.16306">
        <ele>422.1560059</ele>
        <time>2010-08-08T14:35:59Z</time>
      </trkpt>
      <trkpt lat="48.4046" lon="7.16281">
        <ele>422.6367188</ele>
        <time>2010-08-08T14:36:10Z</time>
      </trkpt>
      <trkpt lat="48.40442" lon="7.16261">
        <ele>422.6367188</ele>
        <time>2010-08-08T14:36:15Z</time>
      </trkpt>
      <trkpt lat="48.40416" lon="7.16158">
        <ele>422.6367188</ele>
        <time>2010-08-08T14:36:30Z</time>
      </trkpt>
      <trkpt lat="48.40373" lon="7.161">
        <ele>422.1560059</ele>
        <time>2010-08-08T14:36:43Z</time>
      </trkpt>
      <trkpt lat="48.4036" lon="7.1608">
        <ele>422.1560059</ele>
        <time>2010-08-08T14:36:47Z</time>
      </trkpt>
      <trkpt lat="48.4036" lon="7.16019">
        <ele>422.6367188</ele>
        <time>2010-08-08T14:36:57Z</time>
      </trkpt>
      <trkpt lat="48.40363" lon="7.16014">
        <ele>422.6367188</ele>
        <time>2010-08-08T14:36:58Z</time>
      </trkpt>
      <trkpt lat="48.40389" lon="7.15971">
        <ele>424.5594482</ele>
        <time>2010-08-08T14:37:07Z</time>
      </trkpt>
      <trkpt lat="48.40409" lon="7.1591">
        <ele>425.0401611</ele>
        <time>2010-08-08T14:37:17Z</time>
      </trkpt>
      <trkpt lat="48.40416" lon="7.15893">
        <ele>425.520752</ele>
        <time>2010-08-08T14:37:20Z</time>
      </trkpt>
      <trkpt lat="48.40443" lon="7.15809">
        <ele>426.9627686</ele>
        <time>2010-08-08T14:37:34Z</time>
      </trkpt>
      <trkpt lat="48.40453" lon="7.15746">
        <ele>427.4433594</ele>
        <time>2010-08-08T14:37:44Z</time>
      </trkpt>
      <trkpt lat="48.40435" lon="7.15654">
        <ele>427.4433594</ele>
        <time>2010-08-08T14:37:59Z</time>
      </trkpt>
      <trkpt lat="48.404" lon="7.15595">
        <ele>427.4433594</ele>
        <time>2010-08-08T14:38:12Z</time>
      </trkpt>
      <trkpt lat="48.40359" lon="7.15561">
        <ele>427.4433594</ele>
        <time>2010-08-08T14:38:23Z</time>
      </trkpt>
      <trkpt lat="48.40269" lon="7.15539">
        <ele>427.9239502</ele>
        <time>2010-08-08T14:38:43Z</time>
      </trkpt>
      <trkpt lat="48.40173" lon="7.15526">
        <ele>429.3659668</ele>
        <time>2010-08-08T14:39:02Z</time>
      </trkpt>
      <trkpt lat="48.40085" lon="7.15515">
        <ele>430.3272705</ele>
        <time>2010-08-08T14:39:21Z</time>
      </trkpt>
      <trkpt lat="48.39962" lon="7.15496">
        <ele>432.7307129</ele>
        <time>2010-08-08T14:39:46Z</time>
      </trkpt>
      <trkpt lat="48.39935" lon="7.15488">
        <ele>432.25</ele>
        <time>2010-08-08T14:39:51Z</time>
      </trkpt>
      <trkpt lat="48.39921" lon="7.15482">
        <ele>432.7307129</ele>
        <time>2010-08-08T14:39:54Z</time>
      </trkpt>
      <trkpt lat="48.39817" lon="7.15412">
        <ele>432.7307129</ele>
        <time>2010-08-08T14:40:17Z</time>
      </trkpt>
      <trkpt lat="48.39812" lon="7.15409">
        <ele>432.7307129</ele>
        <time>2010-08-08T14:40:18Z</time>
      </trkpt>
      <trkpt lat="48.398" lon="7.15398">
        <ele>432.7307129</ele>
        <time>2010-08-08T14:40:21Z</time>
      </trkpt>
      <trkpt lat="48.39714" lon="7.15311">
        <ele>434.1726074</ele>
        <time>2010-08-08T14:40:43Z</time>
      </trkpt>
      <trkpt lat="48.39625" lon="7.15249">
        <ele>435.614502</ele>
        <time>2010-08-08T14:41:03Z</time>
      </trkpt>
      <trkpt lat="48.39555" lon="7.15239">
        <ele>439.4597168</ele>
        <time>2010-08-08T14:41:19Z</time>
      </trkpt>
      <trkpt lat="48.39542" lon="7.15236">
        <ele>439.4597168</ele>
        <time>2010-08-08T14:41:29Z</time>
      </trkpt>
      <trkpt lat="48.39542" lon="7.15232">
        <ele>440.4212646</ele>
        <time>2010-08-08T14:41:41Z</time>
      </trkpt>
      <trkpt lat="48.39543" lon="7.15235">
        <ele>439.9404297</ele>
        <time>2010-08-08T14:49:08Z</time>
      </trkpt>
      <trkpt lat="48.39541" lon="7.15239">
        <ele>440.9018555</ele>
        <time>2010-08-08T14:49:12Z</time>
      </trkpt>
      <trkpt lat="48.39518" lon="7.15249">
        <ele>440.4212646</ele>
        <time>2010-08-08T14:49:23Z</time>
      </trkpt>
      <trkpt lat="48.39475" lon="7.15284">
        <ele>441.3824463</ele>
        <time>2010-08-08T14:49:36Z</time>
      </trkpt>
      <trkpt lat="48.39408" lon="7.15312">
        <ele>443.3050537</ele>
        <time>2010-08-08T14:49:53Z</time>
      </trkpt>
      <trkpt lat="48.39354" lon="7.15304">
        <ele>443.7857666</ele>
        <time>2010-08-08T14:50:07Z</time>
      </trkpt>
      <trkpt lat="48.39325" lon="7.15289">
        <ele>443.7857666</ele>
        <time>2010-08-08T14:50:14Z</time>
      </trkpt>
      <trkpt lat="48.39256" lon="7.15212">
        <ele>446.1890869</ele>
        <time>2010-08-08T14:50:35Z</time>
      </trkpt>
      <trkpt lat="48.39199" lon="7.15145">
        <ele>445.708374</ele>
        <time>2010-08-08T14:50:54Z</time>
      </trkpt>
      <trkpt lat="48.39148" lon="7.1506">
        <ele>446.6696777</ele>
        <time>2010-08-08T14:51:12Z</time>
      </trkpt>
      <trkpt lat="48.39111" lon="7.14973">
        <ele>447.6309814</ele>
        <time>2010-08-08T14:51:28Z</time>
      </trkpt>
      <trkpt lat="48.39059" lon="7.14858">
        <ele>448.5924072</ele>
        <time>2010-08-08T14:51:48Z</time>
      </trkpt>
      <trkpt lat="48.39011" lon="7.14752">
        <ele>450.0344238</ele>
        <time>2010-08-08T14:52:08Z</time>
      </trkpt>
      <trkpt lat="48.38948" lon="7.14602">
        <ele>451.4763184</ele>
        <time>2010-08-08T14:52:33Z</time>
      </trkpt>
      <trkpt lat="48.38871" lon="7.14447">
        <ele>451.9570313</ele>
        <time>2010-08-08T14:52:57Z</time>
      </trkpt>
      <trkpt lat="48.38841" lon="7.14409">
        <ele>451.9570313</ele>
        <time>2010-08-08T14:53:05Z</time>
      </trkpt>
      <trkpt lat="48.3877" lon="7.14377">
        <ele>451.9570313</ele>
        <time>2010-08-08T14:53:21Z</time>
      </trkpt>
      <trkpt lat="48.38747" lon="7.14379">
        <ele>452.4376221</ele>
        <time>2010-08-08T14:53:26Z</time>
      </trkpt>
      <trkpt lat="48.38712" lon="7.1439">
        <ele>453.8796387</ele>
        <time>2010-08-08T14:53:35Z</time>
      </trkpt>
      <trkpt lat="48.38695" lon="7.14397">
        <ele>454.8408203</ele>
        <time>2010-08-08T14:53:38Z</time>
      </trkpt>
      <trkpt lat="48.38618" lon="7.14419">
        <ele>461.5701904</ele>
        <time>2010-08-08T14:53:53Z</time>
      </trkpt>
      <trkpt lat="48.38523" lon="7.14429">
        <ele>472.1446533</ele>
        <time>2010-08-08T14:54:17Z</time>
      </trkpt>
      <trkpt lat="48.38461" lon="7.14412">
        <ele>483.1998291</ele>
        <time>2010-08-08T14:54:34Z</time>
      </trkpt>
      <trkpt lat="48.38428" lon="7.14386">
        <ele>488.0064697</ele>
        <time>2010-08-08T14:54:45Z</time>
      </trkpt>
      <trkpt lat="48.38382" lon="7.14349">
        <ele>484.1611328</ele>
        <time>2010-08-08T14:54:57Z</time>
      </trkpt>
      <trkpt lat="48.3831" lon="7.14263">
        <ele>479.835083</ele>
        <time>2010-08-08T14:55:22Z</time>
      </trkpt>
      <trkpt lat="48.38288" lon="7.14231">
        <ele>478.3931885</ele>
        <time>2010-08-08T14:55:30Z</time>
      </trkpt>
      <trkpt lat="48.38215" lon="7.14157">
        <ele>475.0286865</ele>
        <time>2010-08-08T14:55:52Z</time>
      </trkpt>
      <trkpt lat="48.38175" lon="7.14111">
        <ele>475.0286865</ele>
        <time>2010-08-08T14:56:05Z</time>
      </trkpt>
      <trkpt lat="48.38108" lon="7.14072">
        <ele>475.9898682</ele>
        <time>2010-08-08T14:56:23Z</time>
      </trkpt>
      <trkpt lat="48.38024" lon="7.14063">
        <ele>471.1833496</ele>
        <time>2010-08-08T14:56:43Z</time>
      </trkpt>
      <trkpt lat="48.37996" lon="7.1406">
        <ele>469.741333</ele>
        <time>2010-08-08T14:56:50Z</time>
      </trkpt>
      <trkpt lat="48.37976" lon="7.14064">
        <ele>470.7026367</ele>
        <time>2010-08-08T14:56:55Z</time>
      </trkpt>
      <trkpt lat="48.37924" lon="7.14107">
        <ele>472.6253662</ele>
        <time>2010-08-08T14:57:09Z</time>
      </trkpt>
      <trkpt lat="48.3791" lon="7.14138">
        <ele>475.0286865</ele>
        <time>2010-08-08T14:57:15Z</time>
      </trkpt>
      <trkpt lat="48.37828" lon="7.14251">
        <ele>478.8739014</ele>
        <time>2010-08-08T14:57:36Z</time>
      </trkpt>
      <trkpt lat="48.37796" lon="7.14271">
        <ele>482.7192383</ele>
        <time>2010-08-08T14:57:44Z</time>
      </trkpt>
      <trkpt lat="48.37719" lon="7.14278">
        <ele>490.8903809</ele>
        <time>2010-08-08T14:57:59Z</time>
      </trkpt>
      <trkpt lat="48.37709" lon="7.14275">
        <ele>492.3323975</ele>
        <time>2010-08-08T14:58:01Z</time>
      </trkpt>
      <trkpt lat="48.37681" lon="7.14263">
        <ele>495.2161865</ele>
        <time>2010-08-08T14:58:07Z</time>
      </trkpt>
      <trkpt lat="48.37665" lon="7.14255">
        <ele>493.2935791</ele>
        <time>2010-08-08T14:58:10Z</time>
      </trkpt>
      <trkpt lat="48.37556" lon="7.14215">
        <ele>487.0450439</ele>
        <time>2010-08-08T14:58:33Z</time>
      </trkpt>
      <trkpt lat="48.37544" lon="7.14209">
        <ele>487.0450439</ele>
        <time>2010-08-08T14:58:36Z</time>
      </trkpt>
      <trkpt lat="48.3753" lon="7.14201">
        <ele>487.0450439</ele>
        <time>2010-08-08T14:58:40Z</time>
      </trkpt>
      <trkpt lat="48.37498" lon="7.14184">
        <ele>486.5644531</ele>
        <time>2010-08-08T14:58:46Z</time>
      </trkpt>
      <trkpt lat="48.37488" lon="7.14176">
        <ele>486.5644531</ele>
        <time>2010-08-08T14:58:48Z</time>
      </trkpt>
      <trkpt lat="48.37437" lon="7.14111">
        <ele>484.6418457</ele>
        <time>2010-08-08T14:59:01Z</time>
      </trkpt>
      <trkpt lat="48.37428" lon="7.14094">
        <ele>483.6804199</ele>
        <time>2010-08-08T14:59:04Z</time>
      </trkpt>
      <trkpt lat="48.37358" lon="7.13963">
        <ele>483.1998291</ele>
        <time>2010-08-08T14:59:28Z</time>
      </trkpt>
      <trkpt lat="48.37281" lon="7.13893">
        <ele>477.9124756</ele>
        <time>2010-08-08T14:59:47Z</time>
      </trkpt>
      <trkpt lat="48.37223" lon="7.13869">
        <ele>476.4705811</ele>
        <time>2010-08-08T14:59:59Z</time>
      </trkpt>
      <trkpt lat="48.37181" lon="7.13866">
        <ele>479.3544922</ele>
        <time>2010-08-08T15:00:08Z</time>
      </trkpt>
      <trkpt lat="48.37092" lon="7.13903">
        <ele>481.2772217</ele>
        <time>2010-08-08T15:00:25Z</time>
      </trkpt>
      <trkpt lat="48.37005" lon="7.13908">
        <ele>483.1998291</ele>
        <time>2010-08-08T15:00:40Z</time>
      </trkpt>
      <trkpt lat="48.36919" lon="7.13886">
        <ele>487.0450439</ele>
        <time>2010-08-08T15:00:58Z</time>
      </trkpt>
      <trkpt lat="48.36818" lon="7.13858">
        <ele>490.40979</ele>
        <time>2010-08-08T15:01:20Z</time>
      </trkpt>
      <trkpt lat="48.36704" lon="7.13825">
        <ele>490.8903809</ele>
        <time>2010-08-08T15:01:45Z</time>
      </trkpt>
      <trkpt lat="48.36611" lon="7.13778">
        <ele>491.3709717</ele>
        <time>2010-08-08T15:02:06Z</time>
      </trkpt>
      <trkpt lat="48.36534" lon="7.13721">
        <ele>490.8903809</ele>
        <time>2010-08-08T15:02:24Z</time>
      </trkpt>
      <trkpt lat="48.36493" lon="7.13689">
        <ele>491.3709717</ele>
        <time>2010-08-08T15:02:34Z</time>
      </trkpt>
      <trkpt lat="48.3648" lon="7.13679">
        <ele>491.3709717</ele>
        <time>2010-08-08T15:02:37Z</time>
      </trkpt>
      <trkpt lat="48.36394" lon="7.13674">
        <ele>489.4483643</ele>
        <time>2010-08-08T15:02:52Z</time>
      </trkpt>
      <trkpt lat="48.36295" lon="7.13697">
        <ele>490.40979</ele>
        <time>2010-08-08T15:03:09Z</time>
      </trkpt>
      <trkpt lat="48.36211" lon="7.13667">
        <ele>492.3323975</ele>
        <time>2010-08-08T15:03:25Z</time>
      </trkpt>
      <trkpt lat="48.36129" lon="7.1362">
        <ele>493.774292</ele>
        <time>2010-08-08T15:03:43Z</time>
      </trkpt>
      <trkpt lat="48.36086" lon="7.136">
        <ele>494.7355957</ele>
        <time>2010-08-08T15:03:52Z</time>
      </trkpt>
      <trkpt lat="48.35972" lon="7.13539">
        <ele>496.6583252</ele>
        <time>2010-08-08T15:04:17Z</time>
      </trkpt>
      <trkpt lat="48.35888" lon="7.13494">
        <ele>498.5809326</ele>
        <time>2010-08-08T15:04:37Z</time>
      </trkpt>
      <trkpt lat="48.35824" lon="7.1346">
        <ele>499.5422363</ele>
        <time>2010-08-08T15:04:52Z</time>
      </trkpt>
      <trkpt lat="48.35797" lon="7.13446">
        <ele>500.0229492</ele>
        <time>2010-08-08T15:04:58Z</time>
      </trkpt>
      <trkpt lat="48.3576" lon="7.13437">
        <ele>500.9841309</ele>
        <time>2010-08-08T15:05:06Z</time>
      </trkpt>
      <trkpt lat="48.35712" lon="7.13414">
        <ele>501.9455566</ele>
        <time>2010-08-08T15:05:17Z</time>
      </trkpt>
      <trkpt lat="48.35656" lon="7.13366">
        <ele>504.348877</ele>
        <time>2010-08-08T15:05:33Z</time>
      </trkpt>
      <trkpt lat="48.35596" lon="7.13314">
        <ele>506.2714844</ele>
        <time>2010-08-08T15:05:50Z</time>
      </trkpt>
      <trkpt lat="48.3556" lon="7.13288">
        <ele>506.7520752</ele>
        <time>2010-08-08T15:06:01Z</time>
      </trkpt>
      <trkpt lat="48.35522" lon="7.13246">
        <ele>508.6746826</ele>
        <time>2010-08-08T15:06:13Z</time>
      </trkpt>
      <trkpt lat="48.35492" lon="7.13212">
        <ele>511.0780029</ele>
        <time>2010-08-08T15:06:24Z</time>
      </trkpt>
      <trkpt lat="48.35467" lon="7.13187">
        <ele>511.0780029</ele>
        <time>2010-08-08T15:06:33Z</time>
      </trkpt>
      <trkpt lat="48.35415" lon="7.13162">
        <ele>515.4040527</ele>
        <time>2010-08-08T15:06:48Z</time>
      </trkpt>
      <trkpt lat="48.35342" lon="7.13147">
        <ele>513.9620361</ele>
        <time>2010-08-08T15:07:08Z</time>
      </trkpt>
      <trkpt lat="48.35266" lon="7.13152">
        <ele>514.9233398</ele>
        <time>2010-08-08T15:07:28Z</time>
      </trkpt>
      <trkpt lat="48.35214" lon="7.13127">
        <ele>516.8459473</ele>
        <time>2010-08-08T15:07:43Z</time>
      </trkpt>
      <trkpt lat="48.35167" lon="7.13063">
        <ele>518.7685547</ele>
        <time>2010-08-08T15:08:00Z</time>
      </trkpt>
      <trkpt lat="48.35135" lon="7.12936">
        <ele>519.7298584</ele>
        <time>2010-08-08T15:08:21Z</time>
      </trkpt>
      <trkpt lat="48.35135" lon="7.12785">
        <ele>521.1719971</ele>
        <time>2010-08-08T15:08:42Z</time>
      </trkpt>
      <trkpt lat="48.3515" lon="7.12673">
        <ele>521.6525879</ele>
        <time>2010-08-08T15:08:58Z</time>
      </trkpt>
      <trkpt lat="48.35196" lon="7.12593">
        <ele>521.1719971</ele>
        <time>2010-08-08T15:09:13Z</time>
      </trkpt>
      <trkpt lat="48.35211" lon="7.12567">
        <ele>520.6912842</ele>
        <time>2010-08-08T15:09:18Z</time>
      </trkpt>
      <trkpt lat="48.35231" lon="7.12527">
        <ele>519.2492676</ele>
        <time>2010-08-08T15:09:25Z</time>
      </trkpt>
      <trkpt lat="48.35235" lon="7.12514">
        <ele>519.2492676</ele>
        <time>2010-08-08T15:09:27Z</time>
      </trkpt>
      <trkpt lat="48.35244" lon="7.1247">
        <ele>519.2492676</ele>
        <time>2010-08-08T15:09:33Z</time>
      </trkpt>
      <trkpt lat="48.35244" lon="7.12446">
        <ele>519.7298584</ele>
        <time>2010-08-08T15:09:36Z</time>
      </trkpt>
      <trkpt lat="48.35214" lon="7.12327">
        <ele>522.1331787</ele>
        <time>2010-08-08T15:09:53Z</time>
      </trkpt>
      <trkpt lat="48.35211" lon="7.12289">
        <ele>523.5751953</ele>
        <time>2010-08-08T15:09:59Z</time>
      </trkpt>
      <trkpt lat="48.35209" lon="7.12265">
        <ele>524.536499</ele>
        <time>2010-08-08T15:10:03Z</time>
      </trkpt>
      <trkpt lat="48.35208" lon="7.12242">
        <ele>526.9398193</ele>
        <time>2010-08-08T15:10:07Z</time>
      </trkpt>
      <trkpt lat="48.35203" lon="7.12184">
        <ele>530.3044434</ele>
        <time>2010-08-08T15:10:19Z</time>
      </trkpt>
      <trkpt lat="48.35198" lon="7.12149">
        <ele>530.7851563</ele>
        <time>2010-08-08T15:10:27Z</time>
      </trkpt>
      <trkpt lat="48.35189" lon="7.12089">
        <ele>531.7463379</ele>
        <time>2010-08-08T15:10:38Z</time>
      </trkpt>
      <trkpt lat="48.35172" lon="7.12006">
        <ele>532.7077637</ele>
        <time>2010-08-08T15:10:55Z</time>
      </trkpt>
      <trkpt lat="48.35148" lon="7.11906">
        <ele>534.6303711</ele>
        <time>2010-08-08T15:11:15Z</time>
      </trkpt>
      <trkpt lat="48.35117" lon="7.1183">
        <ele>535.5915527</ele>
        <time>2010-08-08T15:11:31Z</time>
      </trkpt>
      <trkpt lat="48.35071" lon="7.11759">
        <ele>536.5531006</ele>
        <time>2010-08-08T15:11:48Z</time>
      </trkpt>
      <trkpt lat="48.35009" lon="7.11642">
        <ele>539.9176025</ele>
        <time>2010-08-08T15:12:13Z</time>
      </trkpt>
      <trkpt lat="48.34987" lon="7.11528">
        <ele>542.8015137</ele>
        <time>2010-08-08T15:12:34Z</time>
      </trkpt>
      <trkpt lat="48.34976" lon="7.11434">
        <ele>545.204834</ele>
        <time>2010-08-08T15:12:53Z</time>
      </trkpt>
      <trkpt lat="48.34966" lon="7.11347">
        <ele>547.1274414</ele>
        <time>2010-08-08T15:13:11Z</time>
      </trkpt>
      <trkpt lat="48.34954" lon="7.11289">
        <ele>549.5307617</ele>
        <time>2010-08-08T15:13:23Z</time>
      </trkpt>
      <trkpt lat="48.34929" lon="7.11196">
        <ele>551.934082</ele>
        <time>2010-08-08T15:13:42Z</time>
      </trkpt>
      <trkpt lat="48.349" lon="7.1108">
        <ele>552.4145508</ele>
        <time>2010-08-08T15:14:03Z</time>
      </trkpt>
      <trkpt lat="48.34892" lon="7.11035">
        <ele>553.8566895</ele>
        <time>2010-08-08T15:14:10Z</time>
      </trkpt>
      <trkpt lat="48.34878" lon="7.10992">
        <ele>554.8178711</ele>
        <time>2010-08-08T15:14:17Z</time>
      </trkpt>
      <trkpt lat="48.34857" lon="7.10858">
        <ele>555.298584</ele>
        <time>2010-08-08T15:14:37Z</time>
      </trkpt>
      <trkpt lat="48.34857" lon="7.10816">
        <ele>554.8178711</ele>
        <time>2010-08-08T15:14:44Z</time>
      </trkpt>
      <trkpt lat="48.34852" lon="7.10791">
        <ele>554.8178711</ele>
        <time>2010-08-08T15:14:48Z</time>
      </trkpt>
      <trkpt lat="48.34858" lon="7.107">
        <ele>560.5859375</ele>
        <time>2010-08-08T15:15:06Z</time>
      </trkpt>
      <trkpt lat="48.34863" lon="7.10658">
        <ele>561.0666504</ele>
        <time>2010-08-08T15:15:17Z</time>
      </trkpt>
      <trkpt lat="48.3487" lon="7.10634">
        <ele>561.5473633</ele>
        <time>2010-08-08T15:15:25Z</time>
      </trkpt>
      <trkpt lat="48.34872" lon="7.10626">
        <ele>561.5473633</ele>
        <time>2010-08-08T15:15:28Z</time>
      </trkpt>
      <trkpt lat="48.34878" lon="7.10602">
        <ele>562.5085449</ele>
        <time>2010-08-08T15:15:36Z</time>
      </trkpt>
      <trkpt lat="48.34862" lon="7.10591">
        <ele>562.0280762</ele>
        <time>2010-08-08T15:15:43Z</time>
      </trkpt>
      <trkpt lat="48.34825" lon="7.10588">
        <ele>560.5859375</ele>
        <time>2010-08-08T15:15:54Z</time>
      </trkpt>
      <trkpt lat="48.34816" lon="7.10521">
        <ele>561.0666504</ele>
        <time>2010-08-08T15:16:07Z</time>
      </trkpt>
      <trkpt lat="48.34808" lon="7.10464">
        <ele>562.9892578</ele>
        <time>2010-08-08T15:16:18Z</time>
      </trkpt>
      <trkpt lat="48.34798" lon="7.10423">
        <ele>563.9504395</ele>
        <time>2010-08-08T15:16:29Z</time>
      </trkpt>
      <trkpt lat="48.34797" lon="7.10417">
        <ele>563.9504395</ele>
        <time>2010-08-08T15:16:31Z</time>
      </trkpt>
      <trkpt lat="48.34774" lon="7.10326">
        <ele>568.2763672</ele>
        <time>2010-08-08T15:16:55Z</time>
      </trkpt>
      <trkpt lat="48.3476" lon="7.10237">
        <ele>571.1604004</ele>
        <time>2010-08-08T15:17:18Z</time>
      </trkpt>
      <trkpt lat="48.34749" lon="7.10141">
        <ele>575.0058594</ele>
        <time>2010-08-08T15:17:41Z</time>
      </trkpt>
      <trkpt lat="48.34741" lon="7.10053">
        <ele>577.4091797</ele>
        <time>2010-08-08T15:18:02Z</time>
      </trkpt>
      <trkpt lat="48.3474" lon="7.09969">
        <ele>580.2929688</ele>
        <time>2010-08-08T15:18:24Z</time>
      </trkpt>
      <trkpt lat="48.34766" lon="7.09975">
        <ele>577.4091797</ele>
        <time>2010-08-08T15:18:34Z</time>
      </trkpt>
      <trkpt lat="48.34806" lon="7.1">
        <ele>576.9284668</ele>
        <time>2010-08-08T15:18:44Z</time>
      </trkpt>
      <trkpt lat="48.34838" lon="7.10005">
        <ele>576.9284668</ele>
        <time>2010-08-08T15:18:55Z</time>
      </trkpt>
      <trkpt lat="48.3486" lon="7.09967">
        <ele>579.331543</ele>
        <time>2010-08-08T15:19:10Z</time>
      </trkpt>
      <trkpt lat="48.34881" lon="7.09918">
        <ele>582.6962891</ele>
        <time>2010-08-08T15:19:29Z</time>
      </trkpt>
      <trkpt lat="48.34898" lon="7.09892">
        <ele>585.0996094</ele>
        <time>2010-08-08T15:19:47Z</time>
      </trkpt>
      <trkpt lat="48.34897" lon="7.0989">
        <ele>585.5800781</ele>
        <time>2010-08-08T15:20:01Z</time>
      </trkpt>
      <trkpt lat="48.34894" lon="7.09896">
        <ele>584.6188965</ele>
        <time>2010-08-08T15:20:06Z</time>
      </trkpt>
      <trkpt lat="48.34898" lon="7.09897">
        <ele>584.1381836</ele>
        <time>2010-08-08T15:20:13Z</time>
      </trkpt>
      <trkpt lat="48.34898" lon="7.09897">
        <ele>584.6188965</ele>
        <time>2010-08-08T15:20:17Z</time>
      </trkpt>
    </trkseg>
  </trk>
</gpx>